GFSCGP_prec_precacc24_069.txt.gz
Total_Precipitation_Accumulation
0.00 0.00 0.00 0.00 0.00 0.00 0.00 0.00 0.00 0.00 0.01 0.00 0.00 0.00 0.00 0.04 0.15 0.06 0.03 0.00 0.00 0.00 0.00 0.00 0.00 0.00 0.00 0.00 0.00 0.01 0.02 0.00 0.00 0.01 0.01 0.01 0.05 0.11 0.18 0.15 0.15 0.15 0.08 0.13
0.00 0.00 0.00 0.00 0.00 0.00 0.00 0.00 0.00 0.00 0.00 0.00 0.00 0.00 0.00 0.00 0.02 0.00 0.00 0.01 0.00 0.00 0.00 0.00 0.00 0.00 0.00 0.00 0.00 0.00 0.00 0.00 0.00 0.00 0.00 0.02 0.03 0.10 0.17 0.14 0.12 0.22 0.15 0.11
0.00 0.00 0.00 0.00 0.00 0.00 0.00 0.00 0.00 0.00 0.00 0.00 0.00 0.00 0.00 0.00 0.00 0.00 0.01 0.03 0.01 0.00 0.00 0.00 0.00 0.00 0.00 0.00 0.00 0.00 0.00 0.00 0.00 0.00 0.00 0.00 0.05 0.12 0.10 0.17 0.17 0.16 0.15 0.20
0.00 0.00 0.00 0.00 0.00 0.00 0.00 0.00 0.00 0.00 0.00 0.00 0.00 0.00 0.00 0.00 0.00 0.00 0.00 0.02 0.02 0.00 0.00 0.00 0.00 0.00 0.00 0.00 0.00 0.00 0.00 0.00 0.00 0.00 0.00 0.01 0.04 0.05 0.15 0.17 0.13 0.10 0.09 0.11
0.00 0.00 0.00 0.00 0.00 0.00 0.00 0.00 0.00 0.00 0.00 0.00 0.00 0.00 0.00 0.00 0.00 0.00 0.00 0.00 0.03 0.01 0.00 0.00 0.00 0.00 0.00 0.00 0.00 0.00 0.02 0.02 0.00 0.00 0.01 0.07 0.10 0.13 0.16 0.13 0.10 0.08 0.08 0.07
0.00 0.00 0.00 0.00 0.00 0.00 0.00 0.00 0.00 0.00 0.00 0.00 0.00 0.00 0.00 0.00 0.00 0.00 0.00 0.00 0.09 0.01 0.00 0.00 0.00 0.00 0.00 0.00 0.00 0.00 0.00 0.06 0.06 0.04 0.05 0.07 0.14 0.13 0.09 0.08 0.09 0.06 0.07 0.07
0.00 0.00 0.00 0.00 0.00 0.00 0.00 0.00 0.01 0.06 0.01 0.00 0.00 0.00 0.00 0.00 0.00 0.00 0.00 0.00 0.00 0.00 0.00 0.00 0.00 0.00 0.00 0.00 0.00 0.01 0.01 0.03 0.06 0.11 0.06 0.03 0.10 0.14 0.15 0.12 0.17 0.12 0.06 0.06
0.00 0.00 0.00 0.00 0.00 0.00 0.00 0.00 0.02 0.10 0.08 0.05 0.01 0.00 0.00 0.00 0.00 0.00 0.00 0.00 0.00 0.00 0.00 0.00 0.00 0.00 0.00 0.01 0.04 0.01 0.02 0.05 0.05 0.10 0.16 0.17 0.23 0.31 0.37 0.36 0.30 0.19 0.21 0.24
0.00 0.00 0.00 0.00 0.00 0.00 0.00 0.00 0.00 0.01 0.02 0.04 0.01 0.00 0.00 0.00 0.00 0.00 0.00 0.00 0.00 0.00 0.00 0.00 0.01 0.00 0.00 0.01 0.05 0.07 0.03 0.05 0.03 0.06 0.12 0.19 0.31 0.37 0.30 0.34 0.56 0.41 0.37 0.27
0.00 0.00 0.00 0.00 0.00 0.00 0.00 0.00 0.00 0.00 0.07 0.06 0.00 0.00 0.01 0.01 0.00 0.00 0.00 0.00 0.00 0.00 0.00 0.00 0.00 0.00 0.00 0.02 0.07 0.12 0.07 0.06 0.05 0.05 0.07 0.12 0.22 0.38 0.47 0.78 1.08 1.22 0.98 0.74
0.00 0.00 0.00 0.00 0.00 0.00 0.00 0.00 0.00 0.00 0.00 0.05 0.03 0.01 0.01 0.01 0.00 0.00 0.00 0.00 0.00 0.00 0.00 0.00 0.00 0.01 0.00 0.00 0.05 0.12 0.17 0.13 0.05 0.09 0.17 0.30 0.36 0.56 0.89 0.85 1.16 0.94 0.89 0.94
0.00 0.00 0.00 0.00 0.00 0.00 0.00 0.00 0.00 0.00 0.00 0.01 0.02 0.01 0.01 0.00 0.00 0.00 0.00 0.00 0.00 0.00 0.00 0.00 0.00 0.01 0.00 0.00 0.01 0.06 0.25 0.46 0.60 0.57 0.97 0.89 1.04 1.20 1.10 1.37 1.94 1.32 0.95 0.68
0.00 0.00 0.00 0.00 0.00 0.00 0.00 0.00 0.00 0.00 0.00 0.01 0.08 0.01 0.00 0.00 0.00 0.00 0.00 0.00 0.00 0.00 0.00 0.00 0.00 0.00 0.00 0.01 0.04 0.19 0.69 1.08 0.87 0.93 0.94 1.05 1.47 0.95 0.57 0.42 0.34 0.30 0.21 0.13
0.00 0.00 0.00 0.00 0.00 0.00 0.00 0.00 0.00 0.00 0.01 0.00 0.01 0.00 0.00 0.00 0.00 0.00 0.00 0.00 0.00 0.00 0.00 0.00 0.00 0.00 0.00 0.03 0.10 0.18 0.41 0.63 0.66 0.65 0.65 0.61 0.59 0.58 0.36 0.29 0.20 0.12 0.10 0.12
0.01 0.01 0.00 0.00 0.00 0.00 0.00 0.00 0.00 0.00 0.00 0.01 0.00 0.00 0.00 0.00 0.00 0.00 0.00 0.00 0.00 0.00 0.00 0.00 0.00 0.01 0.02 0.04 0.05 0.05 0.14 0.19 0.23 0.26 0.24 0.22 0.18 0.16 0.14 0.13 0.07 0.05 0.04 0.04
0.02 0.01 0.00 0.00 0.00 0.00 0.00 0.00 0.00 0.00 0.00 0.00 0.00 0.00 0.00 0.00 0.00 0.00 0.00 0.00 0.00 0.00 0.00 0.00 0.00 0.00 0.01 0.01 0.03 0.06 0.08 0.10 0.10 0.18 0.16 0.11 0.06 0.08 0.08 0.07 0.07 0.03 0.03 0.06
0.06 0.08 0.04 0.01 0.00 0.00 0.01 0.00 0.00 0.00 0.00 0.00 0.00 0.00 0.00 0.00 0.00 0.00 0.00 0.00 0.00 0.00 0.00 0.00 0.00 0.02 0.11 0.04 0.04 0.02 0.05 0.06 0.08 0.09 0.07 0.06 0.08 0.06 0.04 0.04 0.04 0.04 0.07 0.14
0.16 0.11 0.14 0.07 0.02 0.10 0.03 0.00 0.00 0.00 0.00 0.00 0.00 0.00 0.00 0.00 0.00 0.00 0.00 0.00 0.00 0.00 0.00 0.00 0.00 0.08 0.06 0.01 0.01 0.01 0.02 0.02 0.02 0.03 0.03 0.04 0.06 0.05 0.03 0.02 0.05 0.11 0.18 0.20
0.15 0.19 0.28 0.14 0.07 0.05 0.00 0.00 0.00 0.00 0.00 0.00 0.00 0.00 0.00 0.00 0.00 0.00 0.00 0.00 0.00 0.00 0.00 0.00 0.00 0.00 0.00 0.00 0.00 0.00 0.00 0.00 0.01 0.02 0.02 0.02 0.02 0.03 0.03 0.09 0.16 0.16 0.09 0.04
0.35 0.23 0.24 0.25 0.15 0.07 0.00 0.00 0.00 0.00 0.00 0.00 0.00 0.00 0.00 0.00 0.00 0.00 0.00 0.00 0.00 0.00 0.00 0.00 0.00 0.00 0.00 0.00 0.00 0.00 0.00 0.00 0.00 0.01 0.01 0.00 0.02 0.08 0.12 0.09 0.03 0.01 0.01 0.02
0.23 0.35 0.31 0.27 0.21 0.04 0.00 0.00 0.00 0.01 0.01 0.00 0.00 0.00 0.00 0.00 0.00 0.00 0.00 0.00 0.00 0.00 0.00 0.00 0.00 0.00 0.00 0.00 0.00 0.00 0.00 0.00 0.00 0.00 0.01 0.02 0.03 0.01 0.00 0.01 0.01 0.01 0.01 0.00
0.05 0.17 0.25 0.30 0.26 0.10 0.02 0.06 0.07 0.02 0.00 0.00 0.00 0.00 0.00 0.00 0.00 0.00 0.00 0.00 0.00 0.00 0.00 0.00 0.00 0.00 0.00 0.00 0.00 0.00 0.00 0.00 0.00 0.00 0.00 0.00 0.00 0.00 0.01 0.01 0.00 0.00 0.00 0.00
0.02 0.02 0.05 0.07 0.05 0.01 0.03 0.08 0.09 0.04 0.01 0.01 0.00 0.00 0.00 0.00 0.00 0.00 0.00 0.00 0.00 0.00 0.00 0.00 0.00 0.00 0.00 0.00 0.00 0.00 0.00 0.00 0.00 0.00 0.00 0.00 0.00 0.00 0.00 0.00 0.00 0.00 0.00 0.00
0.01 0.00 0.01 0.01 0.01 0.01 0.01 0.02 0.01 0.00 0.01 0.01 0.00 0.01 0.01 0.01 0.01 0.01 0.00 0.00 0.00 0.00 0.00 0.00 0.00 0.00 0.00 0.00 0.00 0.00 0.00 0.00 0.00 0.00 0.00 0.00 0.00 0.00 0.00 0.00 0.00 0.00 0.00 0.00
0.00 0.02 0.03 0.02 0.00 0.01 0.01 0.02 0.06 0.04 0.00 0.00 0.00 0.00 0.00 0.00 0.00 0.00 0.00 0.00 0.00 0.00 0.00 0.00 0.00 0.00 0.00 0.00 0.00 0.00 0.00 0.00 0.00 0.00 0.00 0.00 0.00 0.00 0.00 0.00 0.00 0.00 0.00 0.00
0.01 0.02 0.05 0.05 0.03 0.03 0.01 0.01 0.01 0.00 0.00 0.00 0.00 0.00 0.00 0.00 0.00 0.00 0.00 0.00 0.00 0.00 0.00 0.00 0.00 0.00 0.00 0.00 0.00 0.00 0.00 0.00 0.00 0.00 0.00 0.00 0.00 0.00 0.00 0.00 0.00 0.00 0.00 0.00

GFSCGP_prec_precacc24_072.txt.gz
Total_Precipitation_Accumulation
0.00 0.00 0.00 0.00 0.00 0.00 0.00 0.00 0.00 0.00 0.01 0.00 0.00 0.00 0.00 0.04 0.15 0.06 0.03 0.00 0.00 0.00 0.00 0.00 0.00 0.00 0.00 0.00 0.00 0.01 0.02 0.03 0.09 0.09 0.02 0.07 0.07 0.11 0.15 0.16 0.16 0.15 0.08 0.13
0.00 0.00 0.00 0.00 0.00 0.00 0.00 0.00 0.00 0.00 0.00 0.00 0.00 0.00 0.00 0.00 0.02 0.00 0.00 0.01 0.00 0.00 0.00 0.00 0.00 0.00 0.00 0.00 0.00 0.00 0.00 0.00 0.00 0.01 0.01 0.03 0.05 0.05 0.12 0.15 0.13 0.23 0.16 0.12
0.00 0.00 0.00 0.00 0.00 0.00 0.00 0.00 0.00 0.00 0.00 0.00 0.00 0.00 0.00 0.00 0.00 0.00 0.01 0.03 0.01 0.00 0.00 0.00 0.00 0.00 0.00 0.00 0.00 0.00 0.00 0.00 0.00 0.00 0.00 0.01 0.02 0.06 0.07 0.17 0.18 0.17 0.16 0.21
0.00 0.00 0.00 0.00 0.00 0.00 0.00 0.00 0.00 0.00 0.00 0.00 0.00 0.00 0.00 0.00 0.00 0.00 0.00 0.02 0.02 0.00 0.00 0.00 0.00 0.00 0.00 0.00 0.00 0.00 0.00 0.00 0.00 0.00 0.00 0.00 0.01 0.01 0.11 0.16 0.13 0.10 0.10 0.12
0.00 0.00 0.00 0.00 0.00 0.00 0.00 0.00 0.00 0.00 0.00 0.00 0.00 0.00 0.00 0.00 0.00 0.00 0.00 0.00 0.03 0.01 0.00 0.00 0.00 0.00 0.00 0.00 0.00 0.00 0.00 0.00 0.00 0.00 0.00 0.00 0.00 0.04 0.12 0.12 0.10 0.08 0.08 0.07
0.00 0.00 0.00 0.00 0.00 0.00 0.00 0.00 0.00 0.00 0.00 0.00 0.00 0.00 0.00 0.00 0.00 0.00 0.00 0.00 0.09 0.01 0.00 0.00 0.00 0.00 0.00 0.00 0.00 0.00 0.00 0.00 0.00 0.04 0.04 0.02 0.02 0.04 0.05 0.06 0.08 0.06 0.07 0.07
0.00 0.00 0.00 0.00 0.00 0.00 0.00 0.00 0.01 0.06 0.01 0.00 0.00 0.00 0.00 0.00 0.00 0.00 0.00 0.00 0.00 0.00 0.00 0.00 0.00 0.00 0.00 0.00 0.00 0.00 0.00 0.00 0.01 0.06 0.05 0.02 0.03 0.05 0.10 0.10 0.17 0.12 0.06 0.06
0.00 0.00 0.00 0.00 0.00 0.00 0.00 0.00 0.02 0.10 0.08 0.05 0.01 0.00 0.00 0.00 0.00 0.00 0.00 0.00 0.00 0.00 0.00 0.00 0.00 0.00 0.00 0.00 0.00 0.00 0.00 0.00 0.00 0.04 0.11 0.14 0.15 0.21 0.30 0.31 0.30 0.19 0.21 0.24
0.00 0.00 0.00 0.00 0.00 0.00 0.00 0.00 0.00 0.01 0.02 0.04 0.01 0.00 0.00 0.00 0.00 0.00 0.00 0.00 0.00 0.00 0.00 0.00 0.01 0.00 0.00 0.01 0.00 0.00 0.00 0.02 0.01 0.04 0.06 0.10 0.18 0.23 0.16 0.26 0.54 0.40 0.36 0.26
0.00 0.00 0.00 0.00 0.00 0.00 0.00 0.00 0.00 0.00 0.07 0.06 0.00 0.00 0.01 0.01 0.00 0.00 0.00 0.00 0.00 0.00 0.00 0.00 0.00 0.00 0.00 0.01 0.05 0.10 0.05 0.04 0.04 0.04 0.03 0.04 0.13 0.27 0.37 0.70 1.03 1.18 0.96 0.72
0.00 0.00 0.00 0.00 0.00 0.00 0.00 0.00 0.00 0.00 0.00 0.05 0.03 0.01 0.01 0.01 0.00 0.00 0.00 0.00 0.00 0.00 0.00 0.00 0.00 0.01 0.00 0.00 0.04 0.12 0.21 0.18 0.04 0.07 0.12 0.25 0.30 0.48 0.82 0.78 1.11 0.91 0.88 0.94
0.00 0.00 0.00 0.00 0.00 0.00 0.00 0.00 0.00 0.00 0.00 0.01 0.02 0.01 0.01 0.00 0.00 0.00 0.00 0.00 0.00 0.00 0.00 0.00 0.00 0.01 0.00 0.00 0.01 0.07 0.27 0.47 0.60 0.50 0.89 0.78 0.93 1.12 1.05 1.33 1.91 1.30 0.95 0.70
0.00 0.00 0.00 0.00 0.00 0.00 0.00 0.00 0.00 0.00 0.00 0.01 0.08 0.01 0.00 0.00 0.00 0.00 0.00 0.00 0.00 0.00 0.00 0.00 0.00 0.00 0.00 0.01 0.03 0.17 0.64 1.04 0.84 0.88 0.86 0.97 1.41 0.92 0.55 0.41 0.34 0.30 0.23 0.16
0.00 0.00 0.00 0.00 0.00 0.00 0.00 0.00 0.00 0.00 0.01 0.00 0.01 0.00 0.00 0.00 0.00 0.00 0.00 0.00 0.00 0.00 0.00 0.00 0.00 0.00 0.00 0.02 0.05 0.13 0.37 0.57 0.57 0.61 0.60 0.57 0.56 0.57 0.36 0.29 0.23 0.24 0.21 0.19
0.02 0.01 0.00 0.00 0.00 0.00 0.00 0.00 0.00 0.00 0.00 0.01 0.00 0.00 0.00 0.00 0.00 0.00 0.00 0.00 0.00 0.00 0.00 0.00 0.00 0.00 0.00 0.01 0.02 0.03 0.10 0.14 0.18 0.23 0.20 0.19 0.18 0.16 0.14 0.14 0.08 0.07 0.04 0.04
0.02 0.01 0.00 0.00 0.00 0.00 0.00 0.00 0.00 0.00 0.00 0.00 0.00 0.00 0.00 0.00 0.00 0.00 0.00 0.00 0.00 0.00 0.00 0.00 0.00 0.00 0.00 0.00 0.03 0.05 0.07 0.10 0.09 0.16 0.14 0.11 0.12 0.13 0.10 0.08 0.09 0.06 0.06 0.08
0.07 0.08 0.04 0.02 0.00 0.00 0.01 0.00 0.00 0.00 0.00 0.00 0.00 0.00 0.00 0.00 0.00 0.00 0.00 0.00 0.00 0.00 0.00 0.00 0.00 0.02 0.11 0.04 0.04 0.02 0.05 0.06 0.08 0.08 0.06 0.07 0.10 0.09 0.10 0.06 0.07 0.12 0.12 0.14
0.18 0.13 0.14 0.07 0.02 0.11 0.04 0.00 0.00 0.00 0.00 0.00 0.00 0.00 0.00 0.00 0.00 0.00 0.00 0.00 0.00 0.00 0.00 0.00 0.00 0.08 0.06 0.01 0.01 0.01 0.02 0.02 0.02 0.03 0.03 0.04 0.07 0.07 0.05 0.04 0.06 0.10 0.17 0.21
0.17 0.20 0.29 0.14 0.07 0.05 0.00 0.00 0.00 0.00 0.00 0.00 0.00 0.00 0.00 0.00 0.00 0.00 0.00 0.00 0.00 0.00 0.00 0.00 0.00 0.00 0.00 0.00 0.00 0.00 0.00 0.00 0.01 0.02 0.02 0.03 0.03 0.04 0.05 0.07 0.11 0.10 0.10 0.07
0.36 0.24 0.26 0.25 0.16 0.07 0.00 0.00 0.00 0.00 0.00 0.00 0.00 0.00 0.00 0.00 0.00 0.00 0.00 0.00 0.00 0.00 0.00 0.00 0.00 0.00 0.00 0.00 0.00 0.00 0.00 0.00 0.00 0.01 0.02 0.01 0.01 0.02 0.03 0.04 0.03 0.02 0.02 0.04
0.26 0.37 0.32 0.28 0.22 0.04 0.00 0.00 0.00 0.01 0.01 0.00 0.00 0.00 0.00 0.00 0.00 0.00 0.00 0.00 0.00 0.00 0.00 0.00 0.00 0.00 0.00 0.00 0.00 0.00 0.00 0.00 0.00 0.00 0.00 0.00 0.00 0.00 0.01 0.01 0.02 0.02 0.03 0.03
0.06 0.18 0.26 0.31 0.27 0.10 0.02 0.06 0.08 0.03 0.01 0.00 0.00 0.00 0.00 0.00 0.00 0.00 0.00 0.00 0.00 0.00 0.00 0.00 0.00 0.00 0.00 0.00 0.00 0.00 0.00 0.00 0.00 0.00 0.00 0.01 0.01 0.01 0.02 0.02 0.02 0.04 0.05 0.04
0.02 0.02 0.05 0.07 0.05 0.01 0.03 0.08 0.09 0.08 0.06 0.04 0.01 0.00 0.00 0.00 0.00 0.00 0.00 0.00 0.00 0.00 0.00 0.00 0.00 0.00 0.00 0.00 0.00 0.00 0.00 0.00 0.00 0.00 0.00 0.00 0.02 0.03 0.02 0.03 0.04 0.05 0.04 0.03
0.01 0.00 0.01 0.01 0.01 0.01 0.01 0.02 0.01 0.00 0.01 0.01 0.01 0.01 0.02 0.02 0.01 0.01 0.00 0.00 0.00 0.00 0.00 0.00 0.00 0.00 0.00 0.00 0.00 0.00 0.01 0.01 0.01 0.00 0.00 0.00 0.01 0.02 0.02 0.03 0.03 0.02 0.02 0.01
0.00 0.02 0.03 0.02 0.00 0.01 0.01 0.02 0.06 0.04 0.01 0.00 0.01 0.00 0.00 0.00 0.00 0.00 0.01 0.00 0.00 0.00 0.00 0.00 0.00 0.00 0.00 0.00 0.01 0.02 0.02 0.01 0.00 0.00 0.00 0.00 0.00 0.01 0.00 0.01 0.02 0.01 0.01 0.00
0.01 0.02 0.05 0.05 0.03 0.03 0.01 0.01 0.01 0.00 0.01 0.01 0.01 0.01 0.00 0.00 0.00 0.00 0.00 0.00 0.00 0.00 0.00 0.00 0.00 0.00 0.00 0.00 0.00 0.00 0.00 0.00 0.00 0.00 0.00 0.00 0.00 0.01 0.01 0.01 0.01 0.01 0.00 0.00

GFSCGP_prec_precacc24_075.txt.gz
Total_Precipitation_Accumulation
0.00 0.00 0.00 0.00 0.00 0.00 0.00 0.00 0.00 0.00 0.00 0.00 0.00 0.00 0.00 0.04 0.15 0.06 0.03 0.00 0.00 0.00 0.00 0.00 0.00 0.00 0.00 0.00 0.01 0.01 0.02 0.04 0.14 0.11 0.03 0.10 0.17 0.26 0.25 0.14 0.07 0.12 0.08 0.13
0.00 0.00 0.00 0.00 0.00 0.00 0.00 0.00 0.00 0.00 0.00 0.00 0.00 0.00 0.00 0.00 0.02 0.00 0.00 0.01 0.00 0.00 0.00 0.00 0.00 0.00 0.00 0.00 0.00 0.01 0.00 0.00 0.01 0.02 0.01 0.03 0.08 0.13 0.16 0.17 0.07 0.18 0.16 0.12
0.00 0.00 0.00 0.00 0.00 0.00 0.00 0.00 0.00 0.00 0.00 0.00 0.00 0.00 0.00 0.00 0.00 0.00 0.01 0.03 0.01 0.00 0.00 0.00 0.00 0.00 0.00 0.00 0.00 0.00 0.00 0.00 0.00 0.01 0.01 0.04 0.16 0.16 0.12 0.21 0.15 0.16 0.16 0.21
0.00 0.00 0.00 0.00 0.00 0.00 0.00 0.00 0.00 0.00 0.00 0.00 0.00 0.00 0.00 0.00 0.00 0.00 0.00 0.02 0.02 0.00 0.00 0.00 0.00 0.00 0.00 0.00 0.00 0.00 0.00 0.00 0.00 0.00 0.00 0.01 0.05 0.08 0.06 0.08 0.12 0.11 0.10 0.13
0.00 0.00 0.00 0.00 0.00 0.00 0.00 0.00 0.00 0.00 0.00 0.00 0.00 0.00 0.00 0.00 0.00 0.00 0.00 0.00 0.03 0.01 0.00 0.00 0.00 0.00 0.00 0.00 0.00 0.00 0.00 0.00 0.00 0.00 0.00 0.00 0.00 0.01 0.05 0.07 0.08 0.07 0.08 0.07
0.00 0.00 0.00 0.00 0.00 0.00 0.00 0.00 0.00 0.00 0.00 0.00 0.00 0.00 0.00 0.00 0.00 0.00 0.00 0.00 0.09 0.01 0.00 0.00 0.00 0.00 0.00 0.00 0.00 0.00 0.00 0.00 0.00 0.00 0.02 0.01 0.00 0.01 0.01 0.01 0.04 0.04 0.06 0.07
0.00 0.00 0.00 0.00 0.00 0.00 0.00 0.00 0.01 0.06 0.01 0.00 0.00 0.00 0.00 0.00 0.00 0.00 0.00 0.00 0.00 0.00 0.00 0.00 0.00 0.00 0.00 0.00 0.00 0.00 0.00 0.00 0.00 0.02 0.02 0.01 0.01 0.03 0.04 0.04 0.13 0.11 0.05 0.05
0.01 0.01 0.00 0.00 0.00 0.00 0.00 0.00 0.02 0.10 0.08 0.05 0.01 0.00 0.00 0.00 0.00 0.00 0.00 0.00 0.00 0.00 0.00 0.00 0.00 0.00 0.00 0.00 0.00 0.00 0.00 0.00 0.00 0.02 0.04 0.08 0.12 0.17 0.20 0.18 0.22 0.16 0.18 0.22
0.00 0.00 0.00 0.00 0.00 0.00 0.00 0.00 0.00 0.01 0.02 0.04 0.01 0.00 0.00 0.00 0.00 0.00 0.00 0.00 0.00 0.00 0.00 0.00 0.01 0.00 0.00 0.01 0.00 0.00 0.00 0.02 0.01 0.04 0.05 0.06 0.13 0.13 0.03 0.13 0.41 0.31 0.33 0.26
0.00 0.00 0.00 0.00 0.00 0.00 0.00 0.00 0.00 0.00 0.07 0.06 0.00 0.00 0.01 0.01 0.00 0.00 0.00 0.00 0.00 0.00 0.00 0.00 0.00 0.00 0.00 0.01 0.05 0.09 0.05 0.03 0.03 0.03 0.02 0.01 0.07 0.18 0.24 0.57 0.91 1.10 0.91 0.70
0.00 0.00 0.00 0.00 0.00 0.00 0.00 0.00 0.00 0.00 0.00 0.05 0.03 0.01 0.01 0.01 0.00 0.00 0.00 0.00 0.00 0.00 0.00 0.00 0.00 0.01 0.00 0.00 0.04 0.12 0.21 0.20 0.06 0.04 0.06 0.18 0.23 0.38 0.71 0.67 1.02 0.85 0.85 0.93
0.00 0.00 0.00 0.00 0.00 0.00 0.00 0.00 0.00 0.00 0.00 0.01 0.02 0.01 0.01 0.00 0.00 0.00 0.00 0.00 0.00 0.00 0.00 0.00 0.00 0.01 0.00 0.00 0.01 0.07 0.27 0.46 0.60 0.50 0.81 0.68 0.80 0.99 0.94 1.25 1.86 1.27 0.94 0.69
0.00 0.00 0.00 0.00 0.00 0.00 0.00 0.00 0.00 0.00 0.00 0.01 0.08 0.01 0.00 0.00 0.00 0.00 0.00 0.00 0.00 0.00 0.00 0.00 0.00 0.00 0.00 0.01 0.03 0.17 0.63 1.00 0.80 0.87 0.80 0.85 1.32 0.83 0.48 0.36 0.32 0.30 0.22 0.16
0.00 0.00 0.00 0.00 0.00 0.00 0.00 0.00 0.00 0.00 0.01 0.00 0.01 0.00 0.00 0.00 0.00 0.00 0.00 0.00 0.00 0.00 0.00 0.00 0.00 0.00 0.00 0.01 0.04 0.11 0.35 0.56 0.55 0.57 0.55 0.51 0.48 0.49 0.32 0.27 0.23 0.24 0.21 0.19
0.02 0.01 0.00 0.00 0.00 0.00 0.00 0.00 0.00 0.00 0.00 0.01 0.00 0.00 0.00 0.00 0.00 0.00 0.00 0.00 0.00 0.00 0.00 0.00 0.00 0.00 0.00 0.00 0.01 0.02 0.10 0.14 0.16 0.21 0.19 0.17 0.18 0.15 0.13 0.14 0.08 0.07 0.04 0.04
0.02 0.01 0.00 0.00 0.00 0.00 0.00 0.00 0.00 0.00 0.00 0.00 0.00 0.00 0.00 0.00 0.00 0.00 0.00 0.00 0.00 0.00 0.00 0.00 0.00 0.00 0.00 0.00 0.03 0.05 0.07 0.10 0.09 0.16 0.13 0.11 0.12 0.13 0.10 0.08 0.09 0.06 0.05 0.07
0.07 0.08 0.05 0.02 0.00 0.00 0.01 0.00 0.00 0.00 0.00 0.00 0.00 0.00 0.00 0.00 0.00 0.00 0.00 0.00 0.00 0.00 0.00 0.00 0.00 0.02 0.11 0.04 0.04 0.02 0.05 0.06 0.08 0.08 0.06 0.07 0.10 0.09 0.10 0.08 0.08 0.13 0.11 0.11
0.18 0.13 0.14 0.07 0.02 0.11 0.04 0.00 0.00 0.00 0.00 0.00 0.00 0.00 0.00 0.00 0.00 0.00 0.00 0.00 0.00 0.00 0.00 0.00 0.00 0.08 0.06 0.01 0.01 0.01 0.02 0.02 0.02 0.03 0.03 0.04 0.07 0.07 0.05 0.05 0.05 0.08 0.12 0.12
0.17 0.21 0.33 0.16 0.07 0.05 0.00 0.00 0.00 0.00 0.00 0.00 0.00 0.00 0.00 0.00 0.00 0.00 0.00 0.00 0.00 0.00 0.00 0.00 0.00 0.00 0.00 0.00 0.00 0.00 0.00 0.00 0.01 0.02 0.02 0.03 0.03 0.04 0.04 0.05 0.08 0.05 0.07 0.09
0.36 0.25 0.29 0.29 0.17 0.07 0.00 0.00 0.00 0.00 0.00 0.00 0.00 0.00 0.00 0.00 0.00 0.00 0.00 0.00 0.00 0.00 0.00 0.00 0.00 0.00 0.00 0.00 0.00 0.00 0.00 0.00 0.00 0.01 0.02 0.01 0.01 0.01 0.03 0.03 0.03 0.03 0.04 0.06
0.26 0.38 0.33 0.30 0.24 0.04 0.00 0.00 0.01 0.02 0.01 0.00 0.00 0.00 0.00 0.00 0.00 0.00 0.00 0.00 0.00 0.00 0.00 0.00 0.00 0.00 0.00 0.00 0.00 0.00 0.00 0.00 0.00 0.00 0.00 0.01 0.01 0.02 0.03 0.03 0.02 0.03 0.04 0.05
0.08 0.20 0.27 0.32 0.28 0.10 0.02 0.08 0.12 0.04 0.01 0.00 0.00 0.00 0.00 0.00 0.00 0.00 0.00 0.00 0.00 0.00 0.00 0.00 0.00 0.00 0.00 0.00 0.00 0.00 0.00 0.00 0.00 0.00 0.01 0.02 0.05 0.06 0.05 0.04 0.03 0.04 0.05 0.06
0.02 0.03 0.05 0.07 0.05 0.01 0.03 0.08 0.09 0.08 0.06 0.04 0.01 0.00 0.00 0.00 0.00 0.00 0.00 0.00 0.00 0.00 0.00 0.00 0.00 0.00 0.00 0.00 0.00 0.00 0.00 0.00 0.00 0.01 0.01 0.03 0.03 0.04 0.03 0.04 0.05 0.06 0.06 0.06
0.00 0.00 0.00 0.01 0.01 0.01 0.01 0.02 0.01 0.00 0.01 0.01 0.01 0.01 0.02 0.02 0.01 0.01 0.00 0.00 0.00 0.00 0.00 0.00 0.00 0.00 0.00 0.00 0.00 0.00 0.01 0.02 0.02 0.02 0.01 0.01 0.02 0.03 0.02 0.04 0.04 0.05 0.05 0.06
0.00 0.01 0.03 0.02 0.00 0.01 0.01 0.02 0.06 0.04 0.01 0.00 0.01 0.00 0.01 0.00 0.00 0.00 0.01 0.00 0.00 0.00 0.00 0.00 0.00 0.00 0.00 0.00 0.01 0.02 0.03 0.02 0.01 0.00 0.00 0.00 0.01 0.02 0.00 0.02 0.05 0.05 0.05 0.08
0.01 0.02 0.05 0.05 0.03 0.03 0.01 0.01 0.01 0.00 0.01 0.01 0.01 0.01 0.02 0.01 0.00 0.00 0.00 0.00 0.00 0.00 0.00 0.00 0.00 0.00 0.01 0.01 0.00 0.00 0.00 0.00 0.00 0.00 0.00 0.00 0.00 0.01 0.01 0.02 0.05 0.07 0.05 0.07

GFSCGP_prec_precacc24_078.txt.gz
Total_Precipitation_Accumulation
0.00 0.00 0.00 0.00 0.00 0.00 0.00 0.00 0.00 0.00 0.00 0.00 0.00 0.00 0.00 0.04 0.15 0.06 0.03 0.00 0.00 0.00 0.00 0.00 0.00 0.00 0.00 0.00 0.01 0.02 0.03 0.05 0.15 0.12 0.04 0.16 0.34 0.38 0.28 0.14 0.02 0.03 0.05 0.11
0.00 0.00 0.00 0.00 0.00 0.00 0.00 0.00 0.00 0.00 0.00 0.00 0.00 0.00 0.00 0.00 0.02 0.00 0.00 0.01 0.00 0.00 0.00 0.00 0.00 0.00 0.00 0.00 0.00 0.01 0.00 0.00 0.01 0.02 0.01 0.04 0.14 0.28 0.21 0.16 0.03 0.06 0.06 0.10
0.00 0.00 0.00 0.00 0.00 0.00 0.00 0.00 0.00 0.00 0.00 0.00 0.00 0.00 0.00 0.00 0.00 0.00 0.01 0.03 0.01 0.00 0.00 0.00 0.00 0.00 0.00 0.00 0.00 0.00 0.00 0.00 0.00 0.01 0.01 0.04 0.17 0.27 0.22 0.19 0.04 0.03 0.07 0.18
0.00 0.00 0.00 0.00 0.00 0.00 0.00 0.00 0.00 0.00 0.00 0.00 0.00 0.00 0.00 0.00 0.00 0.00 0.00 0.02 0.02 0.00 0.00 0.00 0.00 0.00 0.00 0.00 0.00 0.00 0.00 0.00 0.00 0.00 0.00 0.01 0.05 0.12 0.07 0.04 0.03 0.03 0.06 0.11
0.00 0.00 0.00 0.00 0.00 0.00 0.00 0.00 0.00 0.00 0.00 0.00 0.00 0.00 0.00 0.00 0.00 0.00 0.00 0.00 0.03 0.01 0.00 0.00 0.00 0.00 0.00 0.00 0.00 0.00 0.00 0.00 0.00 0.00 0.00 0.00 0.01 0.03 0.06 0.06 0.04 0.03 0.04 0.05
0.00 0.00 0.00 0.00 0.00 0.00 0.00 0.00 0.00 0.00 0.00 0.00 0.00 0.00 0.00 0.00 0.00 0.00 0.00 0.00 0.09 0.01 0.00 0.00 0.00 0.00 0.00 0.00 0.00 0.00 0.00 0.00 0.00 0.00 0.00 0.00 0.00 0.02 0.03 0.03 0.04 0.01 0.02 0.05
0.00 0.00 0.00 0.00 0.00 0.00 0.00 0.00 0.01 0.06 0.01 0.00 0.00 0.00 0.00 0.00 0.00 0.00 0.00 0.00 0.00 0.00 0.00 0.00 0.00 0.00 0.00 0.00 0.00 0.00 0.00 0.00 0.00 0.00 0.00 0.00 0.00 0.01 0.04 0.03 0.11 0.06 0.02 0.03
0.01 0.01 0.00 0.00 0.00 0.00 0.00 0.00 0.02 0.10 0.08 0.05 0.01 0.00 0.00 0.00 0.00 0.00 0.00 0.00 0.00 0.00 0.00 0.00 0.00 0.00 0.00 0.00 0.00 0.00 0.00 0.00 0.00 0.00 0.00 0.02 0.08 0.14 0.19 0.17 0.18 0.11 0.13 0.14
0.00 0.00 0.00 0.00 0.00 0.00 0.00 0.00 0.00 0.01 0.02 0.04 0.01 0.00 0.00 0.00 0.00 0.00 0.00 0.00 0.00 0.00 0.00 0.00 0.01 0.00 0.00 0.01 0.00 0.00 0.00 0.00 0.00 0.00 0.00 0.04 0.07 0.06 0.01 0.10 0.38 0.26 0.27 0.20
0.00 0.00 0.00 0.00 0.00 0.00 0.00 0.00 0.00 0.00 0.07 0.06 0.00 0.00 0.01 0.01 0.00 0.00 0.00 0.00 0.00 0.00 0.00 0.00 0.00 0.00 0.00 0.01 0.05 0.09 0.05 0.01 0.00 0.00 0.01 0.00 0.06 0.15 0.22 0.54 0.85 1.04 0.85 0.65
0.00 0.00 0.00 0.00 0.00 0.00 0.00 0.00 0.00 0.00 0.00 0.05 0.03 0.01 0.01 0.01 0.00 0.00 0.00 0.00 0.00 0.00 0.00 0.00 0.00 0.01 0.00 0.00 0.04 0.12 0.21 0.20 0.06 0.04 0.06 0.17 0.20 0.35 0.67 0.62 0.96 0.80 0.81 0.90
0.00 0.00 0.00 0.00 0.00 0.00 0.00 0.00 0.00 0.00 0.00 0.01 0.02 0.01 0.01 0.00 0.00 0.00 0.00 0.00 0.00 0.00 0.00 0.00 0.00 0.01 0.00 0.00 0.01 0.07 0.27 0.46 0.61 0.52 0.81 0.67 0.79 0.94 0.89 1.20 1.81 1.25 0.92 0.68
0.00 0.00 0.00 0.00 0.00 0.00 0.00 0.00 0.00 0.00 0.00 0.01 0.08 0.01 0.00 0.00 0.00 0.00 0.00 0.00 0.00 0.00 0.00 0.00 0.00 0.00 0.00 0.01 0.03 0.17 0.63 1.00 0.80 0.88 0.81 0.85 1.30 0.79 0.43 0.32 0.30 0.28 0.22 0.16
0.00 0.00 0.00 0.00 0.00 0.00 0.00 0.00 0.00 0.00 0.01 0.00 0.01 0.00 0.00 0.00 0.00 0.00 0.00 0.00 0.00 0.00 0.00 0.00 0.00 0.00 0.00 0.01 0.04 0.11 0.35 0.56 0.55 0.57 0.55 0.50 0.47 0.48 0.31 0.26 0.22 0.23 0.20 0.19
0.02 0.01 0.00 0.00 0.00 0.00 0.00 0.00 0.00 0.00 0.00 0.01 0.00 0.00 0.00 0.00 0.00 0.00 0.00 0.00 0.00 0.00 0.00 0.00 0.00 0.00 0.00 0.00 0.00 0.01 0.09 0.13 0.16 0.19 0.17 0.17 0.17 0.15 0.13 0.14 0.08 0.07 0.04 0.04
0.02 0.01 0.00 0.00 0.00 0.00 0.00 0.00 0.00 0.00 0.00 0.00 0.00 0.00 0.00 0.00 0.00 0.00 0.00 0.00 0.00 0.00 0.00 0.00 0.00 0.00 0.00 0.00 0.01 0.04 0.06 0.09 0.08 0.16 0.13 0.11 0.12 0.13 0.10 0.08 0.09 0.06 0.05 0.07
0.07 0.08 0.05 0.02 0.00 0.00 0.01 0.00 0.00 0.00 0.00 0.00 0.00 0.00 0.00 0.00 0.00 0.00 0.00 0.00 0.00 0.00 0.00 0.00 0.00 0.02 0.11 0.04 0.04 0.02 0.05 0.06 0.08 0.08 0.06 0.07 0.10 0.09 0.10 0.08 0.08 0.13 0.13 0.11
0.18 0.13 0.15 0.08 0.03 0.11 0.04 0.00 0.00 0.00 0.00 0.00 0.00 0.00 0.00 0.00 0.00 0.00 0.00 0.00 0.00 0.00 0.00 0.00 0.00 0.08 0.06 0.01 0.01 0.01 0.02 0.02 0.02 0.03 0.03 0.04 0.07 0.07 0.05 0.05 0.04 0.06 0.11 0.13
0.17 0.21 0.33 0.16 0.08 0.05 0.00 0.00 0.00 0.00 0.00 0.00 0.00 0.00 0.00 0.00 0.00 0.00 0.00 0.00 0.00 0.00 0.00 0.00 0.00 0.00 0.00 0.00 0.00 0.00 0.00 0.00 0.01 0.02 0.02 0.03 0.03 0.04 0.04 0.05 0.07 0.05 0.07 0.09
0.36 0.25 0.29 0.31 0.19 0.07 0.00 0.00 0.00 0.00 0.00 0.00 0.00 0.00 0.00 0.00 0.00 0.00 0.00 0.00 0.00 0.00 0.00 0.00 0.00 0.00 0.00 0.00 0.00 0.00 0.00 0.00 0.00 0.01 0.02 0.01 0.01 0.01 0.03 0.03 0.03 0.03 0.04 0.07
0.26 0.39 0.34 0.31 0.25 0.04 0.00 0.00 0.01 0.02 0.01 0.00 0.00 0.00 0.00 0.00 0.00 0.00 0.00 0.00 0.00 0.00 0.00 0.00 0.00 0.00 0.00 0.00 0.00 0.00 0.00 0.00 0.00 0.00 0.00 0.01 0.01 0.02 0.03 0.05 0.04 0.04 0.04 0.05
0.08 0.20 0.29 0.33 0.30 0.11 0.02 0.09 0.13 0.04 0.01 0.00 0.00 0.00 0.00 0.00 0.00 0.00 0.00 0.00 0.00 0.00 0.00 0.00 0.00 0.00 0.00 0.00 0.00 0.00 0.00 0.00 0.00 0.00 0.01 0.02 0.05 0.06 0.06 0.05 0.05 0.06 0.06 0.06
0.03 0.03 0.06 0.08 0.05 0.02 0.04 0.08 0.09 0.08 0.06 0.04 0.01 0.00 0.00 0.00 0.00 0.00 0.00 0.00 0.00 0.00 0.00 0.00 0.00 0.00 0.00 0.00 0.00 0.00 0.00 0.00 0.00 0.01 0.02 0.04 0.05 0.06 0.06 0.08 0.08 0.07 0.06 0.06
0.00 0.00 0.01 0.02 0.01 0.01 0.01 0.02 0.01 0.00 0.01 0.01 0.01 0.01 0.02 0.02 0.01 0.01 0.00 0.00 0.00 0.00 0.00 0.00 0.00 0.00 0.00 0.00 0.00 0.00 0.01 0.02 0.02 0.02 0.01 0.01 0.03 0.05 0.03 0.04 0.04 0.05 0.05 0.06
0.00 0.00 0.02 0.02 0.00 0.01 0.01 0.02 0.06 0.04 0.01 0.00 0.01 0.00 0.01 0.00 0.01 0.01 0.01 0.01 0.00 0.00 0.00 0.00 0.00 0.00 0.00 0.01 0.01 0.02 0.03 0.02 0.01 0.01 0.01 0.01 0.01 0.03 0.01 0.02 0.05 0.05 0.06 0.10
0.01 0.02 0.04 0.05 0.02 0.02 0.01 0.01 0.01 0.00 0.01 0.01 0.01 0.01 0.02 0.01 0.00 0.00 0.00 0.00 0.00 0.00 0.00 0.00 0.00 0.00 0.01 0.02 0.01 0.01 0.00 0.01 0.01 0.00 0.00 0.01 0.01 0.02 0.02 0.03 0.06 0.09 0.07 0.09

GFSCGP_prec_precacc24_081.txt.gz
Total_Precipitation_Accumulation
0.00 0.00 0.00 0.00 0.00 0.00 0.00 0.00 0.00 0.00 0.00 0.00 0.00 0.00 0.00 0.04 0.15 0.06 0.03 0.00 0.00 0.00 0.00 0.00 0.00 0.00 0.00 0.00 0.01 0.02 0.04 0.05 0.16 0.13 0.05 0.20 0.39 0.45 0.29 0.15 0.02 0.03 0.05 0.08
0.00 0.00 0.00 0.00 0.00 0.00 0.00 0.00 0.00 0.00 0.00 0.00 0.00 0.00 0.00 0.00 0.02 0.00 0.00 0.01 0.00 0.00 0.00 0.00 0.00 0.00 0.00 0.00 0.00 0.02 0.01 0.01 0.01 0.03 0.03 0.06 0.15 0.30 0.22 0.17 0.03 0.04 0.03 0.08
0.00 0.00 0.00 0.00 0.00 0.00 0.00 0.00 0.00 0.00 0.00 0.00 0.00 0.00 0.00 0.00 0.00 0.00 0.01 0.03 0.01 0.00 0.00 0.00 0.00 0.00 0.00 0.00 0.00 0.01 0.00 0.00 0.01 0.01 0.03 0.07 0.20 0.30 0.23 0.19 0.04 0.02 0.02 0.09
0.00 0.00 0.00 0.00 0.00 0.00 0.00 0.00 0.00 0.00 0.00 0.00 0.00 0.00 0.00 0.00 0.00 0.00 0.00 0.02 0.02 0.00 0.00 0.00 0.00 0.00 0.00 0.00 0.00 0.00 0.00 0.00 0.00 0.00 0.01 0.02 0.06 0.14 0.08 0.04 0.03 0.01 0.01 0.02
0.00 0.00 0.00 0.00 0.00 0.00 0.00 0.00 0.00 0.00 0.00 0.00 0.00 0.00 0.00 0.00 0.00 0.00 0.00 0.00 0.03 0.01 0.00 0.00 0.00 0.00 0.00 0.00 0.00 0.00 0.01 0.00 0.00 0.00 0.00 0.01 0.02 0.04 0.07 0.06 0.03 0.01 0.00 0.01
0.00 0.00 0.00 0.00 0.00 0.00 0.00 0.00 0.00 0.00 0.00 0.00 0.00 0.00 0.00 0.00 0.00 0.00 0.00 0.00 0.09 0.01 0.00 0.00 0.00 0.00 0.00 0.00 0.00 0.00 0.00 0.00 0.00 0.00 0.00 0.01 0.01 0.02 0.06 0.03 0.04 0.01 0.01 0.03
0.00 0.00 0.00 0.00 0.00 0.00 0.00 0.00 0.00 0.03 0.01 0.00 0.00 0.00 0.00 0.00 0.00 0.00 0.00 0.00 0.00 0.00 0.00 0.00 0.00 0.00 0.00 0.00 0.00 0.00 0.00 0.00 0.00 0.00 0.00 0.00 0.01 0.02 0.04 0.03 0.10 0.06 0.01 0.03
0.03 0.02 0.00 0.00 0.00 0.00 0.00 0.00 0.00 0.04 0.05 0.04 0.01 0.00 0.00 0.00 0.00 0.00 0.00 0.00 0.00 0.00 0.00 0.00 0.00 0.00 0.00 0.00 0.00 0.00 0.00 0.00 0.00 0.00 0.00 0.02 0.06 0.12 0.19 0.17 0.18 0.11 0.13 0.12
0.00 0.00 0.00 0.00 0.00 0.00 0.00 0.00 0.00 0.01 0.02 0.03 0.01 0.00 0.00 0.00 0.00 0.00 0.00 0.00 0.00 0.00 0.00 0.00 0.01 0.00 0.00 0.01 0.00 0.00 0.00 0.00 0.00 0.00 0.00 0.01 0.05 0.06 0.01 0.10 0.37 0.25 0.25 0.18
0.00 0.00 0.00 0.00 0.00 0.00 0.00 0.00 0.00 0.00 0.05 0.05 0.00 0.00 0.01 0.01 0.00 0.00 0.00 0.00 0.00 0.00 0.00 0.00 0.00 0.00 0.00 0.01 0.05 0.09 0.05 0.01 0.00 0.00 0.01 0.00 0.03 0.12 0.20 0.51 0.81 1.00 0.83 0.64
0.00 0.00 0.01 0.00 0.00 0.00 0.00 0.00 0.00 0.00 0.00 0.03 0.01 0.01 0.01 0.01 0.00 0.00 0.00 0.00 0.00 0.00 0.00 0.00 0.00 0.01 0.00 0.00 0.04 0.12 0.21 0.20 0.06 0.04 0.05 0.13 0.14 0.33 0.66 0.61 0.95 0.79 0.80 0.89
0.00 0.00 0.00 0.00 0.00 0.00 0.00 0.00 0.00 0.00 0.00 0.01 0.02 0.01 0.01 0.00 0.00 0.00 0.00 0.00 0.00 0.00 0.00 0.00 0.00 0.01 0.00 0.00 0.01 0.07 0.27 0.46 0.61 0.52 0.80 0.65 0.76 0.92 0.87 1.20 1.81 1.24 0.92 0.68
0.00 0.00 0.00 0.02 0.00 0.00 0.00 0.00 0.00 0.00 0.00 0.01 0.08 0.01 0.00 0.00 0.00 0.00 0.00 0.00 0.00 0.00 0.00 0.00 0.00 0.00 0.00 0.01 0.03 0.17 0.63 1.00 0.80 0.88 0.80 0.83 1.28 0.78 0.43 0.32 0.29 0.28 0.21 0.15
0.00 0.02 0.02 0.03 0.01 0.00 0.00 0.00 0.00 0.00 0.01 0.00 0.01 0.00 0.00 0.00 0.00 0.00 0.00 0.00 0.00 0.00 0.00 0.00 0.00 0.00 0.00 0.01 0.04 0.11 0.35 0.56 0.55 0.57 0.55 0.50 0.45 0.47 0.30 0.26 0.22 0.23 0.20 0.18
0.02 0.01 0.01 0.02 0.01 0.00 0.00 0.00 0.00 0.00 0.00 0.01 0.00 0.00 0.00 0.00 0.00 0.00 0.00 0.00 0.00 0.00 0.00 0.00 0.00 0.00 0.00 0.00 0.00 0.01 0.09 0.13 0.16 0.18 0.16 0.15 0.17 0.14 0.13 0.13 0.08 0.07 0.04 0.04
0.02 0.01 0.00 0.00 0.00 0.00 0.00 0.00 0.00 0.00 0.00 0.00 0.00 0.00 0.00 0.00 0.00 0.00 0.00 0.00 0.00 0.00 0.00 0.00 0.00 0.00 0.00 0.00 0.00 0.02 0.06 0.09 0.07 0.10 0.11 0.10 0.11 0.13 0.10 0.09 0.10 0.06 0.05 0.07
0.07 0.08 0.05 0.02 0.00 0.00 0.01 0.00 0.00 0.00 0.00 0.00 0.00 0.00 0.00 0.00 0.00 0.00 0.00 0.00 0.00 0.00 0.00 0.00 0.00 0.02 0.11 0.04 0.02 0.01 0.04 0.05 0.06 0.08 0.06 0.07 0.10 0.09 0.10 0.08 0.09 0.14 0.14 0.12
0.18 0.13 0.16 0.08 0.03 0.11 0.04 0.00 0.00 0.00 0.00 0.00 0.00 0.00 0.00 0.00 0.00 0.00 0.00 0.00 0.00 0.00 0.00 0.00 0.00 0.08 0.06 0.01 0.01 0.01 0.02 0.02 0.02 0.03 0.03 0.04 0.07 0.07 0.05 0.05 0.04 0.07 0.12 0.13
0.17 0.21 0.33 0.16 0.08 0.05 0.00 0.00 0.00 0.00 0.00 0.00 0.00 0.00 0.00 0.00 0.00 0.00 0.00 0.00 0.00 0.00 0.00 0.00 0.00 0.00 0.00 0.00 0.00 0.00 0.00 0.00 0.01 0.02 0.02 0.03 0.03 0.04 0.04 0.05 0.07 0.05 0.07 0.09
0.36 0.25 0.28 0.31 0.20 0.07 0.00 0.00 0.00 0.00 0.00 0.00 0.00 0.00 0.00 0.00 0.00 0.00 0.00 0.00 0.00 0.00 0.00 0.00 0.00 0.00 0.00 0.00 0.00 0.00 0.00 0.00 0.00 0.01 0.02 0.01 0.01 0.01 0.03 0.03 0.03 0.03 0.04 0.07
0.26 0.39 0.35 0.30 0.26 0.05 0.00 0.00 0.01 0.03 0.02 0.00 0.00 0.00 0.00 0.00 0.00 0.00 0.00 0.00 0.00 0.00 0.00 0.00 0.00 0.00 0.00 0.00 0.00 0.00 0.00 0.00 0.00 0.00 0.00 0.01 0.01 0.02 0.03 0.05 0.04 0.04 0.04 0.05
0.09 0.20 0.29 0.32 0.29 0.11 0.02 0.10 0.15 0.06 0.01 0.00 0.00 0.00 0.00 0.00 0.00 0.00 0.00 0.00 0.00 0.00 0.00 0.00 0.00 0.00 0.00 0.00 0.00 0.00 0.00 0.00 0.00 0.00 0.01 0.02 0.05 0.06 0.06 0.05 0.06 0.08 0.08 0.08
0.06 0.02 0.06 0.08 0.06 0.02 0.05 0.10 0.10 0.08 0.06 0.04 0.01 0.00 0.00 0.00 0.00 0.00 0.00 0.00 0.00 0.00 0.00 0.00 0.00 0.00 0.00 0.00 0.00 0.00 0.00 0.00 0.00 0.01 0.02 0.04 0.05 0.06 0.06 0.08 0.10 0.11 0.10 0.09
0.00 0.00 0.04 0.07 0.03 0.02 0.03 0.04 0.01 0.00 0.01 0.01 0.01 0.01 0.02 0.02 0.01 0.01 0.00 0.00 0.00 0.00 0.00 0.00 0.00 0.00 0.00 0.00 0.00 0.00 0.01 0.02 0.02 0.02 0.01 0.02 0.04 0.09 0.06 0.08 0.08 0.09 0.08 0.08
0.00 0.00 0.02 0.03 0.01 0.01 0.01 0.02 0.06 0.04 0.01 0.00 0.01 0.00 0.01 0.00 0.01 0.01 0.01 0.01 0.00 0.00 0.00 0.00 0.00 0.00 0.00 0.01 0.01 0.03 0.04 0.04 0.04 0.04 0.05 0.04 0.04 0.06 0.04 0.06 0.11 0.12 0.12 0.16
0.02 0.03 0.05 0.07 0.03 0.02 0.01 0.00 0.00 0.00 0.01 0.01 0.01 0.01 0.02 0.01 0.00 0.00 0.00 0.00 0.00 0.00 0.00 0.00 0.00 0.00 0.01 0.02 0.02 0.02 0.01 0.03 0.05 0.06 0.06 0.10 0.08 0.06 0.06 0.07 0.11 0.15 0.14 0.16

GFSCGP_prec_precacc24_084.txt.gz
Total_Precipitation_Accumulation
0.00 0.00 0.00 0.00 0.00 0.00 0.00 0.00 0.00 0.00 0.00 0.00 0.00 0.00 0.00 0.00 0.10 0.06 0.03 0.00 0.00 0.00 0.00 0.00 0.00 0.00 0.00 0.00 0.01 0.02 0.04 0.05 0.16 0.12 0.06 0.21 0.40 0.46 0.31 0.18 0.07 0.07 0.10 0.05
0.00 0.02 0.00 0.00 0.00 0.00 0.00 0.00 0.00 0.00 0.00 0.00 0.00 0.00 0.00 0.00 0.01 0.00 0.00 0.01 0.00 0.00 0.00 0.00 0.00 0.00 0.00 0.00 0.00 0.02 0.01 0.01 0.02 0.03 0.03 0.06 0.15 0.30 0.22 0.19 0.03 0.03 0.02 0.05
0.03 0.01 0.00 0.00 0.00 0.00 0.00 0.00 0.00 0.00 0.00 0.00 0.00 0.00 0.00 0.00 0.00 0.00 0.01 0.03 0.00 0.00 0.00 0.00 0.00 0.00 0.00 0.00 0.00 0.01 0.01 0.01 0.01 0.02 0.04 0.08 0.21 0.30 0.23 0.20 0.04 0.02 0.02 0.02
0.03 0.00 0.00 0.01 0.01 0.00 0.00 0.00 0.00 0.00 0.00 0.00 0.00 0.00 0.00 0.00 0.00 0.00 0.00 0.02 0.01 0.00 0.00 0.00 0.00 0.00 0.00 0.00 0.00 0.00 0.00 0.01 0.01 0.01 0.02 0.03 0.07 0.15 0.08 0.04 0.04 0.02 0.01 0.02
0.04 0.00 0.02 0.02 0.00 0.00 0.00 0.00 0.00 0.00 0.00 0.00 0.00 0.00 0.00 0.00 0.00 0.00 0.00 0.00 0.03 0.01 0.00 0.00 0.00 0.00 0.00 0.00 0.00 0.00 0.01 0.00 0.01 0.00 0.00 0.01 0.02 0.04 0.07 0.06 0.03 0.01 0.00 0.01
0.01 0.00 0.03 0.01 0.00 0.00 0.01 0.00 0.00 0.00 0.00 0.00 0.00 0.00 0.00 0.00 0.00 0.00 0.00 0.00 0.09 0.01 0.00 0.00 0.00 0.00 0.00 0.00 0.00 0.00 0.00 0.00 0.01 0.00 0.01 0.01 0.01 0.03 0.06 0.03 0.02 0.00 0.00 0.01
0.01 0.00 0.00 0.00 0.00 0.00 0.00 0.00 0.01 0.01 0.00 0.00 0.00 0.00 0.00 0.00 0.00 0.00 0.00 0.00 0.00 0.00 0.00 0.00 0.00 0.00 0.00 0.00 0.00 0.00 0.00 0.00 0.00 0.01 0.01 0.01 0.01 0.01 0.03 0.03 0.02 0.00 0.00 0.01
0.06 0.03 0.01 0.00 0.00 0.00 0.00 0.00 0.01 0.01 0.01 0.00 0.00 0.00 0.00 0.00 0.00 0.00 0.00 0.00 0.00 0.00 0.00 0.00 0.00 0.00 0.00 0.00 0.00 0.00 0.00 0.00 0.00 0.00 0.00 0.01 0.02 0.04 0.01 0.07 0.05 0.04 0.05 0.07
0.01 0.01 0.00 0.00 0.00 0.01 0.01 0.00 0.00 0.02 0.01 0.02 0.00 0.00 0.00 0.00 0.00 0.00 0.00 0.00 0.00 0.00 0.00 0.00 0.01 0.00 0.00 0.01 0.00 0.00 0.00 0.00 0.00 0.00 0.00 0.00 0.03 0.04 0.00 0.08 0.29 0.16 0.18 0.16
0.00 0.00 0.00 0.00 0.00 0.00 0.00 0.01 0.04 0.04 0.02 0.03 0.00 0.01 0.00 0.01 0.00 0.00 0.00 0.00 0.00 0.00 0.00 0.00 0.00 0.00 0.00 0.01 0.05 0.09 0.05 0.01 0.00 0.00 0.00 0.00 0.01 0.09 0.15 0.28 0.66 0.89 0.78 0.59
0.00 0.00 0.02 0.00 0.00 0.00 0.00 0.01 0.04 0.03 0.01 0.04 0.03 0.01 0.00 0.01 0.00 0.00 0.00 0.00 0.00 0.00 0.00 0.00 0.00 0.01 0.00 0.00 0.04 0.12 0.21 0.20 0.06 0.04 0.03 0.07 0.07 0.08 0.37 0.51 0.86 0.71 0.75 0.87
0.00 0.00 0.00 0.01 0.00 0.00 0.00 0.00 0.00 0.08 0.07 0.03 0.05 0.02 0.00 0.00 0.00 0.00 0.00 0.00 0.00 0.00 0.00 0.00 0.00 0.01 0.00 0.00 0.01 0.07 0.27 0.46 0.60 0.44 0.54 0.50 0.51 0.80 0.79 1.13 1.76 1.21 0.91 0.67
0.00 0.00 0.00 0.06 0.02 0.00 0.00 0.00 0.00 0.01 0.03 0.10 0.13 0.03 0.00 0.00 0.00 0.00 0.00 0.00 0.00 0.00 0.00 0.00 0.00 0.00 0.00 0.01 0.03 0.16 0.62 1.00 0.71 0.65 0.67 0.63 1.06 0.74 0.38 0.28 0.27 0.27 0.20 0.14
0.00 0.02 0.03 0.09 0.19 0.04 0.00 0.00 0.00 0.00 0.04 0.02 0.03 0.03 0.01 0.00 0.00 0.00 0.00 0.00 0.00 0.00 0.00 0.00 0.00 0.00 0.00 0.01 0.04 0.10 0.34 0.53 0.52 0.53 0.46 0.43 0.44 0.43 0.28 0.24 0.19 0.21 0.20 0.18
0.02 0.01 0.01 0.03 0.09 0.03 0.03 0.07 0.04 0.01 0.01 0.03 0.01 0.01 0.00 0.00 0.00 0.00 0.00 0.00 0.00 0.00 0.00 0.00 0.00 0.00 0.00 0.00 0.00 0.01 0.07 0.12 0.13 0.14 0.14 0.12 0.16 0.11 0.12 0.12 0.07 0.07 0.04 0.04
0.02 0.01 0.00 0.00 0.00 0.00 0.00 0.01 0.01 0.02 0.01 0.01 0.00 0.00 0.00 0.00 0.00 0.00 0.00 0.00 0.00 0.00 0.00 0.00 0.00 0.00 0.00 0.00 0.00 0.01 0.03 0.07 0.06 0.07 0.08 0.08 0.09 0.12 0.09 0.09 0.10 0.06 0.05 0.07
0.07 0.08 0.05 0.02 0.00 0.00 0.01 0.00 0.00 0.00 0.00 0.00 0.00 0.00 0.00 0.00 0.00 0.00 0.00 0.00 0.00 0.00 0.00 0.00 0.00 0.00 0.03 0.00 0.01 0.01 0.02 0.03 0.05 0.05 0.06 0.07 0.10 0.09 0.10 0.08 0.09 0.14 0.16 0.12
0.17 0.13 0.16 0.08 0.03 0.11 0.04 0.00 0.00 0.00 0.00 0.00 0.00 0.01 0.00 0.00 0.00 0.00 0.00 0.00 0.00 0.00 0.00 0.00 0.00 0.03 0.03 0.00 0.00 0.00 0.00 0.01 0.01 0.02 0.03 0.04 0.07 0.07 0.05 0.05 0.04 0.07 0.12 0.14
0.16 0.19 0.29 0.15 0.07 0.05 0.00 0.00 0.00 0.00 0.00 0.00 0.00 0.01 0.00 0.00 0.00 0.01 0.00 0.00 0.00 0.00 0.00 0.00 0.00 0.00 0.00 0.00 0.00 0.00 0.00 0.00 0.01 0.02 0.02 0.03 0.03 0.04 0.04 0.05 0.07 0.05 0.07 0.09
0.36 0.24 0.23 0.28 0.19 0.07 0.00 0.00 0.00 0.00 0.00 0.00 0.00 0.01 0.00 0.00 0.00 0.01 0.00 0.00 0.00 0.00 0.00 0.00 0.00 0.00 0.00 0.00 0.00 0.00 0.00 0.00 0.00 0.01 0.02 0.01 0.01 0.01 0.03 0.03 0.03 0.03 0.04 0.07
0.23 0.38 0.34 0.27 0.23 0.05 0.00 0.00 0.01 0.04 0.04 0.00 0.00 0.00 0.00 0.00 0.00 0.00 0.00 0.00 0.00 0.00 0.00 0.00 0.00 0.00 0.00 0.00 0.00 0.00 0.00 0.00 0.00 0.00 0.00 0.01 0.01 0.02 0.03 0.05 0.04 0.04 0.04 0.05
0.08 0.18 0.28 0.31 0.27 0.11 0.02 0.11 0.18 0.11 0.01 0.00 0.00 0.00 0.00 0.00 0.00 0.00 0.00 0.00 0.00 0.00 0.00 0.00 0.00 0.00 0.00 0.00 0.00 0.00 0.00 0.00 0.00 0.00 0.01 0.03 0.07 0.07 0.06 0.06 0.06 0.08 0.08 0.08
0.09 0.02 0.06 0.07 0.06 0.02 0.06 0.11 0.12 0.08 0.06 0.04 0.01 0.00 0.00 0.00 0.00 0.00 0.00 0.00 0.00 0.00 0.00 0.00 0.00 0.00 0.00 0.00 0.00 0.00 0.00 0.00 0.00 0.01 0.02 0.05 0.08 0.10 0.10 0.13 0.12 0.12 0.12 0.11
0.05 0.00 0.09 0.12 0.07 0.11 0.16 0.08 0.02 0.00 0.01 0.01 0.01 0.01 0.02 0.02 0.01 0.01 0.00 0.00 0.00 0.00 0.00 0.00 0.00 0.00 0.00 0.00 0.00 0.00 0.01 0.02 0.03 0.02 0.02 0.03 0.08 0.13 0.10 0.11 0.10 0.11 0.12 0.15
0.03 0.03 0.04 0.05 0.05 0.17 0.24 0.13 0.08 0.04 0.01 0.00 0.01 0.00 0.01 0.00 0.01 0.01 0.01 0.01 0.00 0.00 0.00 0.00 0.00 0.00 0.00 0.01 0.01 0.03 0.04 0.04 0.05 0.06 0.07 0.08 0.07 0.08 0.07 0.09 0.17 0.18 0.21 0.32
0.05 0.07 0.10 0.13 0.06 0.10 0.12 0.01 0.00 0.00 0.01 0.01 0.01 0.01 0.02 0.01 0.00 0.00 0.00 0.00 0.00 0.00 0.00 0.00 0.00 0.00 0.01 0.02 0.02 0.02 0.01 0.03 0.07 0.10 0.11 0.16 0.15 0.16 0.17 0.17 0.23 0.29 0.28 0.30

GFSCGP_prec_precacc24_090.txt.gz
Total_Precipitation_Accumulation
0.00 0.00 0.00 0.00 0.00 0.00 0.00 0.00 0.00 0.00 0.00 0.00 0.00 0.00 0.00 0.00 0.00 0.00 0.00 0.00 0.00 0.00 0.00 0.00 0.00 0.00 0.00 0.00 0.01 0.02 0.03 0.05 0.16 0.12 0.06 0.21 0.40 0.46 0.31 0.21 0.12 0.17 0.24 0.23
0.00 0.02 0.00 0.00 0.00 0.00 0.00 0.00 0.00 0.00 0.00 0.00 0.00 0.00 0.00 0.00 0.00 0.00 0.00 0.00 0.00 0.00 0.00 0.00 0.00 0.00 0.00 0.00 0.00 0.02 0.01 0.01 0.02 0.03 0.03 0.06 0.15 0.30 0.23 0.20 0.05 0.08 0.17 0.32
0.03 0.01 0.00 0.00 0.00 0.00 0.00 0.00 0.00 0.00 0.00 0.01 0.01 0.00 0.00 0.00 0.00 0.00 0.00 0.00 0.00 0.00 0.00 0.00 0.00 0.00 0.00 0.00 0.00 0.01 0.01 0.01 0.01 0.02 0.04 0.08 0.21 0.30 0.24 0.20 0.06 0.05 0.10 0.14
0.03 0.00 0.01 0.04 0.04 0.00 0.00 0.00 0.00 0.01 0.03 0.04 0.00 0.00 0.00 0.00 0.00 0.00 0.00 0.00 0.00 0.00 0.00 0.00 0.00 0.00 0.00 0.00 0.00 0.00 0.00 0.01 0.01 0.01 0.02 0.03 0.07 0.15 0.08 0.04 0.04 0.03 0.09 0.14
0.04 0.00 0.07 0.07 0.02 0.00 0.00 0.00 0.04 0.04 0.01 0.00 0.00 0.03 0.00 0.00 0.00 0.00 0.00 0.00 0.00 0.00 0.00 0.00 0.00 0.00 0.00 0.00 0.00 0.00 0.01 0.00 0.01 0.01 0.01 0.02 0.02 0.04 0.07 0.06 0.03 0.02 0.02 0.07
0.01 0.00 0.04 0.03 0.00 0.03 0.07 0.03 0.07 0.04 0.04 0.06 0.00 0.02 0.01 0.00 0.00 0.00 0.00 0.00 0.00 0.00 0.00 0.00 0.00 0.00 0.00 0.00 0.00 0.00 0.00 0.00 0.01 0.01 0.01 0.01 0.01 0.02 0.05 0.03 0.02 0.00 0.00 0.02
0.01 0.00 0.00 0.00 0.01 0.02 0.08 0.17 0.30 0.21 0.12 0.06 0.00 0.00 0.00 0.00 0.00 0.00 0.00 0.00 0.00 0.00 0.00 0.00 0.00 0.00 0.00 0.00 0.00 0.00 0.00 0.00 0.01 0.01 0.00 0.01 0.01 0.00 0.00 0.01 0.00 0.00 0.00 0.00
0.06 0.03 0.01 0.00 0.00 0.01 0.06 0.18 0.17 0.06 0.02 0.00 0.00 0.00 0.00 0.00 0.00 0.00 0.00 0.00 0.00 0.00 0.00 0.00 0.00 0.00 0.00 0.00 0.00 0.00 0.00 0.00 0.00 0.01 0.00 0.01 0.01 0.00 0.00 0.00 0.00 0.00 0.00 0.00
0.01 0.01 0.00 0.00 0.00 0.03 0.09 0.11 0.06 0.19 0.07 0.04 0.00 0.00 0.00 0.00 0.00 0.00 0.00 0.00 0.00 0.00 0.00 0.00 0.00 0.00 0.00 0.00 0.00 0.00 0.00 0.00 0.00 0.00 0.00 0.00 0.01 0.00 0.00 0.01 0.01 0.03 0.04 0.04
0.00 0.00 0.00 0.00 0.00 0.00 0.05 0.15 0.15 0.27 0.07 0.06 0.00 0.01 0.00 0.00 0.00 0.00 0.00 0.00 0.00 0.00 0.00 0.00 0.00 0.00 0.00 0.00 0.02 0.05 0.02 0.00 0.00 0.00 0.00 0.00 0.00 0.01 0.00 0.02 0.03 0.05 0.08 0.10
0.00 0.00 0.02 0.01 0.00 0.01 0.03 0.23 0.20 0.08 0.02 0.08 0.05 0.08 0.01 0.00 0.00 0.00 0.00 0.00 0.00 0.00 0.00 0.00 0.00 0.00 0.00 0.00 0.03 0.09 0.14 0.12 0.03 0.00 0.00 0.00 0.00 0.00 0.01 0.02 0.01 0.06 0.29 0.62
0.00 0.00 0.01 0.01 0.00 0.01 0.03 0.03 0.13 0.22 0.11 0.05 0.13 0.12 0.08 0.01 0.00 0.00 0.00 0.00 0.00 0.00 0.00 0.00 0.00 0.00 0.00 0.00 0.01 0.05 0.18 0.20 0.19 0.13 0.02 0.02 0.01 0.00 0.01 0.04 0.10 0.32 0.61 0.49
0.00 0.01 0.01 0.06 0.04 0.04 0.03 0.04 0.09 0.08 0.19 0.28 0.23 0.09 0.22 0.15 0.01 0.00 0.00 0.00 0.00 0.00 0.00 0.00 0.00 0.00 0.00 0.00 0.00 0.00 0.06 0.12 0.17 0.16 0.08 0.05 0.05 0.03 0.07 0.07 0.08 0.15 0.12 0.08
0.00 0.02 0.04 0.13 0.32 0.39 0.20 0.12 0.12 0.16 0.21 0.09 0.12 0.10 0.10 0.34 0.17 0.06 0.01 0.00 0.00 0.00 0.00 0.00 0.00 0.02 0.05 0.02 0.01 0.01 0.02 0.01 0.07 0.14 0.07 0.05 0.03 0.04 0.13 0.12 0.13 0.17 0.16 0.15
0.01 0.01 0.01 0.03 0.12 0.21 0.25 0.22 0.21 0.21 0.11 0.11 0.02 0.05 0.08 0.11 0.28 0.19 0.03 0.00 0.00 0.00 0.00 0.00 0.00 0.00 0.05 0.11 0.10 0.08 0.04 0.05 0.05 0.08 0.06 0.05 0.08 0.02 0.03 0.03 0.03 0.04 0.02 0.02
0.01 0.01 0.00 0.00 0.00 0.01 0.01 0.05 0.13 0.19 0.24 0.23 0.11 0.09 0.07 0.03 0.11 0.28 0.06 0.01 0.00 0.00 0.00 0.00 0.00 0.00 0.00 0.00 0.02 0.05 0.03 0.05 0.07 0.04 0.04 0.06 0.07 0.08 0.05 0.05 0.07 0.04 0.05 0.07
0.02 0.07 0.04 0.01 0.01 0.01 0.01 0.00 0.00 0.02 0.03 0.10 0.07 0.06 0.01 0.04 0.04 0.05 0.03 0.00 0.00 0.00 0.00 0.00 0.00 0.00 0.00 0.00 0.00 0.02 0.05 0.05 0.07 0.13 0.14 0.10 0.13 0.11 0.12 0.11 0.10 0.15 0.16 0.12
0.03 0.07 0.13 0.07 0.02 0.09 0.02 0.00 0.00 0.04 0.02 0.00 0.02 0.04 0.03 0.03 0.01 0.00 0.00 0.00 0.00 0.00 0.00 0.00 0.00 0.00 0.00 0.00 0.00 0.00 0.02 0.03 0.04 0.12 0.17 0.15 0.11 0.13 0.13 0.09 0.07 0.09 0.15 0.15
0.02 0.03 0.11 0.10 0.06 0.04 0.00 0.00 0.00 0.01 0.01 0.01 0.04 0.05 0.01 0.03 0.02 0.02 0.00 0.00 0.00 0.00 0.00 0.00 0.00 0.00 0.00 0.00 0.00 0.00 0.00 0.00 0.01 0.05 0.10 0.10 0.09 0.13 0.16 0.13 0.12 0.08 0.09 0.13
0.01 0.02 0.07 0.11 0.16 0.07 0.00 0.00 0.00 0.00 0.01 0.01 0.02 0.03 0.01 0.00 0.02 0.03 0.01 0.00 0.00 0.00 0.00 0.00 0.00 0.00 0.00 0.00 0.00 0.00 0.00 0.00 0.00 0.01 0.06 0.05 0.08 0.11 0.14 0.15 0.14 0.11 0.10 0.14
0.05 0.07 0.09 0.07 0.12 0.05 0.00 0.00 0.01 0.05 0.04 0.00 0.00 0.00 0.01 0.00 0.01 0.01 0.00 0.00 0.00 0.00 0.00 0.00 0.00 0.00 0.00 0.00 0.00 0.00 0.00 0.00 0.00 0.00 0.01 0.02 0.05 0.09 0.11 0.15 0.15 0.14 0.18 0.18
0.11 0.11 0.08 0.08 0.14 0.10 0.02 0.11 0.20 0.14 0.01 0.00 0.00 0.00 0.00 0.00 0.00 0.00 0.00 0.00 0.01 0.00 0.00 0.00 0.00 0.00 0.00 0.00 0.00 0.00 0.00 0.00 0.00 0.00 0.01 0.03 0.09 0.12 0.14 0.15 0.17 0.18 0.19 0.17
0.24 0.04 0.05 0.03 0.04 0.09 0.15 0.16 0.17 0.10 0.06 0.05 0.02 0.01 0.00 0.00 0.00 0.00 0.00 0.00 0.00 0.00 0.00 0.00 0.00 0.00 0.00 0.00 0.00 0.00 0.00 0.00 0.00 0.01 0.02 0.05 0.09 0.13 0.16 0.21 0.23 0.24 0.25 0.24
0.40 0.20 0.14 0.18 0.17 0.17 0.35 0.24 0.04 0.04 0.05 0.03 0.01 0.00 0.01 0.01 0.00 0.00 0.00 0.00 0.00 0.00 0.00 0.00 0.00 0.00 0.00 0.00 0.00 0.00 0.01 0.02 0.03 0.02 0.02 0.03 0.09 0.14 0.12 0.15 0.15 0.17 0.20 0.26
0.17 0.32 0.23 0.26 0.32 0.31 0.50 0.48 0.23 0.06 0.01 0.02 0.02 0.00 0.00 0.00 0.01 0.01 0.01 0.01 0.00 0.00 0.00 0.00 0.00 0.00 0.00 0.01 0.01 0.03 0.04 0.04 0.05 0.06 0.07 0.08 0.08 0.09 0.08 0.11 0.22 0.26 0.38 0.55
0.08 0.28 0.54 0.72 0.47 0.42 0.46 0.18 0.12 0.09 0.03 0.01 0.01 0.01 0.02 0.01 0.00 0.00 0.00 0.00 0.00 0.00 0.00 0.00 0.00 0.00 0.01 0.02 0.02 0.02 0.01 0.03 0.07 0.10 0.11 0.17 0.17 0.18 0.20 0.22 0.30 0.42 0.44 0.47

GFSCGP_prec_precacc24_093.txt.gz
Total_Precipitation_Accumulation
0.00 0.00 0.00 0.00 0.00 0.00 0.00 0.00 0.00 0.00 0.00 0.00 0.00 0.00 0.00 0.00 0.00 0.00 0.00 0.00 0.00 0.00 0.00 0.00 0.00 0.00 0.00 0.00 0.01 0.02 0.02 0.05 0.15 0.12 0.06 0.20 0.39 0.46 0.31 0.21 0.13 0.29 0.41 0.33
0.00 0.02 0.00 0.00 0.00 0.00 0.00 0.00 0.00 0.00 0.00 0.00 0.00 0.00 0.00 0.00 0.00 0.00 0.00 0.00 0.00 0.00 0.00 0.00 0.00 0.00 0.00 0.00 0.00 0.02 0.01 0.01 0.02 0.03 0.03 0.06 0.15 0.30 0.23 0.20 0.05 0.08 0.26 0.50
0.03 0.01 0.00 0.00 0.00 0.00 0.00 0.00 0.00 0.00 0.00 0.01 0.01 0.00 0.00 0.00 0.00 0.00 0.00 0.00 0.00 0.00 0.00 0.00 0.00 0.00 0.00 0.00 0.00 0.01 0.01 0.01 0.01 0.02 0.04 0.08 0.21 0.30 0.24 0.20 0.06 0.05 0.10 0.19
0.03 0.00 0.01 0.04 0.04 0.00 0.00 0.00 0.00 0.01 0.03 0.04 0.00 0.00 0.00 0.00 0.00 0.00 0.00 0.00 0.00 0.00 0.00 0.00 0.00 0.00 0.00 0.00 0.00 0.00 0.00 0.01 0.01 0.01 0.02 0.03 0.07 0.15 0.08 0.04 0.04 0.04 0.10 0.16
0.04 0.00 0.07 0.07 0.02 0.00 0.00 0.00 0.04 0.04 0.01 0.01 0.00 0.03 0.00 0.00 0.00 0.00 0.00 0.00 0.00 0.00 0.00 0.00 0.00 0.00 0.00 0.00 0.00 0.00 0.01 0.00 0.01 0.01 0.01 0.02 0.02 0.04 0.07 0.06 0.04 0.02 0.02 0.09
0.01 0.00 0.04 0.03 0.00 0.03 0.07 0.03 0.07 0.04 0.06 0.08 0.00 0.02 0.01 0.00 0.00 0.00 0.00 0.00 0.00 0.00 0.00 0.00 0.00 0.00 0.00 0.00 0.00 0.00 0.00 0.00 0.01 0.01 0.01 0.01 0.01 0.02 0.05 0.03 0.02 0.01 0.01 0.04
0.01 0.00 0.00 0.00 0.01 0.02 0.08 0.18 0.32 0.26 0.18 0.07 0.00 0.00 0.00 0.00 0.00 0.00 0.00 0.00 0.00 0.00 0.00 0.00 0.00 0.00 0.00 0.00 0.00 0.00 0.00 0.00 0.01 0.01 0.00 0.01 0.01 0.00 0.00 0.01 0.00 0.00 0.00 0.01
0.06 0.03 0.01 0.00 0.00 0.01 0.06 0.20 0.19 0.08 0.02 0.00 0.00 0.00 0.00 0.00 0.00 0.00 0.00 0.00 0.00 0.00 0.00 0.00 0.00 0.00 0.00 0.00 0.00 0.00 0.00 0.00 0.00 0.01 0.00 0.01 0.01 0.00 0.00 0.00 0.00 0.00 0.00 0.00
0.01 0.01 0.00 0.00 0.00 0.03 0.09 0.13 0.09 0.33 0.13 0.05 0.00 0.00 0.00 0.00 0.00 0.00 0.00 0.00 0.00 0.00 0.00 0.00 0.00 0.00 0.00 0.00 0.00 0.00 0.00 0.00 0.00 0.00 0.00 0.00 0.01 0.00 0.00 0.00 0.00 0.00 0.00 0.00
0.00 0.00 0.00 0.00 0.00 0.00 0.05 0.18 0.22 0.37 0.14 0.09 0.00 0.01 0.01 0.00 0.00 0.00 0.00 0.00 0.00 0.00 0.00 0.00 0.00 0.00 0.00 0.00 0.00 0.01 0.01 0.00 0.00 0.00 0.00 0.00 0.00 0.01 0.00 0.00 0.00 0.00 0.00 0.00
0.00 0.00 0.02 0.01 0.00 0.01 0.03 0.25 0.26 0.18 0.08 0.10 0.06 0.12 0.05 0.00 0.00 0.00 0.00 0.00 0.00 0.00 0.00 0.00 0.00 0.00 0.00 0.00 0.00 0.00 0.04 0.08 0.03 0.00 0.00 0.00 0.00 0.00 0.00 0.00 0.00 0.00 0.00 0.00
0.00 0.00 0.01 0.01 0.00 0.01 0.03 0.04 0.17 0.36 0.18 0.07 0.14 0.13 0.17 0.04 0.01 0.00 0.00 0.00 0.00 0.00 0.00 0.00 0.00 0.00 0.00 0.00 0.00 0.01 0.03 0.05 0.11 0.10 0.01 0.00 0.00 0.00 0.00 0.00 0.00 0.00 0.00 0.02
0.00 0.01 0.01 0.06 0.04 0.04 0.05 0.09 0.16 0.16 0.32 0.39 0.27 0.09 0.28 0.37 0.09 0.01 0.00 0.00 0.00 0.00 0.00 0.00 0.00 0.00 0.00 0.00 0.00 0.00 0.00 0.03 0.06 0.07 0.03 0.01 0.00 0.00 0.00 0.00 0.01 0.01 0.02 0.04
0.00 0.02 0.04 0.13 0.33 0.40 0.21 0.16 0.16 0.27 0.33 0.12 0.14 0.11 0.11 0.53 0.48 0.20 0.02 0.00 0.00 0.00 0.02 0.01 0.01 0.04 0.09 0.09 0.07 0.05 0.03 0.01 0.03 0.08 0.03 0.01 0.02 0.00 0.00 0.00 0.03 0.12 0.12 0.09
0.00 0.00 0.01 0.03 0.12 0.21 0.25 0.23 0.23 0.28 0.19 0.20 0.03 0.05 0.08 0.14 0.57 0.57 0.21 0.03 0.01 0.00 0.00 0.01 0.02 0.02 0.09 0.16 0.16 0.14 0.10 0.10 0.08 0.08 0.03 0.05 0.06 0.01 0.00 0.01 0.01 0.03 0.01 0.01
0.00 0.00 0.00 0.00 0.00 0.01 0.01 0.05 0.13 0.19 0.27 0.27 0.12 0.09 0.07 0.05 0.23 0.58 0.32 0.15 0.04 0.00 0.00 0.00 0.00 0.00 0.00 0.00 0.02 0.05 0.03 0.06 0.06 0.03 0.08 0.12 0.14 0.12 0.07 0.05 0.05 0.03 0.02 0.04
0.01 0.01 0.00 0.01 0.01 0.01 0.00 0.00 0.00 0.02 0.04 0.10 0.08 0.06 0.02 0.09 0.16 0.24 0.28 0.18 0.09 0.01 0.01 0.00 0.00 0.00 0.00 0.00 0.00 0.02 0.05 0.04 0.06 0.12 0.14 0.11 0.15 0.15 0.16 0.16 0.12 0.18 0.20 0.12
0.02 0.02 0.02 0.01 0.01 0.02 0.00 0.01 0.00 0.08 0.15 0.03 0.03 0.05 0.04 0.14 0.07 0.02 0.06 0.11 0.14 0.07 0.03 0.01 0.00 0.00 0.00 0.00 0.00 0.00 0.02 0.03 0.04 0.11 0.16 0.13 0.09 0.11 0.14 0.12 0.11 0.15 0.20 0.17
0.02 0.02 0.06 0.03 0.00 0.00 0.00 0.00 0.00 0.03 0.05 0.03 0.08 0.18 0.01 0.04 0.08 0.08 0.07 0.07 0.06 0.04 0.03 0.00 0.00 0.00 0.00 0.00 0.00 0.00 0.00 0.00 0.01 0.04 0.08 0.08 0.09 0.13 0.15 0.12 0.10 0.09 0.10 0.14
0.01 0.02 0.07 0.08 0.06 0.00 0.00 0.00 0.00 0.01 0.03 0.01 0.05 0.29 0.11 0.01 0.03 0.04 0.04 0.10 0.06 0.03 0.00 0.00 0.00 0.00 0.00 0.00 0.00 0.00 0.00 0.00 0.00 0.00 0.05 0.05 0.08 0.10 0.12 0.14 0.15 0.14 0.11 0.13
0.05 0.07 0.07 0.06 0.09 0.02 0.00 0.00 0.01 0.05 0.04 0.00 0.00 0.08 0.19 0.07 0.05 0.03 0.01 0.02 0.04 0.02 0.00 0.00 0.00 0.00 0.00 0.00 0.00 0.00 0.00 0.00 0.00 0.00 0.00 0.02 0.05 0.09 0.10 0.14 0.14 0.15 0.19 0.22
0.10 0.11 0.09 0.08 0.12 0.04 0.00 0.06 0.14 0.13 0.01 0.00 0.00 0.01 0.03 0.02 0.01 0.01 0.00 0.00 0.01 0.00 0.00 0.00 0.00 0.00 0.00 0.00 0.00 0.00 0.00 0.00 0.00 0.00 0.01 0.03 0.09 0.12 0.14 0.14 0.16 0.18 0.19 0.20
0.24 0.06 0.06 0.03 0.03 0.09 0.13 0.08 0.09 0.06 0.06 0.04 0.02 0.01 0.00 0.00 0.00 0.00 0.00 0.00 0.00 0.00 0.00 0.00 0.00 0.00 0.00 0.00 0.00 0.00 0.00 0.00 0.00 0.01 0.02 0.05 0.09 0.13 0.15 0.21 0.23 0.24 0.25 0.25
0.54 0.45 0.28 0.21 0.21 0.17 0.36 0.25 0.06 0.04 0.12 0.10 0.02 0.01 0.01 0.00 0.00 0.00 0.00 0.00 0.00 0.00 0.00 0.00 0.00 0.00 0.00 0.00 0.00 0.00 0.01 0.02 0.03 0.02 0.02 0.03 0.08 0.14 0.12 0.15 0.15 0.17 0.20 0.26
0.27 0.53 0.56 0.52 0.44 0.36 0.54 0.51 0.34 0.22 0.05 0.08 0.06 0.02 0.01 0.01 0.01 0.01 0.01 0.00 0.00 0.00 0.00 0.00 0.00 0.00 0.00 0.01 0.01 0.03 0.04 0.04 0.05 0.06 0.07 0.08 0.08 0.09 0.08 0.11 0.22 0.26 0.39 0.55
0.15 0.37 0.68 1.01 0.71 0.54 0.55 0.24 0.14 0.15 0.07 0.01 0.02 0.01 0.02 0.01 0.00 0.00 0.00 0.00 0.00 0.00 0.00 0.00 0.00 0.00 0.01 0.02 0.02 0.02 0.01 0.03 0.07 0.10 0.11 0.17 0.17 0.18 0.20 0.23 0.31 0.42 0.45 0.48

GFSCGP_prec_precacc24_096.txt.gz
Total_Precipitation_Accumulation
0.00 0.00 0.00 0.00 0.00 0.00 0.00 0.00 0.00 0.00 0.00 0.00 0.00 0.00 0.00 0.00 0.00 0.00 0.00 0.00 0.00 0.00 0.00 0.00 0.00 0.00 0.00 0.00 0.01 0.01 0.01 0.02 0.07 0.04 0.05 0.15 0.33 0.36 0.25 0.18 0.13 0.35 0.46 0.36
0.00 0.02 0.00 0.00 0.00 0.00 0.00 0.00 0.00 0.00 0.00 0.00 0.00 0.00 0.00 0.00 0.00 0.00 0.00 0.00 0.00 0.00 0.00 0.00 0.00 0.00 0.00 0.00 0.00 0.01 0.01 0.01 0.01 0.02 0.03 0.03 0.10 0.26 0.21 0.19 0.04 0.08 0.37 0.62
0.03 0.01 0.00 0.00 0.00 0.00 0.00 0.00 0.00 0.00 0.00 0.01 0.01 0.00 0.00 0.00 0.00 0.00 0.00 0.00 0.00 0.00 0.00 0.00 0.00 0.00 0.00 0.00 0.00 0.01 0.01 0.01 0.01 0.02 0.04 0.07 0.19 0.28 0.22 0.20 0.06 0.04 0.10 0.27
0.03 0.00 0.01 0.04 0.04 0.00 0.00 0.00 0.00 0.01 0.03 0.04 0.00 0.00 0.00 0.00 0.00 0.00 0.00 0.00 0.00 0.00 0.00 0.00 0.00 0.00 0.00 0.00 0.00 0.00 0.00 0.01 0.01 0.01 0.02 0.03 0.07 0.14 0.07 0.04 0.04 0.03 0.09 0.15
0.04 0.00 0.07 0.07 0.02 0.00 0.00 0.00 0.04 0.04 0.01 0.01 0.00 0.03 0.00 0.00 0.00 0.00 0.00 0.00 0.00 0.00 0.00 0.00 0.00 0.00 0.00 0.00 0.00 0.00 0.01 0.00 0.01 0.01 0.01 0.02 0.02 0.04 0.07 0.06 0.04 0.02 0.03 0.09
0.01 0.00 0.04 0.03 0.00 0.03 0.07 0.03 0.07 0.04 0.06 0.08 0.00 0.02 0.01 0.00 0.00 0.00 0.00 0.00 0.00 0.00 0.00 0.00 0.00 0.00 0.00 0.00 0.00 0.00 0.00 0.01 0.01 0.01 0.01 0.01 0.01 0.02 0.05 0.03 0.02 0.01 0.01 0.04
0.01 0.00 0.00 0.00 0.01 0.02 0.08 0.18 0.32 0.26 0.19 0.08 0.00 0.00 0.00 0.00 0.00 0.00 0.00 0.00 0.00 0.00 0.00 0.00 0.00 0.00 0.00 0.00 0.00 0.00 0.00 0.00 0.01 0.01 0.00 0.01 0.01 0.00 0.00 0.01 0.00 0.00 0.01 0.01
0.06 0.03 0.01 0.00 0.00 0.01 0.06 0.20 0.20 0.10 0.04 0.01 0.00 0.00 0.00 0.00 0.00 0.00 0.00 0.00 0.00 0.00 0.00 0.00 0.00 0.00 0.00 0.00 0.00 0.00 0.00 0.00 0.00 0.01 0.00 0.01 0.01 0.00 0.00 0.00 0.00 0.00 0.00 0.00
0.01 0.01 0.00 0.00 0.00 0.03 0.09 0.13 0.09 0.37 0.15 0.09 0.00 0.00 0.00 0.00 0.00 0.00 0.00 0.00 0.00 0.00 0.00 0.00 0.00 0.00 0.00 0.00 0.00 0.00 0.00 0.00 0.00 0.00 0.00 0.00 0.01 0.00 0.00 0.00 0.00 0.00 0.00 0.00
0.00 0.00 0.00 0.00 0.00 0.00 0.05 0.19 0.29 0.45 0.18 0.10 0.00 0.01 0.01 0.00 0.00 0.00 0.00 0.00 0.00 0.00 0.00 0.00 0.00 0.00 0.00 0.00 0.00 0.00 0.00 0.00 0.00 0.00 0.00 0.00 0.00 0.01 0.00 0.00 0.00 0.00 0.00 0.00
0.00 0.00 0.02 0.01 0.00 0.01 0.03 0.25 0.27 0.24 0.14 0.17 0.08 0.13 0.09 0.01 0.00 0.00 0.00 0.00 0.00 0.00 0.00 0.00 0.00 0.00 0.00 0.00 0.00 0.00 0.00 0.02 0.02 0.00 0.00 0.00 0.00 0.00 0.00 0.00 0.00 0.00 0.00 0.00
0.00 0.00 0.01 0.01 0.00 0.01 0.03 0.05 0.19 0.43 0.22 0.11 0.16 0.13 0.18 0.07 0.01 0.00 0.00 0.00 0.00 0.00 0.00 0.00 0.00 0.00 0.00 0.00 0.00 0.00 0.00 0.00 0.07 0.10 0.01 0.00 0.00 0.00 0.00 0.00 0.00 0.00 0.00 0.00
0.00 0.01 0.01 0.07 0.05 0.05 0.05 0.09 0.20 0.21 0.34 0.40 0.31 0.10 0.28 0.39 0.14 0.03 0.00 0.00 0.00 0.00 0.00 0.00 0.00 0.00 0.00 0.00 0.00 0.02 0.04 0.05 0.03 0.03 0.02 0.01 0.00 0.00 0.00 0.00 0.00 0.00 0.00 0.00
0.00 0.02 0.04 0.13 0.34 0.40 0.21 0.16 0.16 0.29 0.37 0.16 0.16 0.11 0.11 0.53 0.51 0.28 0.07 0.02 0.01 0.02 0.05 0.03 0.01 0.05 0.09 0.11 0.11 0.10 0.09 0.07 0.06 0.06 0.06 0.02 0.01 0.00 0.00 0.00 0.00 0.00 0.00 0.00
0.00 0.00 0.00 0.03 0.12 0.21 0.25 0.23 0.23 0.29 0.20 0.24 0.04 0.05 0.09 0.14 0.57 0.62 0.29 0.17 0.04 0.00 0.01 0.05 0.09 0.11 0.17 0.23 0.23 0.22 0.17 0.17 0.14 0.13 0.05 0.05 0.05 0.02 0.00 0.00 0.00 0.00 0.00 0.00
0.00 0.00 0.00 0.00 0.00 0.01 0.01 0.05 0.13 0.19 0.27 0.27 0.13 0.10 0.07 0.07 0.23 0.59 0.38 0.33 0.18 0.02 0.01 0.00 0.00 0.01 0.02 0.03 0.05 0.06 0.04 0.06 0.08 0.06 0.10 0.13 0.10 0.08 0.05 0.05 0.03 0.01 0.00 0.01
0.00 0.01 0.00 0.00 0.00 0.00 0.00 0.00 0.00 0.02 0.04 0.11 0.10 0.06 0.02 0.12 0.18 0.25 0.35 0.31 0.22 0.11 0.04 0.02 0.00 0.00 0.01 0.01 0.02 0.02 0.05 0.04 0.07 0.13 0.15 0.11 0.13 0.12 0.11 0.14 0.09 0.10 0.13 0.05
0.00 0.01 0.02 0.01 0.01 0.01 0.00 0.01 0.00 0.08 0.15 0.05 0.05 0.05 0.05 0.17 0.09 0.08 0.18 0.31 0.29 0.19 0.16 0.11 0.03 0.01 0.00 0.00 0.00 0.00 0.02 0.03 0.04 0.11 0.16 0.14 0.08 0.09 0.12 0.10 0.10 0.12 0.13 0.11
0.00 0.02 0.05 0.03 0.00 0.00 0.00 0.00 0.00 0.03 0.05 0.03 0.09 0.23 0.07 0.08 0.28 0.31 0.36 0.31 0.29 0.19 0.13 0.08 0.05 0.03 0.01 0.00 0.00 0.00 0.00 0.00 0.01 0.04 0.08 0.08 0.08 0.11 0.14 0.10 0.07 0.07 0.08 0.11
0.00 0.01 0.05 0.08 0.06 0.00 0.00 0.00 0.00 0.00 0.03 0.01 0.07 0.37 0.39 0.19 0.11 0.11 0.20 0.39 0.35 0.16 0.08 0.06 0.03 0.01 0.00 0.00 0.00 0.00 0.00 0.00 0.00 0.00 0.04 0.04 0.07 0.10 0.12 0.13 0.14 0.14 0.10 0.12
0.02 0.04 0.06 0.05 0.08 0.02 0.00 0.00 0.01 0.05 0.04 0.00 0.01 0.12 0.52 0.51 0.48 0.29 0.19 0.17 0.08 0.11 0.07 0.02 0.01 0.00 0.00 0.00 0.00 0.00 0.00 0.00 0.00 0.00 0.00 0.02 0.04 0.09 0.10 0.14 0.13 0.13 0.17 0.19
0.10 0.10 0.08 0.07 0.11 0.04 0.00 0.05 0.14 0.12 0.01 0.00 0.01 0.02 0.09 0.21 0.17 0.09 0.11 0.04 0.03 0.01 0.00 0.00 0.00 0.00 0.00 0.00 0.00 0.00 0.00 0.00 0.00 0.00 0.00 0.02 0.08 0.11 0.13 0.12 0.14 0.14 0.15 0.16
0.25 0.06 0.08 0.03 0.03 0.09 0.13 0.08 0.08 0.02 0.01 0.01 0.02 0.05 0.03 0.06 0.13 0.09 0.01 0.00 0.00 0.00 0.00 0.00 0.00 0.00 0.00 0.00 0.00 0.00 0.00 0.00 0.00 0.01 0.02 0.04 0.08 0.10 0.13 0.18 0.19 0.19 0.21 0.22
0.55 0.46 0.36 0.37 0.31 0.20 0.37 0.25 0.06 0.05 0.13 0.13 0.07 0.03 0.00 0.00 0.00 0.00 0.00 0.00 0.00 0.00 0.00 0.00 0.00 0.00 0.00 0.00 0.00 0.00 0.00 0.01 0.02 0.02 0.02 0.03 0.07 0.12 0.10 0.12 0.12 0.15 0.18 0.24
0.27 0.55 0.67 0.75 0.62 0.45 0.60 0.58 0.38 0.26 0.09 0.10 0.14 0.11 0.07 0.04 0.03 0.02 0.01 0.00 0.00 0.00 0.00 0.00 0.00 0.00 0.00 0.00 0.00 0.01 0.02 0.03 0.05 0.06 0.07 0.08 0.08 0.08 0.08 0.10 0.21 0.26 0.39 0.55
0.16 0.41 0.73 1.14 0.88 0.69 0.66 0.36 0.25 0.22 0.18 0.08 0.03 0.01 0.02 0.01 0.00 0.00 0.00 0.00 0.00 0.00 0.00 0.00 0.00 0.00 0.01 0.02 0.02 0.02 0.01 0.03 0.07 0.10 0.11 0.17 0.16 0.18 0.20 0.22 0.30 0.42 0.45 0.48

GFSCGP_prec_precacc24_099.txt.gz
Total_Precipitation_Accumulation
0.00 0.00 0.00 0.00 0.00 0.00 0.00 0.00 0.00 0.00 0.00 0.00 0.00 0.00 0.00 0.00 0.00 0.00 0.00 0.00 0.00 0.00 0.00 0.00 0.00 0.00 0.00 0.00 0.00 0.01 0.01 0.01 0.01 0.02 0.04 0.11 0.23 0.20 0.06 0.07 0.14 0.36 0.47 0.39
0.00 0.02 0.00 0.00 0.00 0.00 0.00 0.00 0.00 0.00 0.00 0.00 0.00 0.00 0.00 0.00 0.00 0.00 0.00 0.00 0.00 0.00 0.00 0.00 0.00 0.00 0.00 0.00 0.00 0.01 0.01 0.01 0.01 0.01 0.02 0.03 0.07 0.17 0.07 0.04 0.03 0.08 0.39 0.66
0.03 0.01 0.00 0.00 0.00 0.00 0.00 0.00 0.00 0.00 0.00 0.01 0.01 0.00 0.00 0.00 0.00 0.00 0.00 0.00 0.00 0.00 0.00 0.00 0.00 0.00 0.00 0.00 0.00 0.01 0.01 0.01 0.01 0.01 0.03 0.04 0.06 0.15 0.12 0.05 0.02 0.04 0.10 0.34
0.03 0.00 0.01 0.04 0.04 0.00 0.00 0.00 0.00 0.01 0.03 0.04 0.00 0.00 0.00 0.00 0.00 0.00 0.00 0.00 0.00 0.00 0.00 0.00 0.00 0.00 0.00 0.00 0.00 0.00 0.00 0.01 0.01 0.01 0.02 0.02 0.03 0.06 0.03 0.01 0.01 0.02 0.08 0.14
0.04 0.00 0.07 0.07 0.02 0.00 0.00 0.00 0.04 0.04 0.01 0.01 0.00 0.03 0.00 0.00 0.00 0.00 0.00 0.00 0.00 0.00 0.00 0.00 0.00 0.00 0.00 0.00 0.00 0.00 0.01 0.00 0.01 0.01 0.01 0.02 0.01 0.02 0.03 0.03 0.02 0.02 0.02 0.09
0.01 0.00 0.04 0.03 0.00 0.03 0.07 0.03 0.07 0.04 0.06 0.08 0.00 0.02 0.01 0.00 0.00 0.00 0.00 0.00 0.00 0.00 0.00 0.00 0.00 0.00 0.00 0.00 0.00 0.00 0.00 0.01 0.01 0.01 0.01 0.01 0.01 0.02 0.05 0.03 0.02 0.01 0.02 0.04
0.01 0.00 0.00 0.00 0.01 0.02 0.08 0.18 0.32 0.26 0.19 0.08 0.00 0.00 0.00 0.00 0.00 0.00 0.00 0.00 0.00 0.00 0.00 0.00 0.00 0.00 0.00 0.00 0.00 0.00 0.00 0.00 0.01 0.01 0.01 0.01 0.01 0.00 0.00 0.01 0.00 0.00 0.01 0.02
0.05 0.03 0.01 0.00 0.00 0.01 0.06 0.20 0.20 0.10 0.04 0.01 0.00 0.00 0.00 0.00 0.00 0.00 0.00 0.00 0.00 0.00 0.00 0.00 0.00 0.00 0.00 0.00 0.00 0.00 0.00 0.00 0.00 0.01 0.01 0.01 0.01 0.00 0.00 0.00 0.00 0.00 0.00 0.00
0.01 0.01 0.00 0.00 0.00 0.03 0.09 0.13 0.09 0.37 0.16 0.09 0.00 0.00 0.00 0.00 0.00 0.00 0.00 0.00 0.00 0.00 0.00 0.00 0.00 0.00 0.00 0.00 0.00 0.00 0.00 0.00 0.00 0.01 0.00 0.00 0.01 0.00 0.00 0.00 0.00 0.00 0.00 0.00
0.00 0.00 0.00 0.00 0.00 0.00 0.05 0.19 0.30 0.46 0.20 0.10 0.00 0.01 0.01 0.00 0.00 0.00 0.00 0.00 0.00 0.00 0.00 0.00 0.00 0.00 0.00 0.00 0.00 0.00 0.00 0.00 0.00 0.00 0.00 0.00 0.00 0.01 0.00 0.00 0.00 0.00 0.00 0.00
0.00 0.00 0.02 0.01 0.00 0.01 0.03 0.25 0.27 0.25 0.16 0.20 0.10 0.14 0.14 0.03 0.02 0.00 0.00 0.00 0.00 0.00 0.00 0.00 0.00 0.00 0.00 0.00 0.00 0.00 0.01 0.00 0.00 0.00 0.00 0.00 0.00 0.00 0.00 0.00 0.00 0.00 0.00 0.00
0.00 0.00 0.01 0.01 0.00 0.01 0.03 0.05 0.19 0.44 0.23 0.13 0.20 0.15 0.19 0.08 0.02 0.01 0.00 0.00 0.01 0.02 0.03 0.00 0.00 0.00 0.00 0.00 0.00 0.01 0.01 0.01 0.02 0.06 0.03 0.00 0.00 0.00 0.00 0.00 0.00 0.00 0.00 0.00
0.00 0.01 0.01 0.08 0.06 0.05 0.05 0.09 0.20 0.27 0.36 0.41 0.33 0.11 0.29 0.39 0.14 0.03 0.00 0.00 0.02 0.07 0.09 0.03 0.00 0.00 0.00 0.00 0.01 0.03 0.05 0.06 0.05 0.06 0.02 0.01 0.00 0.00 0.00 0.00 0.00 0.00 0.00 0.00
0.00 0.02 0.04 0.14 0.34 0.40 0.21 0.16 0.16 0.30 0.40 0.17 0.17 0.11 0.11 0.53 0.51 0.28 0.08 0.06 0.08 0.13 0.17 0.11 0.04 0.09 0.12 0.13 0.12 0.11 0.11 0.09 0.08 0.09 0.10 0.03 0.01 0.00 0.00 0.00 0.00 0.00 0.00 0.00
0.00 0.00 0.00 0.03 0.12 0.21 0.25 0.23 0.23 0.30 0.21 0.26 0.04 0.05 0.09 0.14 0.58 0.62 0.30 0.20 0.26 0.27 0.13 0.12 0.15 0.18 0.22 0.26 0.28 0.27 0.23 0.25 0.22 0.21 0.12 0.08 0.04 0.02 0.00 0.00 0.00 0.00 0.00 0.00
0.00 0.00 0.00 0.00 0.00 0.01 0.01 0.05 0.13 0.19 0.27 0.27 0.13 0.10 0.07 0.07 0.26 0.60 0.39 0.37 0.29 0.13 0.02 0.01 0.02 0.04 0.07 0.08 0.11 0.11 0.07 0.10 0.10 0.07 0.13 0.16 0.12 0.09 0.05 0.04 0.03 0.01 0.00 0.00
0.00 0.00 0.00 0.00 0.00 0.00 0.00 0.00 0.00 0.02 0.04 0.11 0.10 0.06 0.02 0.14 0.22 0.30 0.36 0.40 0.33 0.31 0.11 0.02 0.00 0.00 0.01 0.02 0.06 0.07 0.08 0.06 0.08 0.15 0.18 0.15 0.16 0.15 0.13 0.13 0.09 0.09 0.12 0.05
0.00 0.00 0.01 0.01 0.01 0.01 0.00 0.01 0.00 0.08 0.15 0.05 0.05 0.05 0.05 0.20 0.18 0.14 0.25 0.52 0.42 0.34 0.45 0.26 0.08 0.02 0.00 0.01 0.05 0.14 0.18 0.14 0.12 0.16 0.19 0.15 0.09 0.11 0.15 0.12 0.11 0.13 0.13 0.11
0.00 0.00 0.01 0.01 0.00 0.00 0.00 0.00 0.00 0.03 0.05 0.04 0.12 0.25 0.23 0.30 0.43 0.47 0.63 0.64 0.63 0.43 0.30 0.32 0.21 0.11 0.02 0.01 0.01 0.02 0.10 0.07 0.09 0.10 0.10 0.08 0.08 0.12 0.14 0.11 0.09 0.10 0.10 0.12
0.00 0.00 0.02 0.04 0.04 0.00 0.00 0.00 0.00 0.00 0.03 0.01 0.11 0.43 0.43 0.37 0.32 0.35 0.47 0.77 0.56 0.31 0.18 0.13 0.10 0.07 0.03 0.01 0.00 0.00 0.00 0.00 0.00 0.01 0.04 0.04 0.07 0.10 0.11 0.13 0.14 0.13 0.09 0.11
0.02 0.04 0.05 0.03 0.07 0.02 0.00 0.00 0.00 0.04 0.04 0.00 0.02 0.19 0.58 0.69 0.79 0.69 0.57 0.55 0.30 0.21 0.09 0.02 0.01 0.01 0.00 0.01 0.01 0.00 0.00 0.00 0.00 0.00 0.00 0.01 0.03 0.08 0.08 0.12 0.13 0.12 0.16 0.17
0.08 0.08 0.07 0.06 0.10 0.04 0.00 0.03 0.10 0.11 0.01 0.01 0.01 0.03 0.11 0.32 0.31 0.25 0.39 0.36 0.20 0.04 0.00 0.00 0.00 0.00 0.00 0.00 0.00 0.00 0.00 0.00 0.00 0.00 0.00 0.01 0.04 0.06 0.09 0.11 0.14 0.14 0.14 0.15
0.27 0.07 0.08 0.03 0.06 0.11 0.13 0.09 0.08 0.02 0.02 0.03 0.04 0.09 0.16 0.21 0.23 0.29 0.16 0.04 0.00 0.00 0.00 0.00 0.00 0.00 0.00 0.00 0.00 0.00 0.00 0.00 0.00 0.00 0.01 0.02 0.06 0.09 0.13 0.17 0.18 0.18 0.20 0.19
0.55 0.46 0.36 0.39 0.49 0.30 0.41 0.29 0.08 0.07 0.16 0.17 0.10 0.05 0.07 0.06 0.06 0.07 0.04 0.00 0.00 0.00 0.00 0.00 0.00 0.00 0.00 0.00 0.00 0.00 0.00 0.01 0.01 0.01 0.01 0.02 0.07 0.11 0.09 0.11 0.11 0.13 0.15 0.20
0.28 0.55 0.69 0.81 0.69 0.54 0.65 0.64 0.45 0.32 0.14 0.14 0.16 0.13 0.09 0.07 0.07 0.06 0.05 0.03 0.00 0.00 0.00 0.00 0.00 0.00 0.00 0.00 0.00 0.01 0.01 0.02 0.04 0.06 0.07 0.08 0.08 0.08 0.08 0.10 0.19 0.22 0.35 0.48
0.16 0.41 0.74 1.17 0.94 0.77 0.74 0.43 0.31 0.27 0.23 0.12 0.05 0.02 0.00 0.00 0.00 0.00 0.00 0.00 0.00 0.00 0.00 0.00 0.00 0.00 0.00 0.01 0.02 0.02 0.01 0.03 0.07 0.10 0.11 0.17 0.16 0.18 0.19 0.20 0.26 0.37 0.41 0.41

GFSCGP_prec_precacc24_102.txt.gz
Total_Precipitation_Accumulation
0.00 0.00 0.00 0.00 0.00 0.00 0.00 0.00 0.00 0.00 0.00 0.00 0.00 0.00 0.00 0.00 0.00 0.00 0.00 0.00 0.00 0.00 0.00 0.00 0.00 0.00 0.00 0.00 0.00 0.01 0.01 0.01 0.01 0.01 0.02 0.05 0.07 0.08 0.04 0.07 0.14 0.36 0.48 0.41
0.01 0.02 0.00 0.00 0.00 0.00 0.00 0.00 0.00 0.00 0.00 0.00 0.00 0.00 0.00 0.00 0.00 0.00 0.00 0.00 0.00 0.00 0.00 0.00 0.00 0.00 0.00 0.00 0.00 0.00 0.01 0.01 0.01 0.01 0.02 0.02 0.01 0.02 0.02 0.04 0.04 0.11 0.42 0.69
0.03 0.01 0.00 0.00 0.00 0.00 0.00 0.00 0.00 0.00 0.00 0.01 0.01 0.00 0.00 0.00 0.00 0.00 0.00 0.00 0.00 0.00 0.00 0.00 0.00 0.00 0.00 0.00 0.00 0.00 0.00 0.00 0.00 0.01 0.03 0.04 0.04 0.04 0.02 0.01 0.02 0.04 0.12 0.38
0.04 0.00 0.01 0.04 0.04 0.00 0.00 0.00 0.00 0.01 0.03 0.04 0.00 0.00 0.00 0.00 0.00 0.00 0.00 0.00 0.00 0.00 0.00 0.00 0.00 0.00 0.00 0.00 0.00 0.00 0.00 0.00 0.00 0.01 0.02 0.02 0.02 0.03 0.00 0.00 0.01 0.02 0.08 0.16
0.04 0.00 0.07 0.07 0.02 0.00 0.00 0.00 0.04 0.04 0.01 0.01 0.00 0.03 0.00 0.00 0.00 0.00 0.00 0.00 0.00 0.00 0.00 0.00 0.00 0.00 0.00 0.00 0.00 0.00 0.00 0.00 0.00 0.01 0.01 0.02 0.01 0.01 0.01 0.00 0.00 0.01 0.02 0.09
0.01 0.00 0.04 0.03 0.00 0.03 0.07 0.03 0.07 0.04 0.06 0.08 0.00 0.02 0.01 0.00 0.00 0.00 0.00 0.00 0.00 0.00 0.00 0.00 0.00 0.00 0.00 0.00 0.00 0.00 0.00 0.01 0.01 0.01 0.01 0.01 0.01 0.01 0.03 0.01 0.00 0.00 0.02 0.05
0.01 0.01 0.00 0.00 0.01 0.02 0.08 0.18 0.32 0.27 0.19 0.08 0.00 0.00 0.00 0.00 0.00 0.00 0.00 0.00 0.00 0.00 0.00 0.00 0.00 0.00 0.00 0.00 0.00 0.00 0.00 0.00 0.01 0.01 0.01 0.01 0.01 0.00 0.00 0.01 0.00 0.00 0.01 0.03
0.05 0.03 0.00 0.00 0.00 0.01 0.06 0.20 0.20 0.10 0.04 0.01 0.00 0.00 0.00 0.00 0.00 0.00 0.00 0.00 0.00 0.00 0.00 0.00 0.00 0.00 0.00 0.00 0.00 0.00 0.00 0.00 0.00 0.01 0.00 0.00 0.01 0.00 0.00 0.00 0.00 0.00 0.00 0.00
0.01 0.01 0.00 0.00 0.00 0.03 0.09 0.13 0.09 0.37 0.16 0.09 0.00 0.00 0.00 0.00 0.00 0.00 0.00 0.00 0.00 0.00 0.00 0.00 0.00 0.00 0.00 0.00 0.00 0.00 0.00 0.00 0.00 0.01 0.00 0.00 0.01 0.00 0.00 0.00 0.00 0.00 0.00 0.00
0.00 0.00 0.00 0.00 0.00 0.00 0.05 0.19 0.30 0.46 0.20 0.10 0.00 0.01 0.02 0.01 0.01 0.00 0.00 0.00 0.00 0.00 0.00 0.00 0.00 0.00 0.00 0.00 0.00 0.00 0.00 0.00 0.00 0.00 0.00 0.00 0.00 0.01 0.00 0.00 0.00 0.00 0.00 0.00
0.00 0.01 0.03 0.01 0.00 0.01 0.03 0.25 0.27 0.25 0.16 0.20 0.10 0.15 0.16 0.04 0.04 0.02 0.00 0.00 0.00 0.00 0.00 0.00 0.00 0.00 0.00 0.00 0.00 0.00 0.01 0.00 0.00 0.01 0.01 0.00 0.00 0.00 0.00 0.00 0.00 0.00 0.00 0.00
0.00 0.01 0.02 0.02 0.00 0.01 0.03 0.05 0.19 0.44 0.23 0.14 0.20 0.15 0.19 0.08 0.02 0.01 0.00 0.00 0.01 0.02 0.04 0.02 0.01 0.00 0.00 0.00 0.01 0.01 0.01 0.01 0.02 0.04 0.03 0.01 0.00 0.00 0.00 0.00 0.00 0.00 0.00 0.00
0.01 0.02 0.03 0.12 0.08 0.05 0.05 0.09 0.21 0.27 0.37 0.41 0.33 0.11 0.29 0.39 0.14 0.03 0.01 0.00 0.02 0.07 0.11 0.07 0.02 0.02 0.01 0.01 0.01 0.03 0.05 0.06 0.06 0.06 0.01 0.00 0.00 0.00 0.00 0.00 0.00 0.00 0.00 0.00
0.00 0.02 0.05 0.15 0.35 0.41 0.21 0.16 0.16 0.30 0.40 0.17 0.17 0.11 0.11 0.53 0.51 0.28 0.09 0.06 0.09 0.17 0.23 0.19 0.09 0.11 0.14 0.15 0.14 0.12 0.11 0.10 0.09 0.14 0.16 0.05 0.01 0.00 0.00 0.00 0.00 0.00 0.00 0.00
0.01 0.00 0.00 0.03 0.12 0.21 0.25 0.23 0.23 0.30 0.21 0.26 0.04 0.05 0.09 0.14 0.58 0.63 0.31 0.21 0.29 0.59 0.43 0.31 0.26 0.22 0.24 0.29 0.31 0.31 0.28 0.29 0.28 0.36 0.24 0.13 0.05 0.02 0.00 0.00 0.00 0.00 0.00 0.00
0.01 0.00 0.00 0.00 0.00 0.01 0.01 0.05 0.13 0.19 0.27 0.27 0.13 0.10 0.07 0.07 0.26 0.64 0.45 0.39 0.30 0.45 0.70 0.41 0.21 0.15 0.13 0.14 0.17 0.18 0.16 0.23 0.21 0.15 0.18 0.18 0.14 0.11 0.06 0.04 0.03 0.01 0.00 0.00
0.00 0.00 0.00 0.00 0.00 0.00 0.00 0.00 0.00 0.02 0.04 0.11 0.10 0.07 0.03 0.14 0.25 0.35 0.45 0.45 0.36 0.41 0.53 0.33 0.15 0.09 0.09 0.11 0.14 0.16 0.18 0.15 0.16 0.19 0.19 0.16 0.19 0.19 0.18 0.17 0.10 0.09 0.11 0.04
0.00 0.00 0.00 0.00 0.00 0.01 0.00 0.01 0.00 0.08 0.15 0.06 0.07 0.07 0.05 0.22 0.28 0.30 0.34 0.62 0.53 0.54 0.69 0.63 0.31 0.10 0.08 0.05 0.07 0.19 0.28 0.21 0.14 0.17 0.20 0.18 0.12 0.13 0.17 0.15 0.15 0.17 0.14 0.10
0.00 0.00 0.01 0.00 0.00 0.00 0.00 0.00 0.00 0.03 0.05 0.04 0.13 0.34 0.25 0.36 0.55 0.71 0.90 0.96 0.91 0.66 0.48 0.52 0.54 0.33 0.14 0.10 0.05 0.05 0.16 0.25 0.16 0.15 0.17 0.18 0.17 0.16 0.16 0.12 0.09 0.11 0.10 0.13
0.00 0.00 0.02 0.02 0.02 0.00 0.00 0.00 0.00 0.00 0.03 0.02 0.12 0.58 0.53 0.49 0.42 0.50 0.69 1.09 0.86 0.55 0.29 0.22 0.21 0.22 0.22 0.13 0.05 0.03 0.02 0.06 0.13 0.11 0.11 0.10 0.14 0.14 0.12 0.14 0.15 0.14 0.10 0.12
0.02 0.03 0.04 0.02 0.05 0.02 0.00 0.00 0.00 0.04 0.04 0.00 0.02 0.20 0.63 0.80 0.90 0.86 0.84 0.88 0.64 0.43 0.15 0.03 0.01 0.01 0.02 0.06 0.09 0.05 0.02 0.01 0.01 0.02 0.03 0.03 0.04 0.08 0.07 0.10 0.11 0.11 0.16 0.17
0.08 0.09 0.06 0.05 0.09 0.05 0.00 0.02 0.09 0.11 0.02 0.01 0.02 0.03 0.11 0.35 0.41 0.37 0.59 0.56 0.41 0.16 0.01 0.00 0.00 0.00 0.00 0.00 0.00 0.01 0.03 0.02 0.01 0.01 0.00 0.01 0.04 0.06 0.08 0.09 0.12 0.12 0.13 0.15
0.30 0.08 0.08 0.05 0.10 0.18 0.14 0.09 0.09 0.03 0.05 0.06 0.06 0.10 0.17 0.25 0.28 0.36 0.30 0.12 0.04 0.02 0.01 0.00 0.00 0.00 0.00 0.00 0.00 0.00 0.00 0.00 0.01 0.01 0.01 0.02 0.04 0.07 0.10 0.13 0.15 0.16 0.19 0.19
0.55 0.46 0.37 0.43 0.52 0.33 0.43 0.32 0.09 0.09 0.19 0.20 0.13 0.07 0.08 0.07 0.09 0.13 0.11 0.05 0.02 0.01 0.00 0.00 0.00 0.00 0.00 0.00 0.00 0.00 0.00 0.01 0.01 0.01 0.01 0.02 0.06 0.09 0.09 0.10 0.11 0.13 0.15 0.20
0.28 0.55 0.69 0.84 0.72 0.57 0.67 0.66 0.47 0.34 0.16 0.14 0.17 0.13 0.10 0.07 0.06 0.06 0.05 0.03 0.01 0.00 0.00 0.00 0.00 0.00 0.00 0.00 0.00 0.01 0.01 0.02 0.04 0.05 0.06 0.07 0.07 0.07 0.07 0.10 0.19 0.23 0.35 0.47
0.17 0.41 0.74 1.18 0.96 0.79 0.77 0.45 0.32 0.28 0.25 0.13 0.05 0.02 0.01 0.00 0.00 0.00 0.00 0.00 0.00 0.00 0.00 0.00 0.00 0.00 0.00 0.00 0.01 0.01 0.01 0.02 0.05 0.09 0.11 0.17 0.16 0.17 0.18 0.19 0.25 0.36 0.40 0.40

GFSCGP_prec_precacc24_105.txt.gz
Total_Precipitation_Accumulation
0.00 0.00 0.00 0.00 0.00 0.00 0.00 0.00 0.00 0.00 0.00 0.00 0.00 0.00 0.00 0.00 0.00 0.00 0.00 0.00 0.00 0.00 0.00 0.00 0.00 0.00 0.00 0.00 0.00 0.00 0.00 0.00 0.00 0.00 0.01 0.01 0.01 0.01 0.03 0.07 0.14 0.36 0.48 0.42
0.01 0.02 0.00 0.00 0.00 0.00 0.00 0.00 0.00 0.00 0.00 0.00 0.00 0.00 0.00 0.00 0.00 0.00 0.00 0.00 0.00 0.00 0.00 0.00 0.00 0.00 0.00 0.00 0.00 0.00 0.00 0.00 0.00 0.00 0.01 0.00 0.00 0.00 0.01 0.03 0.04 0.11 0.43 0.70
0.03 0.01 0.00 0.00 0.00 0.00 0.00 0.00 0.00 0.00 0.00 0.01 0.01 0.00 0.00 0.00 0.00 0.00 0.00 0.00 0.00 0.00 0.00 0.00 0.00 0.00 0.00 0.00 0.00 0.00 0.00 0.00 0.00 0.01 0.01 0.01 0.02 0.01 0.01 0.02 0.02 0.05 0.13 0.41
0.04 0.00 0.01 0.04 0.04 0.00 0.00 0.00 0.00 0.01 0.03 0.04 0.00 0.00 0.00 0.00 0.00 0.00 0.00 0.00 0.00 0.00 0.00 0.00 0.00 0.00 0.00 0.00 0.00 0.00 0.00 0.00 0.00 0.01 0.01 0.01 0.01 0.00 0.00 0.00 0.01 0.02 0.09 0.17
0.04 0.00 0.07 0.07 0.02 0.00 0.00 0.00 0.04 0.04 0.01 0.01 0.00 0.03 0.00 0.00 0.00 0.00 0.00 0.00 0.00 0.00 0.00 0.00 0.00 0.00 0.00 0.00 0.00 0.00 0.00 0.00 0.00 0.01 0.00 0.00 0.00 0.00 0.00 0.00 0.00 0.01 0.03 0.10
0.01 0.00 0.04 0.03 0.00 0.03 0.07 0.03 0.07 0.04 0.06 0.08 0.00 0.02 0.01 0.00 0.00 0.00 0.00 0.00 0.00 0.00 0.00 0.00 0.00 0.00 0.00 0.00 0.00 0.00 0.00 0.00 0.01 0.01 0.01 0.00 0.00 0.00 0.00 0.00 0.00 0.00 0.02 0.05
0.06 0.04 0.00 0.00 0.01 0.03 0.08 0.18 0.32 0.27 0.19 0.08 0.00 0.00 0.00 0.00 0.00 0.00 0.00 0.00 0.00 0.00 0.00 0.00 0.00 0.00 0.00 0.00 0.00 0.00 0.00 0.00 0.01 0.01 0.01 0.01 0.00 0.00 0.00 0.00 0.00 0.00 0.01 0.03
0.06 0.09 0.04 0.00 0.00 0.01 0.06 0.20 0.20 0.10 0.04 0.01 0.00 0.00 0.00 0.00 0.00 0.00 0.00 0.00 0.00 0.00 0.00 0.00 0.00 0.00 0.00 0.00 0.00 0.00 0.00 0.00 0.00 0.01 0.00 0.00 0.00 0.00 0.00 0.00 0.00 0.00 0.00 0.00
0.03 0.04 0.02 0.00 0.00 0.04 0.09 0.14 0.09 0.39 0.16 0.10 0.00 0.00 0.00 0.00 0.00 0.00 0.00 0.00 0.00 0.00 0.00 0.00 0.00 0.00 0.00 0.00 0.00 0.00 0.00 0.00 0.00 0.01 0.00 0.00 0.01 0.00 0.00 0.00 0.00 0.00 0.00 0.00
0.01 0.02 0.02 0.01 0.01 0.01 0.05 0.19 0.30 0.46 0.20 0.10 0.00 0.01 0.05 0.02 0.01 0.00 0.00 0.00 0.00 0.00 0.00 0.00 0.00 0.00 0.00 0.00 0.00 0.00 0.00 0.00 0.00 0.01 0.00 0.00 0.00 0.00 0.00 0.00 0.00 0.00 0.00 0.00
0.00 0.01 0.06 0.03 0.01 0.01 0.03 0.27 0.28 0.27 0.16 0.21 0.11 0.21 0.20 0.04 0.04 0.02 0.00 0.00 0.00 0.00 0.00 0.00 0.00 0.00 0.00 0.00 0.00 0.00 0.01 0.00 0.00 0.01 0.01 0.00 0.00 0.00 0.00 0.00 0.00 0.00 0.00 0.00
0.01 0.04 0.06 0.05 0.00 0.01 0.03 0.05 0.19 0.45 0.24 0.14 0.21 0.19 0.20 0.08 0.02 0.01 0.00 0.00 0.01 0.02 0.04 0.02 0.01 0.01 0.01 0.00 0.01 0.01 0.01 0.01 0.02 0.04 0.03 0.01 0.00 0.00 0.00 0.00 0.00 0.00 0.00 0.00
0.02 0.06 0.10 0.19 0.11 0.07 0.06 0.09 0.21 0.28 0.38 0.41 0.32 0.14 0.29 0.39 0.14 0.03 0.01 0.00 0.02 0.07 0.11 0.07 0.04 0.03 0.03 0.03 0.03 0.04 0.06 0.06 0.06 0.06 0.01 0.00 0.01 0.02 0.04 0.01 0.00 0.00 0.00 0.00
0.01 0.04 0.07 0.15 0.34 0.42 0.23 0.16 0.17 0.31 0.41 0.18 0.17 0.11 0.11 0.53 0.51 0.28 0.09 0.06 0.09 0.17 0.23 0.19 0.10 0.14 0.18 0.19 0.18 0.15 0.12 0.10 0.10 0.15 0.19 0.14 0.10 0.06 0.03 0.00 0.00 0.00 0.00 0.00
0.01 0.02 0.02 0.03 0.11 0.22 0.27 0.24 0.24 0.30 0.21 0.26 0.05 0.06 0.09 0.15 0.58 0.63 0.32 0.22 0.29 0.59 0.43 0.36 0.33 0.30 0.31 0.34 0.36 0.36 0.32 0.31 0.31 0.41 0.33 0.23 0.14 0.07 0.02 0.00 0.00 0.00 0.00 0.00
0.02 0.00 0.00 0.00 0.00 0.02 0.01 0.05 0.13 0.19 0.27 0.27 0.13 0.12 0.07 0.07 0.26 0.64 0.47 0.44 0.32 0.45 0.71 0.58 0.47 0.34 0.24 0.22 0.23 0.24 0.22 0.29 0.29 0.22 0.23 0.23 0.18 0.14 0.08 0.04 0.02 0.01 0.00 0.00
0.02 0.00 0.00 0.00 0.00 0.00 0.00 0.00 0.00 0.02 0.04 0.12 0.12 0.10 0.03 0.14 0.25 0.36 0.48 0.54 0.42 0.44 0.59 0.69 0.72 0.52 0.28 0.23 0.24 0.24 0.26 0.23 0.25 0.29 0.29 0.21 0.23 0.20 0.20 0.18 0.10 0.09 0.10 0.04
0.00 0.00 0.00 0.00 0.00 0.01 0.00 0.01 0.00 0.08 0.15 0.06 0.07 0.08 0.12 0.22 0.29 0.31 0.40 0.71 0.62 0.61 0.78 0.82 0.79 0.58 0.45 0.28 0.23 0.36 0.42 0.37 0.28 0.30 0.31 0.24 0.14 0.15 0.18 0.16 0.16 0.18 0.14 0.10
0.00 0.00 0.00 0.00 0.00 0.00 0.02 0.00 0.00 0.03 0.06 0.04 0.14 0.38 0.35 0.41 0.57 0.71 0.95 1.10 1.07 0.80 0.59 0.64 0.81 0.87 0.53 0.46 0.27 0.20 0.34 0.48 0.50 0.41 0.37 0.31 0.23 0.18 0.19 0.18 0.14 0.15 0.15 0.16
0.00 0.00 0.01 0.01 0.02 0.01 0.02 0.01 0.00 0.00 0.06 0.02 0.12 0.59 0.58 0.57 0.46 0.51 0.72 1.20 1.04 0.68 0.37 0.29 0.26 0.38 0.66 0.51 0.32 0.26 0.21 0.21 0.34 0.47 0.30 0.22 0.25 0.30 0.29 0.28 0.29 0.29 0.27 0.23
0.01 0.02 0.03 0.01 0.05 0.02 0.00 0.00 0.00 0.06 0.06 0.01 0.02 0.20 0.63 0.80 0.91 0.87 0.88 0.98 0.79 0.57 0.19 0.06 0.03 0.02 0.05 0.25 0.37 0.26 0.19 0.21 0.22 0.20 0.19 0.11 0.11 0.18 0.19 0.23 0.27 0.28 0.32 0.33
0.08 0.10 0.05 0.05 0.09 0.06 0.00 0.01 0.08 0.11 0.02 0.02 0.02 0.03 0.11 0.35 0.42 0.39 0.63 0.61 0.47 0.28 0.05 0.00 0.00 0.00 0.00 0.00 0.03 0.12 0.14 0.14 0.16 0.14 0.08 0.08 0.11 0.11 0.12 0.12 0.12 0.13 0.14 0.15
0.29 0.10 0.06 0.05 0.11 0.19 0.14 0.09 0.09 0.03 0.06 0.07 0.07 0.11 0.18 0.26 0.29 0.36 0.32 0.15 0.06 0.03 0.02 0.00 0.00 0.00 0.00 0.00 0.00 0.00 0.01 0.03 0.03 0.03 0.05 0.06 0.08 0.09 0.11 0.15 0.14 0.14 0.15 0.16
0.55 0.46 0.34 0.40 0.51 0.32 0.43 0.31 0.10 0.09 0.19 0.20 0.13 0.07 0.08 0.07 0.09 0.13 0.11 0.05 0.02 0.01 0.00 0.00 0.00 0.00 0.00 0.00 0.00 0.00 0.00 0.00 0.00 0.01 0.01 0.03 0.06 0.08 0.08 0.08 0.08 0.09 0.13 0.18
0.28 0.55 0.69 0.85 0.73 0.58 0.66 0.66 0.47 0.34 0.16 0.14 0.17 0.13 0.10 0.07 0.06 0.06 0.05 0.03 0.01 0.00 0.00 0.00 0.00 0.00 0.00 0.00 0.00 0.00 0.00 0.00 0.01 0.02 0.03 0.04 0.04 0.04 0.05 0.07 0.14 0.16 0.30 0.40
0.16 0.40 0.73 1.18 0.96 0.81 0.77 0.46 0.32 0.28 0.25 0.13 0.05 0.02 0.01 0.00 0.00 0.00 0.00 0.00 0.00 0.00 0.00 0.00 0.00 0.00 0.00 0.00 0.00 0.00 0.00 0.00 0.01 0.04 0.05 0.09 0.10 0.13 0.15 0.16 0.20 0.30 0.34 0.33

GFSCGP_prec_precacc24_108.txt.gz
Total_Precipitation_Accumulation
0.00 0.00 0.00 0.00 0.00 0.00 0.00 0.00 0.00 0.00 0.00 0.00 0.00 0.00 0.00 0.00 0.00 0.00 0.00 0.00 0.00 0.00 0.00 0.00 0.00 0.00 0.00 0.00 0.00 0.00 0.00 0.00 0.00 0.00 0.00 0.00 0.00 0.00 0.01 0.03 0.08 0.31 0.39 0.38
0.00 0.00 0.00 0.00 0.00 0.00 0.00 0.00 0.00 0.00 0.00 0.00 0.00 0.00 0.00 0.00 0.00 0.00 0.00 0.00 0.00 0.00 0.00 0.00 0.00 0.00 0.00 0.00 0.00 0.00 0.00 0.00 0.00 0.00 0.00 0.00 0.00 0.00 0.01 0.01 0.03 0.10 0.41 0.68
0.00 0.00 0.00 0.00 0.00 0.00 0.00 0.00 0.00 0.00 0.00 0.01 0.01 0.00 0.00 0.00 0.00 0.00 0.00 0.00 0.00 0.00 0.00 0.00 0.00 0.00 0.00 0.00 0.00 0.00 0.00 0.00 0.00 0.00 0.00 0.00 0.00 0.01 0.01 0.01 0.02 0.04 0.13 0.41
0.00 0.00 0.00 0.02 0.02 0.00 0.00 0.00 0.00 0.01 0.03 0.04 0.00 0.00 0.00 0.00 0.00 0.00 0.00 0.00 0.00 0.00 0.00 0.00 0.00 0.00 0.00 0.00 0.00 0.00 0.00 0.00 0.00 0.00 0.00 0.00 0.00 0.00 0.00 0.00 0.01 0.02 0.09 0.17
0.01 0.00 0.05 0.06 0.02 0.00 0.00 0.00 0.04 0.04 0.01 0.01 0.00 0.03 0.00 0.00 0.00 0.00 0.00 0.00 0.00 0.00 0.00 0.00 0.00 0.00 0.00 0.00 0.00 0.00 0.00 0.00 0.00 0.00 0.00 0.00 0.00 0.00 0.00 0.00 0.00 0.01 0.03 0.10
0.01 0.00 0.01 0.02 0.00 0.03 0.06 0.03 0.07 0.04 0.06 0.08 0.00 0.02 0.01 0.00 0.00 0.00 0.00 0.00 0.00 0.00 0.00 0.00 0.00 0.00 0.00 0.00 0.00 0.00 0.00 0.00 0.00 0.00 0.00 0.00 0.00 0.00 0.00 0.00 0.00 0.01 0.02 0.05
0.08 0.09 0.01 0.00 0.01 0.03 0.08 0.18 0.33 0.29 0.20 0.08 0.00 0.00 0.00 0.00 0.00 0.00 0.00 0.00 0.00 0.00 0.00 0.00 0.00 0.00 0.00 0.00 0.00 0.00 0.00 0.00 0.01 0.00 0.00 0.00 0.00 0.00 0.00 0.00 0.00 0.00 0.01 0.03
0.12 0.16 0.07 0.00 0.00 0.01 0.06 0.20 0.22 0.12 0.04 0.01 0.00 0.00 0.00 0.00 0.00 0.00 0.00 0.00 0.00 0.00 0.00 0.00 0.00 0.00 0.00 0.00 0.00 0.00 0.00 0.00 0.00 0.00 0.00 0.00 0.00 0.00 0.00 0.00 0.00 0.00 0.00 0.00
0.16 0.14 0.05 0.01 0.00 0.03 0.10 0.15 0.10 0.39 0.17 0.13 0.02 0.02 0.02 0.00 0.00 0.00 0.00 0.00 0.00 0.00 0.00 0.00 0.00 0.00 0.00 0.00 0.00 0.00 0.00 0.00 0.00 0.00 0.00 0.00 0.00 0.00 0.00 0.00 0.00 0.00 0.00 0.00
0.10 0.14 0.08 0.02 0.02 0.02 0.09 0.19 0.28 0.45 0.28 0.15 0.01 0.05 0.18 0.12 0.03 0.00 0.00 0.00 0.00 0.00 0.00 0.00 0.00 0.00 0.00 0.00 0.00 0.00 0.00 0.00 0.00 0.01 0.00 0.00 0.00 0.00 0.00 0.00 0.00 0.00 0.00 0.00
0.15 0.12 0.07 0.05 0.04 0.04 0.15 0.31 0.29 0.26 0.17 0.21 0.10 0.34 0.28 0.10 0.07 0.03 0.00 0.00 0.00 0.00 0.00 0.00 0.00 0.00 0.00 0.00 0.01 0.02 0.01 0.00 0.00 0.01 0.03 0.01 0.01 0.00 0.00 0.00 0.00 0.00 0.00 0.00
0.02 0.09 0.08 0.06 0.01 0.01 0.05 0.08 0.21 0.40 0.20 0.11 0.22 0.51 0.30 0.13 0.04 0.01 0.00 0.00 0.01 0.02 0.04 0.02 0.01 0.01 0.01 0.01 0.05 0.06 0.03 0.03 0.03 0.05 0.06 0.01 0.01 0.02 0.01 0.01 0.00 0.00 0.00 0.00
0.03 0.10 0.15 0.23 0.18 0.10 0.09 0.10 0.22 0.31 0.39 0.33 0.23 0.25 0.38 0.41 0.14 0.03 0.01 0.00 0.02 0.07 0.11 0.07 0.04 0.03 0.04 0.04 0.06 0.08 0.09 0.07 0.06 0.07 0.03 0.01 0.02 0.06 0.07 0.05 0.01 0.01 0.00 0.00
0.02 0.06 0.10 0.22 0.21 0.39 0.27 0.22 0.19 0.31 0.39 0.17 0.16 0.18 0.18 0.54 0.52 0.28 0.09 0.06 0.09 0.17 0.23 0.20 0.10 0.14 0.19 0.21 0.21 0.21 0.18 0.14 0.12 0.16 0.20 0.16 0.12 0.09 0.08 0.08 0.00 0.02 0.00 0.00
0.05 0.13 0.16 0.11 0.06 0.19 0.30 0.23 0.23 0.32 0.22 0.25 0.07 0.08 0.09 0.15 0.58 0.63 0.33 0.23 0.30 0.59 0.43 0.36 0.33 0.30 0.34 0.38 0.41 0.42 0.38 0.37 0.35 0.46 0.39 0.26 0.17 0.11 0.08 0.06 0.03 0.02 0.01 0.00
0.03 0.03 0.02 0.16 0.08 0.03 0.05 0.05 0.11 0.17 0.26 0.29 0.18 0.21 0.08 0.07 0.26 0.64 0.47 0.45 0.32 0.45 0.71 0.58 0.47 0.35 0.32 0.31 0.32 0.31 0.29 0.36 0.36 0.30 0.31 0.32 0.25 0.19 0.14 0.09 0.05 0.02 0.00 0.00
0.02 0.00 0.00 0.00 0.00 0.00 0.00 0.00 0.01 0.03 0.04 0.12 0.13 0.12 0.04 0.15 0.25 0.37 0.49 0.55 0.45 0.46 0.61 0.71 0.76 0.66 0.57 0.52 0.47 0.36 0.36 0.31 0.33 0.36 0.37 0.31 0.31 0.26 0.24 0.21 0.11 0.10 0.08 0.05
0.01 0.01 0.00 0.00 0.00 0.04 0.03 0.01 0.00 0.09 0.15 0.06 0.08 0.08 0.14 0.25 0.30 0.32 0.42 0.74 0.65 0.65 0.82 0.87 0.87 0.77 0.78 0.68 0.58 0.58 0.54 0.48 0.37 0.40 0.42 0.34 0.24 0.24 0.24 0.19 0.18 0.20 0.15 0.10
0.00 0.00 0.00 0.00 0.00 0.02 0.04 0.00 0.00 0.06 0.08 0.04 0.13 0.38 0.36 0.44 0.58 0.72 0.96 1.12 1.12 0.86 0.64 0.69 0.87 0.97 0.72 0.72 0.54 0.53 0.50 0.64 0.65 0.57 0.56 0.51 0.41 0.35 0.33 0.25 0.17 0.17 0.17 0.17
0.00 0.00 0.01 0.00 0.02 0.07 0.10 0.01 0.00 0.01 0.08 0.02 0.12 0.59 0.58 0.58 0.48 0.52 0.73 1.23 1.09 0.72 0.39 0.29 0.27 0.40 0.73 0.71 0.55 0.53 0.54 0.45 0.54 0.69 0.62 0.72 0.72 0.64 0.62 0.58 0.49 0.41 0.38 0.38
0.01 0.01 0.03 0.01 0.06 0.03 0.00 0.00 0.00 0.08 0.12 0.02 0.03 0.20 0.63 0.81 0.92 0.89 0.91 1.02 0.83 0.61 0.19 0.06 0.03 0.02 0.05 0.29 0.48 0.42 0.41 0.50 0.46 0.44 0.61 0.54 0.56 0.62 0.58 0.67 0.60 0.56 0.65 0.67
0.07 0.12 0.06 0.05 0.09 0.07 0.00 0.01 0.05 0.09 0.04 0.03 0.03 0.04 0.11 0.36 0.43 0.40 0.65 0.63 0.47 0.29 0.06 0.00 0.00 0.00 0.00 0.00 0.04 0.17 0.24 0.26 0.30 0.33 0.30 0.36 0.40 0.39 0.42 0.37 0.34 0.30 0.31 0.32
0.26 0.10 0.06 0.06 0.12 0.20 0.13 0.08 0.09 0.04 0.06 0.07 0.07 0.11 0.18 0.26 0.29 0.37 0.32 0.16 0.06 0.03 0.02 0.00 0.00 0.00 0.00 0.00 0.00 0.00 0.03 0.07 0.10 0.12 0.15 0.18 0.20 0.28 0.29 0.24 0.21 0.18 0.17 0.16
0.51 0.46 0.30 0.36 0.48 0.23 0.29 0.27 0.10 0.10 0.19 0.20 0.13 0.07 0.08 0.07 0.09 0.13 0.11 0.05 0.02 0.01 0.00 0.00 0.00 0.00 0.00 0.00 0.00 0.00 0.00 0.00 0.01 0.02 0.04 0.05 0.07 0.08 0.11 0.15 0.18 0.18 0.16 0.15
0.25 0.52 0.68 0.83 0.70 0.43 0.44 0.55 0.45 0.35 0.16 0.14 0.17 0.13 0.10 0.07 0.06 0.06 0.05 0.03 0.01 0.00 0.00 0.00 0.00 0.00 0.00 0.00 0.00 0.00 0.00 0.00 0.00 0.00 0.00 0.01 0.01 0.02 0.03 0.05 0.10 0.14 0.26 0.29
0.13 0.37 0.69 1.15 0.94 0.74 0.67 0.45 0.32 0.28 0.25 0.13 0.05 0.02 0.01 0.00 0.00 0.00 0.00 0.00 0.00 0.00 0.00 0.00 0.00 0.00 0.00 0.00 0.00 0.00 0.00 0.00 0.00 0.00 0.01 0.02 0.03 0.03 0.04 0.05 0.09 0.17 0.21 0.20

GFSCGP_prec_precacc24_111.txt.gz
Total_Precipitation_Accumulation
0.00 0.00 0.00 0.00 0.00 0.00 0.00 0.00 0.00 0.00 0.00 0.00 0.00 0.00 0.00 0.00 0.00 0.00 0.00 0.00 0.00 0.00 0.00 0.00 0.00 0.00 0.00 0.00 0.00 0.00 0.00 0.00 0.00 0.00 0.00 0.00 0.00 0.00 0.00 0.01 0.03 0.23 0.33 0.28
0.00 0.00 0.00 0.00 0.00 0.00 0.00 0.00 0.00 0.00 0.00 0.00 0.01 0.00 0.00 0.00 0.00 0.00 0.00 0.00 0.00 0.00 0.00 0.00 0.00 0.00 0.00 0.00 0.00 0.00 0.00 0.00 0.00 0.00 0.00 0.00 0.00 0.00 0.01 0.00 0.01 0.06 0.29 0.47
0.00 0.00 0.00 0.00 0.00 0.00 0.00 0.00 0.00 0.00 0.00 0.01 0.02 0.00 0.00 0.00 0.00 0.00 0.00 0.00 0.00 0.00 0.00 0.00 0.00 0.00 0.00 0.00 0.00 0.00 0.00 0.00 0.00 0.00 0.00 0.00 0.00 0.01 0.01 0.01 0.01 0.03 0.09 0.35
0.01 0.00 0.00 0.00 0.00 0.00 0.00 0.00 0.00 0.01 0.01 0.05 0.01 0.01 0.00 0.00 0.00 0.00 0.00 0.00 0.00 0.00 0.00 0.00 0.00 0.00 0.00 0.00 0.00 0.00 0.00 0.00 0.00 0.00 0.00 0.00 0.00 0.00 0.00 0.00 0.01 0.02 0.09 0.17
0.02 0.00 0.00 0.00 0.00 0.00 0.00 0.00 0.01 0.03 0.03 0.01 0.01 0.04 0.00 0.00 0.00 0.00 0.00 0.00 0.00 0.00 0.00 0.00 0.00 0.00 0.00 0.00 0.00 0.00 0.02 0.03 0.00 0.00 0.00 0.00 0.00 0.00 0.00 0.00 0.00 0.01 0.03 0.10
0.01 0.01 0.01 0.00 0.00 0.00 0.00 0.01 0.03 0.04 0.06 0.07 0.00 0.02 0.01 0.00 0.00 0.00 0.00 0.00 0.00 0.00 0.00 0.00 0.00 0.00 0.00 0.00 0.00 0.00 0.00 0.03 0.05 0.01 0.00 0.00 0.00 0.00 0.00 0.00 0.00 0.01 0.02 0.05
0.08 0.09 0.01 0.01 0.01 0.01 0.04 0.11 0.18 0.22 0.18 0.06 0.00 0.00 0.00 0.01 0.00 0.00 0.00 0.00 0.00 0.00 0.00 0.00 0.00 0.00 0.00 0.00 0.00 0.00 0.00 0.00 0.02 0.01 0.00 0.00 0.00 0.00 0.00 0.00 0.00 0.00 0.01 0.03
0.12 0.17 0.08 0.00 0.01 0.01 0.05 0.16 0.18 0.10 0.04 0.01 0.00 0.00 0.00 0.00 0.00 0.02 0.04 0.01 0.00 0.00 0.00 0.00 0.00 0.00 0.00 0.00 0.00 0.00 0.00 0.00 0.00 0.01 0.01 0.00 0.01 0.01 0.00 0.00 0.00 0.00 0.00 0.00
0.20 0.18 0.06 0.01 0.02 0.01 0.07 0.14 0.09 0.32 0.14 0.12 0.02 0.07 0.04 0.02 0.02 0.05 0.05 0.02 0.00 0.00 0.00 0.00 0.00 0.00 0.00 0.00 0.00 0.00 0.00 0.00 0.00 0.00 0.00 0.01 0.04 0.03 0.01 0.00 0.00 0.00 0.00 0.00
0.16 0.38 0.16 0.05 0.04 0.02 0.07 0.16 0.26 0.39 0.31 0.25 0.04 0.14 0.35 0.42 0.33 0.13 0.04 0.00 0.00 0.00 0.00 0.00 0.00 0.00 0.00 0.00 0.00 0.00 0.00 0.00 0.00 0.01 0.00 0.04 0.05 0.02 0.03 0.00 0.00 0.00 0.00 0.00
0.17 0.40 0.22 0.09 0.06 0.04 0.15 0.23 0.26 0.25 0.25 0.38 0.21 0.65 0.65 0.69 0.66 0.40 0.02 0.00 0.00 0.00 0.00 0.00 0.00 0.00 0.00 0.00 0.01 0.03 0.02 0.02 0.01 0.02 0.07 0.08 0.04 0.05 0.08 0.03 0.00 0.00 0.00 0.00
0.07 0.49 0.19 0.08 0.06 0.03 0.13 0.12 0.21 0.40 0.23 0.23 0.39 1.00 1.07 0.51 0.32 0.06 0.01 0.00 0.01 0.02 0.04 0.02 0.01 0.01 0.01 0.01 0.05 0.08 0.06 0.07 0.09 0.13 0.16 0.12 0.12 0.17 0.14 0.05 0.00 0.00 0.02 0.03
0.09 0.21 0.20 0.26 0.22 0.11 0.12 0.11 0.21 0.32 0.34 0.31 0.32 0.78 0.79 0.39 0.15 0.03 0.01 0.00 0.02 0.07 0.11 0.07 0.04 0.03 0.04 0.04 0.06 0.08 0.12 0.11 0.08 0.12 0.16 0.15 0.17 0.24 0.22 0.11 0.02 0.06 0.08 0.04
0.06 0.10 0.12 0.28 0.20 0.17 0.23 0.25 0.24 0.37 0.37 0.25 0.28 0.41 0.23 0.53 0.51 0.28 0.09 0.06 0.09 0.17 0.23 0.20 0.10 0.14 0.18 0.21 0.21 0.22 0.20 0.17 0.15 0.18 0.22 0.21 0.21 0.24 0.24 0.14 0.04 0.09 0.09 0.05
0.05 0.14 0.25 0.18 0.07 0.09 0.29 0.27 0.35 0.35 0.20 0.31 0.26 0.11 0.03 0.13 0.58 0.63 0.33 0.23 0.31 0.60 0.43 0.36 0.33 0.30 0.30 0.34 0.40 0.44 0.41 0.40 0.39 0.49 0.42 0.30 0.23 0.25 0.24 0.11 0.07 0.07 0.07 0.04
0.03 0.12 0.20 0.54 0.24 0.06 0.16 0.10 0.05 0.07 0.19 0.31 0.20 0.24 0.09 0.08 0.26 0.64 0.47 0.45 0.34 0.46 0.72 0.59 0.47 0.35 0.32 0.31 0.32 0.34 0.33 0.40 0.39 0.33 0.35 0.39 0.35 0.38 0.36 0.18 0.12 0.04 0.02 0.02
0.02 0.02 0.03 0.15 0.06 0.01 0.07 0.01 0.01 0.02 0.04 0.12 0.13 0.15 0.05 0.15 0.25 0.37 0.49 0.56 0.47 0.48 0.63 0.74 0.78 0.67 0.58 0.53 0.51 0.48 0.45 0.38 0.38 0.41 0.42 0.36 0.40 0.39 0.42 0.31 0.19 0.14 0.10 0.05
0.01 0.01 0.00 0.01 0.01 0.17 0.28 0.03 0.00 0.09 0.15 0.06 0.08 0.08 0.14 0.26 0.31 0.32 0.44 0.76 0.68 0.67 0.86 0.90 0.89 0.78 0.79 0.71 0.66 0.74 0.74 0.64 0.47 0.44 0.46 0.40 0.34 0.41 0.42 0.33 0.26 0.26 0.18 0.12
0.00 0.00 0.00 0.00 0.03 0.09 0.05 0.00 0.00 0.07 0.08 0.03 0.13 0.36 0.35 0.45 0.59 0.72 0.97 1.15 1.15 0.89 0.66 0.70 0.88 0.97 0.72 0.74 0.67 0.71 0.73 0.86 0.83 0.70 0.62 0.58 0.52 0.51 0.54 0.45 0.31 0.27 0.28 0.24
0.00 0.00 0.01 0.00 0.03 0.14 0.12 0.01 0.00 0.01 0.09 0.02 0.12 0.57 0.58 0.58 0.47 0.53 0.75 1.25 1.12 0.75 0.39 0.29 0.27 0.40 0.73 0.71 0.56 0.58 0.66 0.60 0.76 0.86 0.76 0.90 0.87 0.87 0.80 0.77 0.77 0.67 0.59 0.58
0.01 0.01 0.02 0.02 0.07 0.04 0.00 0.00 0.00 0.08 0.15 0.03 0.03 0.20 0.63 0.82 0.93 0.92 0.93 1.04 0.84 0.61 0.19 0.06 0.03 0.02 0.05 0.29 0.48 0.43 0.44 0.60 0.62 0.59 0.75 0.69 0.85 0.97 0.90 0.97 1.02 1.02 0.99 1.00
0.07 0.14 0.04 0.04 0.09 0.07 0.00 0.01 0.05 0.08 0.05 0.04 0.04 0.04 0.12 0.36 0.44 0.40 0.66 0.64 0.47 0.29 0.06 0.00 0.00 0.00 0.00 0.00 0.04 0.17 0.25 0.30 0.39 0.45 0.40 0.52 0.55 0.53 0.67 0.67 0.66 0.71 0.73 0.74
0.24 0.10 0.06 0.06 0.12 0.19 0.07 0.05 0.06 0.03 0.07 0.08 0.07 0.11 0.18 0.26 0.29 0.37 0.32 0.16 0.06 0.03 0.02 0.00 0.00 0.00 0.00 0.00 0.00 0.00 0.03 0.07 0.11 0.16 0.21 0.24 0.27 0.36 0.38 0.39 0.45 0.37 0.33 0.34
0.39 0.42 0.29 0.35 0.44 0.20 0.12 0.12 0.09 0.09 0.19 0.20 0.13 0.07 0.08 0.07 0.09 0.13 0.11 0.05 0.02 0.01 0.00 0.00 0.00 0.00 0.00 0.00 0.00 0.00 0.00 0.00 0.01 0.03 0.05 0.07 0.09 0.12 0.15 0.19 0.25 0.31 0.34 0.33
0.18 0.43 0.64 0.70 0.50 0.32 0.21 0.27 0.36 0.34 0.16 0.14 0.17 0.13 0.10 0.07 0.06 0.06 0.05 0.03 0.01 0.00 0.00 0.00 0.00 0.00 0.00 0.00 0.00 0.00 0.00 0.00 0.00 0.00 0.00 0.01 0.01 0.01 0.04 0.06 0.10 0.12 0.20 0.21
0.11 0.24 0.54 0.85 0.73 0.61 0.51 0.37 0.31 0.28 0.25 0.13 0.05 0.02 0.01 0.00 0.00 0.00 0.00 0.00 0.00 0.00 0.00 0.00 0.00 0.00 0.00 0.00 0.00 0.01 0.00 0.00 0.00 0.01 0.01 0.02 0.02 0.01 0.00 0.01 0.03 0.07 0.09 0.07

GFSCGP_prec_precacc24_114.txt.gz
Total_Precipitation_Accumulation
0.00 0.00 0.00 0.00 0.00 0.00 0.00 0.00 0.00 0.00 0.00 0.00 0.00 0.00 0.00 0.00 0.00 0.00 0.00 0.00 0.00 0.00 0.00 0.00 0.00 0.00 0.00 0.00 0.00 0.00 0.00 0.00 0.00 0.00 0.01 0.00 0.00 0.00 0.00 0.01 0.03 0.20 0.25 0.19
0.00 0.00 0.00 0.00 0.00 0.00 0.00 0.00 0.00 0.00 0.00 0.00 0.01 0.00 0.00 0.00 0.00 0.00 0.00 0.00 0.00 0.00 0.00 0.00 0.00 0.00 0.00 0.00 0.00 0.00 0.00 0.00 0.00 0.00 0.01 0.04 0.02 0.00 0.00 0.00 0.01 0.05 0.26 0.40
0.01 0.00 0.00 0.00 0.00 0.00 0.00 0.00 0.00 0.00 0.00 0.00 0.03 0.01 0.00 0.00 0.00 0.00 0.00 0.00 0.00 0.00 0.00 0.00 0.00 0.00 0.00 0.00 0.00 0.00 0.00 0.00 0.00 0.00 0.06 0.08 0.07 0.04 0.02 0.01 0.00 0.01 0.05 0.29
0.02 0.00 0.00 0.00 0.00 0.01 0.00 0.00 0.00 0.00 0.00 0.04 0.04 0.03 0.00 0.00 0.00 0.00 0.00 0.00 0.00 0.00 0.00 0.00 0.00 0.00 0.00 0.00 0.00 0.00 0.00 0.00 0.00 0.00 0.00 0.01 0.00 0.00 0.00 0.00 0.01 0.01 0.01 0.05
0.04 0.01 0.01 0.00 0.00 0.02 0.01 0.00 0.00 0.00 0.03 0.02 0.02 0.04 0.00 0.00 0.00 0.00 0.00 0.00 0.00 0.00 0.00 0.00 0.00 0.00 0.00 0.00 0.00 0.00 0.03 0.12 0.11 0.08 0.04 0.01 0.01 0.00 0.00 0.00 0.00 0.01 0.02 0.04
0.01 0.01 0.01 0.00 0.00 0.01 0.01 0.01 0.03 0.05 0.07 0.07 0.00 0.01 0.00 0.01 0.00 0.00 0.00 0.00 0.00 0.00 0.00 0.00 0.00 0.00 0.00 0.00 0.00 0.00 0.00 0.05 0.16 0.13 0.15 0.12 0.07 0.02 0.01 0.00 0.00 0.01 0.02 0.03
0.08 0.09 0.01 0.01 0.00 0.01 0.02 0.06 0.08 0.12 0.14 0.04 0.00 0.00 0.00 0.07 0.07 0.01 0.00 0.00 0.00 0.00 0.00 0.00 0.00 0.00 0.00 0.00 0.00 0.00 0.00 0.00 0.03 0.03 0.03 0.02 0.02 0.03 0.01 0.00 0.00 0.01 0.03 0.03
0.12 0.17 0.08 0.00 0.00 0.01 0.01 0.04 0.07 0.09 0.03 0.01 0.00 0.00 0.01 0.05 0.16 0.09 0.08 0.02 0.00 0.00 0.00 0.00 0.00 0.00 0.00 0.00 0.00 0.00 0.00 0.00 0.00 0.01 0.01 0.00 0.01 0.03 0.01 0.00 0.00 0.00 0.01 0.02
0.21 0.18 0.06 0.01 0.03 0.07 0.04 0.04 0.04 0.25 0.17 0.13 0.02 0.08 0.08 0.11 0.09 0.13 0.08 0.04 0.01 0.00 0.00 0.00 0.00 0.00 0.00 0.00 0.00 0.00 0.00 0.00 0.00 0.00 0.00 0.01 0.04 0.05 0.02 0.01 0.00 0.01 0.01 0.00
0.16 0.39 0.17 0.05 0.06 0.06 0.06 0.05 0.21 0.31 0.30 0.25 0.04 0.15 0.42 0.53 0.66 0.21 0.05 0.02 0.01 0.00 0.00 0.00 0.00 0.00 0.00 0.00 0.00 0.00 0.00 0.00 0.00 0.01 0.00 0.04 0.05 0.03 0.06 0.02 0.00 0.01 0.01 0.00
0.17 0.41 0.31 0.14 0.13 0.09 0.14 0.12 0.16 0.23 0.26 0.43 0.44 0.84 1.15 1.26 1.26 1.04 0.18 0.07 0.02 0.00 0.00 0.00 0.00 0.00 0.00 0.00 0.01 0.03 0.02 0.02 0.01 0.02 0.09 0.10 0.06 0.10 0.14 0.08 0.02 0.01 0.02 0.02
0.07 0.66 0.51 0.17 0.09 0.06 0.14 0.11 0.11 0.33 0.31 0.31 0.75 1.31 1.56 1.23 0.82 0.43 0.27 0.12 0.05 0.03 0.04 0.02 0.01 0.01 0.01 0.01 0.05 0.08 0.06 0.07 0.09 0.14 0.21 0.18 0.20 0.28 0.23 0.14 0.05 0.03 0.04 0.06
0.14 0.49 0.30 0.31 0.42 0.17 0.11 0.10 0.19 0.33 0.44 0.52 0.74 1.11 1.11 0.53 0.31 0.14 0.07 0.04 0.04 0.07 0.11 0.07 0.04 0.03 0.04 0.04 0.06 0.08 0.12 0.12 0.08 0.12 0.19 0.22 0.26 0.37 0.39 0.29 0.12 0.12 0.15 0.08
0.10 0.11 0.12 0.30 0.26 0.12 0.12 0.17 0.18 0.31 0.46 0.47 0.60 0.69 0.36 0.27 0.36 0.24 0.10 0.06 0.10 0.17 0.23 0.20 0.10 0.12 0.15 0.19 0.21 0.22 0.19 0.16 0.15 0.17 0.23 0.25 0.28 0.36 0.40 0.33 0.18 0.21 0.18 0.09
0.05 0.14 0.31 0.21 0.20 0.16 0.50 0.45 0.51 0.44 0.33 0.40 0.50 0.20 0.10 0.06 0.31 0.47 0.31 0.23 0.31 0.60 0.43 0.36 0.33 0.30 0.28 0.28 0.32 0.37 0.38 0.38 0.39 0.50 0.43 0.31 0.25 0.31 0.36 0.28 0.21 0.18 0.15 0.10
0.04 0.14 0.39 0.91 0.52 0.15 0.33 0.21 0.16 0.16 0.21 0.30 0.19 0.22 0.11 0.08 0.16 0.37 0.42 0.45 0.34 0.47 0.73 0.59 0.47 0.35 0.32 0.31 0.32 0.31 0.31 0.36 0.35 0.33 0.36 0.40 0.36 0.38 0.43 0.31 0.30 0.20 0.12 0.06
0.02 0.02 0.08 0.27 0.30 0.07 0.22 0.14 0.04 0.05 0.07 0.06 0.10 0.15 0.09 0.11 0.22 0.33 0.47 0.57 0.47 0.49 0.64 0.74 0.78 0.68 0.58 0.54 0.51 0.48 0.44 0.39 0.37 0.33 0.32 0.31 0.37 0.43 0.48 0.42 0.33 0.30 0.21 0.11
0.01 0.01 0.01 0.06 0.04 0.25 0.50 0.08 0.01 0.05 0.15 0.07 0.08 0.09 0.14 0.24 0.31 0.33 0.44 0.78 0.69 0.69 0.86 0.90 0.89 0.78 0.79 0.72 0.67 0.74 0.75 0.72 0.61 0.48 0.37 0.31 0.34 0.46 0.59 0.53 0.46 0.44 0.32 0.16
0.00 0.00 0.00 0.06 0.08 0.20 0.08 0.01 0.01 0.08 0.10 0.05 0.11 0.36 0.37 0.44 0.57 0.71 0.98 1.16 1.17 0.89 0.66 0.70 0.88 0.97 0.72 0.74 0.67 0.71 0.74 0.91 0.94 0.88 0.75 0.68 0.56 0.58 0.59 0.64 0.57 0.55 0.54 0.43
0.00 0.00 0.01 0.01 0.04 0.16 0.12 0.01 0.00 0.01 0.10 0.04 0.11 0.57 0.58 0.59 0.47 0.53 0.76 1.25 1.12 0.75 0.39 0.29 0.27 0.40 0.73 0.71 0.56 0.58 0.66 0.61 0.82 1.04 1.01 1.08 1.06 0.99 0.98 0.92 1.01 1.01 0.84 0.75
0.00 0.01 0.02 0.02 0.07 0.04 0.00 0.00 0.00 0.08 0.18 0.06 0.04 0.20 0.62 0.82 0.93 0.91 0.93 1.04 0.84 0.61 0.19 0.06 0.03 0.02 0.05 0.29 0.48 0.43 0.44 0.61 0.63 0.65 0.88 0.84 0.96 1.10 1.07 1.17 1.18 1.33 1.45 1.34
0.02 0.12 0.04 0.04 0.07 0.07 0.01 0.01 0.06 0.12 0.08 0.06 0.05 0.05 0.12 0.36 0.44 0.40 0.66 0.64 0.47 0.29 0.06 0.00 0.00 0.00 0.00 0.00 0.04 0.17 0.26 0.31 0.40 0.45 0.41 0.53 0.57 0.56 0.74 0.77 0.83 0.91 0.89 0.96
0.11 0.08 0.06 0.06 0.12 0.17 0.05 0.06 0.06 0.03 0.07 0.07 0.06 0.10 0.18 0.26 0.29 0.37 0.32 0.16 0.06 0.03 0.02 0.00 0.00 0.00 0.00 0.00 0.00 0.01 0.04 0.08 0.11 0.16 0.21 0.25 0.28 0.37 0.39 0.41 0.48 0.45 0.45 0.43
0.16 0.26 0.26 0.32 0.42 0.19 0.10 0.09 0.07 0.06 0.16 0.18 0.13 0.07 0.08 0.07 0.09 0.13 0.11 0.05 0.02 0.01 0.00 0.00 0.00 0.00 0.00 0.00 0.00 0.01 0.00 0.00 0.01 0.03 0.05 0.07 0.09 0.12 0.15 0.21 0.27 0.34 0.37 0.36
0.12 0.23 0.47 0.63 0.45 0.29 0.17 0.18 0.25 0.29 0.15 0.13 0.16 0.13 0.10 0.07 0.06 0.06 0.05 0.03 0.01 0.00 0.00 0.00 0.00 0.00 0.00 0.00 0.00 0.00 0.00 0.00 0.00 0.00 0.01 0.02 0.01 0.01 0.03 0.07 0.10 0.13 0.20 0.19
0.09 0.15 0.25 0.54 0.53 0.41 0.34 0.28 0.21 0.20 0.23 0.13 0.05 0.02 0.01 0.00 0.00 0.00 0.00 0.00 0.00 0.00 0.00 0.00 0.00 0.00 0.00 0.00 0.00 0.01 0.00 0.00 0.00 0.01 0.01 0.02 0.03 0.01 0.00 0.01 0.02 0.05 0.07 0.05

GFSCGP_prec_precacc24_117.txt.gz
Total_Precipitation_Accumulation
0.00 0.00 0.00 0.00 0.00 0.00 0.00 0.00 0.00 0.00 0.00 0.00 0.00 0.00 0.00 0.00 0.00 0.00 0.00 0.00 0.00 0.00 0.00 0.00 0.00 0.00 0.00 0.00 0.00 0.00 0.00 0.00 0.00 0.00 0.01 0.01 0.00 0.00 0.00 0.01 0.02 0.09 0.08 0.10
0.00 0.00 0.00 0.00 0.00 0.00 0.00 0.00 0.00 0.00 0.00 0.00 0.01 0.00 0.00 0.00 0.00 0.00 0.00 0.00 0.00 0.00 0.00 0.00 0.00 0.00 0.00 0.00 0.00 0.00 0.00 0.00 0.00 0.00 0.01 0.05 0.03 0.03 0.06 0.04 0.01 0.04 0.17 0.22
0.01 0.00 0.00 0.00 0.00 0.00 0.00 0.00 0.00 0.00 0.00 0.00 0.03 0.01 0.00 0.00 0.00 0.00 0.00 0.00 0.00 0.00 0.00 0.00 0.00 0.00 0.00 0.00 0.00 0.00 0.00 0.00 0.00 0.00 0.06 0.09 0.11 0.14 0.15 0.05 0.00 0.01 0.04 0.24
0.02 0.00 0.00 0.00 0.00 0.01 0.00 0.00 0.00 0.00 0.01 0.04 0.06 0.04 0.00 0.00 0.00 0.00 0.00 0.00 0.00 0.00 0.00 0.00 0.00 0.00 0.00 0.00 0.00 0.00 0.00 0.00 0.01 0.03 0.02 0.02 0.01 0.00 0.00 0.00 0.00 0.00 0.01 0.03
0.04 0.01 0.01 0.01 0.00 0.02 0.01 0.01 0.00 0.01 0.04 0.02 0.03 0.06 0.00 0.00 0.01 0.01 0.00 0.00 0.00 0.00 0.00 0.00 0.00 0.00 0.00 0.00 0.00 0.00 0.03 0.12 0.12 0.10 0.07 0.06 0.08 0.06 0.02 0.00 0.00 0.01 0.02 0.01
0.01 0.01 0.01 0.00 0.00 0.01 0.01 0.01 0.03 0.06 0.07 0.05 0.00 0.01 0.03 0.09 0.06 0.03 0.01 0.00 0.00 0.00 0.00 0.00 0.00 0.00 0.00 0.00 0.00 0.00 0.00 0.05 0.17 0.16 0.18 0.18 0.15 0.11 0.10 0.04 0.03 0.02 0.06 0.03
0.08 0.09 0.01 0.01 0.00 0.01 0.02 0.05 0.08 0.09 0.10 0.02 0.01 0.02 0.05 0.12 0.12 0.03 0.01 0.01 0.00 0.00 0.00 0.00 0.00 0.00 0.00 0.00 0.00 0.00 0.00 0.00 0.03 0.04 0.06 0.04 0.05 0.06 0.04 0.06 0.06 0.06 0.05 0.03
0.12 0.17 0.08 0.00 0.00 0.01 0.01 0.02 0.06 0.07 0.04 0.01 0.02 0.03 0.18 0.11 0.44 0.14 0.08 0.02 0.00 0.00 0.00 0.00 0.00 0.00 0.00 0.00 0.00 0.00 0.00 0.00 0.00 0.01 0.01 0.00 0.02 0.05 0.03 0.01 0.02 0.01 0.02 0.03
0.21 0.18 0.06 0.01 0.04 0.09 0.07 0.02 0.02 0.12 0.14 0.15 0.03 0.17 0.28 0.26 0.43 0.75 0.25 0.08 0.04 0.02 0.01 0.00 0.00 0.00 0.00 0.00 0.00 0.00 0.00 0.00 0.00 0.00 0.00 0.01 0.04 0.06 0.04 0.03 0.02 0.02 0.03 0.02
0.16 0.39 0.17 0.05 0.07 0.06 0.08 0.06 0.16 0.22 0.25 0.27 0.08 0.19 0.48 0.62 0.91 0.52 0.34 0.22 0.08 0.04 0.01 0.00 0.00 0.00 0.00 0.00 0.00 0.00 0.00 0.00 0.00 0.01 0.00 0.04 0.05 0.03 0.08 0.06 0.01 0.01 0.04 0.05
0.18 0.42 0.33 0.14 0.15 0.14 0.17 0.11 0.11 0.15 0.22 0.45 0.57 0.87 1.21 1.37 1.44 1.21 0.41 0.18 0.06 0.02 0.01 0.00 0.00 0.00 0.00 0.00 0.01 0.03 0.02 0.03 0.03 0.03 0.09 0.11 0.07 0.10 0.15 0.10 0.06 0.06 0.09 0.10
0.08 0.74 0.60 0.24 0.11 0.16 0.20 0.12 0.07 0.19 0.25 0.31 0.90 1.43 1.62 1.37 1.00 0.57 0.51 0.37 0.18 0.07 0.04 0.02 0.01 0.01 0.01 0.01 0.05 0.08 0.07 0.09 0.11 0.15 0.22 0.19 0.22 0.30 0.26 0.18 0.10 0.09 0.12 0.15
0.15 0.58 0.32 0.36 0.51 0.23 0.13 0.08 0.14 0.25 0.36 0.71 0.97 1.25 1.27 0.52 0.40 0.27 0.18 0.21 0.20 0.11 0.12 0.07 0.04 0.03 0.04 0.04 0.06 0.08 0.12 0.12 0.08 0.12 0.19 0.24 0.28 0.40 0.43 0.35 0.19 0.19 0.23 0.22
0.11 0.14 0.20 0.33 0.33 0.23 0.16 0.14 0.16 0.25 0.45 0.63 0.71 0.82 0.53 0.19 0.13 0.17 0.17 0.12 0.15 0.18 0.21 0.19 0.10 0.10 0.10 0.12 0.14 0.18 0.17 0.15 0.13 0.15 0.22 0.25 0.31 0.41 0.46 0.43 0.29 0.31 0.30 0.24
0.06 0.23 0.48 0.41 0.40 0.22 0.55 0.52 0.70 0.46 0.33 0.41 0.63 0.29 0.22 0.10 0.06 0.12 0.17 0.26 0.31 0.59 0.43 0.35 0.32 0.27 0.24 0.22 0.26 0.30 0.32 0.33 0.33 0.45 0.41 0.28 0.24 0.33 0.41 0.38 0.32 0.27 0.27 0.24
0.04 0.19 0.55 1.20 0.70 0.19 0.54 0.60 0.43 0.28 0.27 0.34 0.22 0.25 0.19 0.11 0.08 0.10 0.19 0.34 0.31 0.47 0.73 0.59 0.47 0.35 0.32 0.31 0.32 0.31 0.31 0.36 0.36 0.33 0.30 0.31 0.29 0.35 0.41 0.31 0.32 0.24 0.21 0.22
0.02 0.02 0.12 0.37 0.37 0.09 0.34 0.38 0.16 0.13 0.13 0.09 0.11 0.18 0.15 0.10 0.12 0.18 0.25 0.40 0.39 0.48 0.63 0.74 0.78 0.68 0.59 0.54 0.51 0.48 0.44 0.39 0.37 0.32 0.30 0.28 0.32 0.38 0.43 0.40 0.40 0.36 0.32 0.32
0.01 0.01 0.01 0.09 0.06 0.29 0.68 0.19 0.04 0.03 0.07 0.08 0.10 0.13 0.17 0.15 0.30 0.34 0.40 0.68 0.56 0.62 0.83 0.89 0.89 0.78 0.80 0.72 0.67 0.74 0.75 0.72 0.61 0.49 0.40 0.33 0.35 0.46 0.58 0.52 0.46 0.56 0.52 0.38
0.00 0.00 0.02 0.08 0.11 0.26 0.15 0.03 0.02 0.07 0.09 0.07 0.12 0.27 0.40 0.45 0.52 0.65 0.92 1.10 1.12 0.86 0.63 0.69 0.88 0.97 0.72 0.74 0.67 0.71 0.74 0.91 0.94 0.88 0.78 0.74 0.59 0.59 0.61 0.71 0.73 0.68 0.70 0.72
0.00 0.00 0.01 0.04 0.06 0.18 0.14 0.01 0.00 0.01 0.10 0.06 0.10 0.33 0.49 0.59 0.47 0.53 0.73 1.15 1.05 0.72 0.38 0.29 0.27 0.40 0.73 0.71 0.56 0.58 0.66 0.61 0.82 1.04 1.03 1.13 1.12 1.09 1.14 1.14 1.17 1.30 1.32 1.16
0.00 0.01 0.02 0.02 0.06 0.04 0.01 0.02 0.02 0.09 0.20 0.08 0.05 0.13 0.44 0.76 0.90 0.90 0.92 1.01 0.80 0.59 0.19 0.06 0.03 0.02 0.05 0.29 0.48 0.43 0.44 0.61 0.63 0.65 0.88 0.85 1.00 1.17 1.18 1.33 1.42 1.56 1.73 1.79
0.02 0.11 0.04 0.04 0.06 0.07 0.01 0.01 0.06 0.13 0.09 0.06 0.05 0.04 0.09 0.35 0.43 0.39 0.66 0.64 0.47 0.29 0.06 0.00 0.00 0.00 0.00 0.00 0.04 0.17 0.26 0.31 0.40 0.45 0.41 0.53 0.57 0.58 0.77 0.80 0.86 0.96 0.99 1.10
0.10 0.06 0.05 0.06 0.13 0.18 0.06 0.07 0.07 0.03 0.07 0.07 0.06 0.10 0.18 0.26 0.29 0.37 0.32 0.16 0.06 0.03 0.02 0.00 0.00 0.00 0.00 0.00 0.00 0.01 0.05 0.08 0.11 0.16 0.21 0.25 0.28 0.37 0.39 0.42 0.48 0.45 0.46 0.47
0.02 0.01 0.11 0.29 0.41 0.19 0.10 0.08 0.05 0.05 0.08 0.11 0.11 0.07 0.08 0.07 0.09 0.13 0.11 0.05 0.02 0.01 0.00 0.00 0.00 0.00 0.00 0.00 0.00 0.01 0.00 0.00 0.01 0.03 0.06 0.07 0.09 0.12 0.15 0.21 0.27 0.34 0.38 0.36
0.01 0.02 0.14 0.37 0.34 0.24 0.15 0.16 0.14 0.13 0.11 0.06 0.11 0.11 0.09 0.07 0.06 0.06 0.05 0.03 0.01 0.00 0.00 0.00 0.00 0.00 0.00 0.00 0.00 0.00 0.00 0.00 0.00 0.00 0.01 0.02 0.01 0.01 0.03 0.07 0.11 0.14 0.22 0.20
0.02 0.04 0.08 0.24 0.28 0.30 0.26 0.22 0.18 0.13 0.19 0.13 0.05 0.02 0.00 0.00 0.00 0.00 0.00 0.00 0.00 0.00 0.00 0.00 0.00 0.00 0.00 0.00 0.00 0.01 0.00 0.00 0.00 0.01 0.01 0.02 0.03 0.02 0.00 0.00 0.02 0.05 0.08 0.05

GFSCGP_prec_precacc24_120.txt.gz
Total_Precipitation_Accumulation
0.00 0.00 0.00 0.00 0.00 0.00 0.00 0.00 0.00 0.00 0.00 0.00 0.00 0.00 0.00 0.00 0.00 0.00 0.00 0.00 0.00 0.00 0.00 0.00 0.00 0.00 0.00 0.00 0.00 0.00 0.00 0.00 0.00 0.00 0.01 0.01 0.00 0.00 0.01 0.01 0.01 0.02 0.03 0.06
0.00 0.00 0.00 0.00 0.00 0.00 0.00 0.00 0.00 0.00 0.00 0.00 0.01 0.00 0.00 0.00 0.00 0.00 0.00 0.00 0.00 0.00 0.00 0.00 0.00 0.00 0.00 0.00 0.00 0.00 0.00 0.00 0.00 0.00 0.01 0.05 0.03 0.03 0.06 0.04 0.01 0.04 0.06 0.09
0.01 0.00 0.00 0.00 0.00 0.00 0.00 0.00 0.00 0.00 0.00 0.00 0.03 0.01 0.00 0.00 0.00 0.00 0.00 0.00 0.00 0.00 0.00 0.00 0.00 0.00 0.00 0.00 0.00 0.00 0.00 0.00 0.00 0.00 0.06 0.09 0.12 0.15 0.15 0.07 0.01 0.01 0.04 0.14
0.02 0.00 0.00 0.00 0.00 0.01 0.00 0.00 0.00 0.00 0.01 0.04 0.06 0.06 0.00 0.00 0.00 0.00 0.00 0.00 0.00 0.00 0.00 0.00 0.00 0.00 0.00 0.00 0.00 0.00 0.00 0.00 0.01 0.03 0.01 0.03 0.01 0.01 0.01 0.02 0.01 0.02 0.02 0.03
0.04 0.01 0.01 0.01 0.00 0.02 0.01 0.01 0.00 0.01 0.04 0.02 0.03 0.06 0.00 0.00 0.04 0.02 0.00 0.00 0.00 0.00 0.00 0.00 0.00 0.00 0.00 0.00 0.00 0.00 0.03 0.12 0.12 0.10 0.07 0.06 0.08 0.07 0.04 0.02 0.01 0.03 0.09 0.08
0.01 0.01 0.01 0.00 0.00 0.01 0.01 0.01 0.03 0.06 0.07 0.06 0.00 0.01 0.05 0.36 0.18 0.10 0.02 0.00 0.00 0.00 0.00 0.00 0.00 0.00 0.00 0.00 0.00 0.00 0.00 0.04 0.16 0.16 0.19 0.19 0.17 0.14 0.10 0.04 0.03 0.07 0.19 0.12
0.08 0.09 0.01 0.01 0.00 0.01 0.02 0.05 0.09 0.09 0.10 0.02 0.01 0.03 0.16 0.33 0.22 0.13 0.07 0.02 0.01 0.00 0.00 0.00 0.00 0.00 0.00 0.00 0.00 0.00 0.00 0.00 0.03 0.05 0.07 0.06 0.07 0.07 0.04 0.06 0.08 0.15 0.22 0.14
0.12 0.17 0.08 0.00 0.00 0.01 0.01 0.02 0.07 0.08 0.03 0.04 0.05 0.10 0.45 0.30 0.54 0.26 0.19 0.05 0.02 0.01 0.00 0.00 0.00 0.00 0.00 0.00 0.00 0.00 0.00 0.00 0.00 0.01 0.02 0.01 0.04 0.06 0.03 0.01 0.04 0.04 0.13 0.12
0.21 0.18 0.06 0.01 0.04 0.09 0.07 0.02 0.01 0.07 0.12 0.15 0.14 0.48 0.39 0.34 0.57 1.24 0.51 0.13 0.08 0.03 0.01 0.00 0.00 0.00 0.00 0.00 0.00 0.00 0.00 0.00 0.00 0.00 0.00 0.01 0.05 0.06 0.04 0.05 0.07 0.04 0.05 0.05
0.17 0.41 0.17 0.06 0.07 0.07 0.08 0.06 0.11 0.15 0.22 0.30 0.21 0.35 0.62 0.74 1.04 0.78 0.83 0.60 0.17 0.15 0.06 0.02 0.00 0.00 0.00 0.00 0.00 0.00 0.00 0.00 0.00 0.01 0.00 0.04 0.05 0.03 0.08 0.07 0.02 0.04 0.11 0.12
0.22 0.48 0.33 0.15 0.15 0.14 0.17 0.11 0.10 0.09 0.18 0.48 0.70 0.94 1.23 1.43 1.57 1.47 0.67 0.53 0.42 0.14 0.12 0.05 0.01 0.00 0.00 0.00 0.01 0.03 0.02 0.03 0.03 0.03 0.10 0.11 0.07 0.10 0.15 0.10 0.08 0.11 0.15 0.16
0.10 0.78 0.63 0.24 0.11 0.17 0.22 0.13 0.05 0.13 0.21 0.29 0.89 1.47 1.70 1.41 1.08 0.68 0.64 0.49 0.41 0.28 0.21 0.11 0.05 0.01 0.01 0.01 0.05 0.08 0.07 0.08 0.10 0.15 0.23 0.20 0.22 0.30 0.27 0.19 0.12 0.12 0.13 0.18
0.18 0.67 0.36 0.35 0.50 0.23 0.13 0.11 0.11 0.21 0.34 0.70 0.96 1.32 1.39 0.59 0.45 0.34 0.29 0.32 0.29 0.23 0.21 0.12 0.05 0.03 0.04 0.04 0.06 0.06 0.08 0.07 0.06 0.11 0.20 0.25 0.30 0.41 0.45 0.37 0.21 0.23 0.26 0.25
0.17 0.23 0.31 0.42 0.41 0.26 0.17 0.15 0.17 0.24 0.42 0.62 0.80 0.94 0.62 0.28 0.18 0.17 0.20 0.22 0.28 0.30 0.23 0.18 0.10 0.10 0.10 0.10 0.10 0.13 0.11 0.10 0.09 0.12 0.16 0.23 0.31 0.43 0.48 0.45 0.31 0.35 0.34 0.28
0.07 0.29 0.57 0.45 0.51 0.28 0.62 0.66 0.75 0.45 0.37 0.43 0.76 0.40 0.32 0.19 0.15 0.14 0.16 0.20 0.31 0.62 0.45 0.31 0.25 0.19 0.17 0.15 0.19 0.23 0.25 0.25 0.27 0.38 0.39 0.26 0.23 0.32 0.42 0.42 0.37 0.33 0.34 0.32
0.04 0.21 0.61 1.25 0.81 0.26 0.66 0.84 0.63 0.34 0.35 0.39 0.25 0.29 0.25 0.15 0.13 0.13 0.17 0.19 0.19 0.46 0.72 0.59 0.47 0.35 0.30 0.28 0.29 0.30 0.31 0.35 0.34 0.31 0.28 0.30 0.28 0.33 0.40 0.30 0.32 0.25 0.23 0.26
0.02 0.02 0.13 0.41 0.38 0.10 0.40 0.63 0.34 0.21 0.17 0.10 0.10 0.20 0.18 0.10 0.13 0.21 0.22 0.31 0.27 0.38 0.60 0.73 0.79 0.69 0.59 0.53 0.50 0.47 0.44 0.39 0.36 0.31 0.29 0.28 0.32 0.38 0.43 0.39 0.40 0.35 0.32 0.34
0.01 0.02 0.02 0.13 0.08 0.32 0.76 0.28 0.12 0.07 0.11 0.09 0.09 0.14 0.18 0.15 0.30 0.32 0.32 0.51 0.43 0.50 0.71 0.79 0.87 0.77 0.80 0.71 0.66 0.74 0.75 0.72 0.61 0.48 0.39 0.32 0.35 0.46 0.58 0.52 0.47 0.56 0.52 0.43
0.00 0.01 0.04 0.09 0.12 0.29 0.19 0.04 0.03 0.08 0.11 0.10 0.12 0.24 0.35 0.43 0.33 0.44 0.63 0.86 0.89 0.71 0.54 0.62 0.83 0.95 0.71 0.74 0.67 0.71 0.74 0.91 0.94 0.88 0.78 0.74 0.59 0.60 0.62 0.71 0.73 0.69 0.71 0.78
0.00 0.01 0.03 0.05 0.06 0.19 0.16 0.01 0.00 0.01 0.11 0.06 0.09 0.26 0.22 0.42 0.40 0.47 0.57 0.86 0.77 0.58 0.31 0.23 0.24 0.39 0.73 0.71 0.56 0.58 0.66 0.62 0.82 1.04 1.03 1.14 1.12 1.09 1.14 1.15 1.19 1.31 1.32 1.19
0.00 0.02 0.05 0.03 0.06 0.05 0.01 0.03 0.02 0.09 0.21 0.09 0.04 0.09 0.11 0.31 0.47 0.64 0.74 0.87 0.77 0.50 0.12 0.04 0.03 0.02 0.05 0.29 0.48 0.43 0.45 0.62 0.64 0.65 0.88 0.85 1.00 1.17 1.18 1.33 1.43 1.57 1.76 1.86
0.02 0.11 0.04 0.05 0.05 0.07 0.02 0.02 0.06 0.13 0.10 0.07 0.05 0.02 0.03 0.16 0.27 0.31 0.55 0.60 0.45 0.28 0.06 0.00 0.00 0.00 0.00 0.00 0.04 0.17 0.27 0.32 0.40 0.45 0.41 0.53 0.57 0.58 0.77 0.80 0.86 0.97 1.01 1.14
0.10 0.06 0.04 0.07 0.13 0.19 0.07 0.08 0.08 0.03 0.07 0.07 0.05 0.06 0.16 0.20 0.16 0.28 0.31 0.16 0.06 0.03 0.02 0.00 0.00 0.00 0.00 0.00 0.00 0.02 0.05 0.08 0.11 0.16 0.21 0.25 0.28 0.37 0.39 0.42 0.48 0.45 0.46 0.47
0.02 0.00 0.03 0.13 0.31 0.17 0.09 0.08 0.05 0.05 0.06 0.07 0.06 0.05 0.07 0.07 0.09 0.13 0.11 0.05 0.02 0.01 0.00 0.00 0.00 0.00 0.00 0.00 0.00 0.01 0.01 0.00 0.01 0.03 0.06 0.07 0.09 0.12 0.15 0.21 0.27 0.34 0.38 0.37
0.01 0.00 0.03 0.14 0.17 0.16 0.10 0.09 0.10 0.09 0.07 0.04 0.03 0.02 0.03 0.04 0.04 0.04 0.04 0.03 0.01 0.00 0.00 0.00 0.00 0.00 0.00 0.00 0.00 0.00 0.00 0.00 0.00 0.00 0.01 0.02 0.01 0.01 0.03 0.06 0.10 0.14 0.24 0.22
0.00 0.01 0.03 0.11 0.11 0.14 0.14 0.10 0.07 0.06 0.07 0.05 0.03 0.02 0.00 0.00 0.00 0.00 0.00 0.00 0.00 0.00 0.00 0.00 0.00 0.00 0.00 0.00 0.00 0.00 0.00 0.00 0.00 0.01 0.01 0.02 0.03 0.01 0.00 0.00 0.02 0.04 0.07 0.05

GFSCGP_prec_precacc24_123.txt.gz
Total_Precipitation_Accumulation
0.00 0.00 0.00 0.00 0.00 0.00 0.00 0.00 0.00 0.00 0.00 0.00 0.00 0.00 0.00 0.00 0.00 0.00 0.00 0.00 0.00 0.00 0.00 0.00 0.00 0.00 0.00 0.00 0.00 0.00 0.00 0.00 0.00 0.00 0.01 0.01 0.01 0.01 0.02 0.01 0.00 0.01 0.01 0.03
0.00 0.00 0.00 0.00 0.00 0.00 0.00 0.00 0.00 0.00 0.00 0.00 0.01 0.00 0.00 0.00 0.00 0.00 0.00 0.00 0.00 0.00 0.00 0.00 0.00 0.00 0.00 0.00 0.00 0.00 0.00 0.00 0.01 0.00 0.01 0.06 0.04 0.03 0.08 0.05 0.01 0.03 0.04 0.05
0.01 0.00 0.00 0.00 0.00 0.00 0.00 0.00 0.00 0.00 0.00 0.00 0.03 0.01 0.00 0.00 0.00 0.00 0.00 0.00 0.00 0.00 0.00 0.00 0.00 0.00 0.00 0.00 0.00 0.00 0.00 0.00 0.00 0.00 0.07 0.13 0.12 0.15 0.16 0.07 0.01 0.01 0.04 0.07
0.02 0.00 0.00 0.00 0.00 0.01 0.00 0.00 0.00 0.00 0.01 0.04 0.06 0.07 0.00 0.00 0.00 0.00 0.00 0.00 0.00 0.00 0.00 0.00 0.00 0.00 0.00 0.00 0.00 0.00 0.00 0.00 0.01 0.03 0.02 0.03 0.01 0.01 0.01 0.02 0.03 0.05 0.06 0.05
0.04 0.01 0.01 0.01 0.00 0.02 0.01 0.01 0.00 0.01 0.04 0.02 0.03 0.07 0.00 0.01 0.08 0.05 0.02 0.01 0.00 0.00 0.00 0.00 0.00 0.00 0.00 0.00 0.00 0.00 0.03 0.12 0.12 0.10 0.08 0.07 0.08 0.07 0.04 0.02 0.01 0.06 0.12 0.17
0.01 0.01 0.01 0.00 0.00 0.01 0.01 0.01 0.03 0.06 0.07 0.06 0.00 0.02 0.06 0.48 0.46 0.30 0.16 0.07 0.03 0.01 0.00 0.00 0.00 0.00 0.00 0.00 0.00 0.00 0.00 0.04 0.16 0.16 0.19 0.19 0.17 0.14 0.10 0.04 0.03 0.08 0.23 0.20
0.08 0.09 0.01 0.01 0.00 0.01 0.02 0.05 0.09 0.09 0.10 0.02 0.02 0.04 0.20 0.43 0.38 0.26 0.21 0.14 0.08 0.03 0.01 0.01 0.00 0.00 0.00 0.00 0.00 0.00 0.00 0.01 0.03 0.05 0.07 0.06 0.07 0.07 0.05 0.06 0.08 0.16 0.27 0.16
0.12 0.17 0.08 0.00 0.00 0.01 0.01 0.02 0.07 0.08 0.04 0.04 0.05 0.17 0.58 0.46 0.71 0.44 0.64 0.29 0.16 0.09 0.03 0.01 0.00 0.00 0.00 0.00 0.00 0.00 0.01 0.02 0.02 0.03 0.04 0.03 0.06 0.08 0.05 0.02 0.06 0.08 0.20 0.13
0.22 0.18 0.06 0.01 0.04 0.09 0.07 0.02 0.01 0.07 0.12 0.15 0.25 0.71 0.53 0.44 0.72 1.45 0.74 0.33 0.28 0.15 0.05 0.00 0.01 0.01 0.01 0.01 0.02 0.01 0.02 0.01 0.01 0.01 0.02 0.04 0.07 0.08 0.06 0.07 0.10 0.06 0.07 0.13
0.19 0.44 0.17 0.06 0.07 0.07 0.08 0.06 0.11 0.14 0.22 0.35 0.34 0.50 0.72 0.79 1.11 0.92 1.06 1.00 0.40 0.35 0.14 0.04 0.01 0.00 0.01 0.01 0.01 0.01 0.01 0.00 0.01 0.01 0.00 0.05 0.05 0.04 0.08 0.08 0.04 0.05 0.15 0.18
0.23 0.52 0.34 0.15 0.15 0.14 0.17 0.11 0.10 0.09 0.19 0.50 0.72 0.99 1.23 1.47 1.64 1.64 0.96 0.92 0.92 0.46 0.49 0.23 0.10 0.01 0.00 0.01 0.02 0.03 0.02 0.02 0.03 0.03 0.09 0.11 0.07 0.10 0.15 0.10 0.08 0.12 0.17 0.23
0.10 0.82 0.65 0.24 0.11 0.17 0.23 0.14 0.06 0.13 0.21 0.28 0.89 1.50 1.75 1.48 1.17 0.76 0.76 0.65 0.60 0.57 0.44 0.43 0.33 0.23 0.03 0.01 0.05 0.07 0.06 0.08 0.10 0.12 0.20 0.19 0.22 0.30 0.27 0.20 0.13 0.13 0.15 0.20
0.23 0.71 0.37 0.34 0.49 0.23 0.14 0.12 0.13 0.15 0.32 0.70 0.97 1.38 1.45 0.66 0.52 0.42 0.37 0.38 0.35 0.25 0.29 0.37 0.24 0.21 0.12 0.05 0.05 0.05 0.08 0.06 0.04 0.07 0.19 0.25 0.30 0.42 0.45 0.37 0.22 0.24 0.28 0.27
0.24 0.26 0.33 0.46 0.46 0.30 0.19 0.16 0.18 0.23 0.40 0.63 0.85 1.00 0.67 0.32 0.23 0.23 0.27 0.26 0.27 0.26 0.18 0.21 0.28 0.23 0.21 0.10 0.10 0.12 0.10 0.08 0.07 0.09 0.13 0.23 0.31 0.43 0.48 0.46 0.32 0.36 0.36 0.31
0.08 0.34 0.65 0.51 0.54 0.32 0.68 0.73 0.78 0.47 0.41 0.45 0.82 0.46 0.40 0.26 0.21 0.20 0.23 0.25 0.11 0.37 0.36 0.26 0.20 0.15 0.16 0.13 0.15 0.17 0.19 0.18 0.19 0.31 0.31 0.23 0.22 0.32 0.42 0.42 0.37 0.34 0.36 0.34
0.04 0.22 0.66 1.27 0.82 0.31 0.75 0.90 0.68 0.36 0.39 0.44 0.32 0.36 0.32 0.22 0.19 0.21 0.25 0.22 0.11 0.34 0.71 0.58 0.46 0.32 0.27 0.23 0.23 0.25 0.27 0.32 0.32 0.29 0.25 0.26 0.26 0.32 0.40 0.30 0.32 0.25 0.24 0.28
0.03 0.05 0.15 0.44 0.39 0.12 0.43 0.76 0.42 0.24 0.19 0.12 0.13 0.24 0.24 0.15 0.17 0.23 0.28 0.29 0.19 0.19 0.54 0.73 0.80 0.70 0.60 0.53 0.46 0.43 0.41 0.38 0.35 0.30 0.26 0.24 0.28 0.34 0.40 0.38 0.39 0.35 0.32 0.34
0.01 0.04 0.04 0.17 0.12 0.34 0.80 0.34 0.19 0.11 0.14 0.10 0.09 0.16 0.22 0.15 0.24 0.29 0.28 0.31 0.30 0.36 0.41 0.64 0.82 0.77 0.80 0.71 0.62 0.60 0.59 0.62 0.53 0.44 0.37 0.31 0.33 0.44 0.56 0.49 0.44 0.54 0.51 0.42
0.00 0.03 0.10 0.11 0.13 0.30 0.21 0.05 0.04 0.10 0.13 0.11 0.11 0.23 0.22 0.24 0.20 0.28 0.37 0.54 0.55 0.47 0.36 0.38 0.67 0.87 0.70 0.74 0.67 0.69 0.64 0.84 0.87 0.82 0.77 0.74 0.59 0.59 0.61 0.70 0.71 0.66 0.68 0.75
0.00 0.04 0.12 0.05 0.06 0.19 0.16 0.01 0.00 0.01 0.12 0.07 0.06 0.20 0.18 0.26 0.19 0.24 0.31 0.49 0.56 0.43 0.21 0.16 0.17 0.33 0.70 0.70 0.55 0.58 0.67 0.62 0.81 1.04 1.03 1.14 1.12 1.09 1.14 1.15 1.19 1.31 1.32 1.17
0.00 0.04 0.13 0.05 0.05 0.05 0.02 0.04 0.02 0.09 0.22 0.09 0.03 0.02 0.05 0.14 0.16 0.25 0.35 0.49 0.55 0.40 0.10 0.04 0.02 0.02 0.05 0.28 0.47 0.43 0.45 0.63 0.64 0.65 0.88 0.85 1.00 1.17 1.18 1.33 1.43 1.57 1.76 1.86
0.02 0.11 0.07 0.09 0.06 0.08 0.02 0.03 0.07 0.14 0.10 0.06 0.04 0.02 0.01 0.04 0.13 0.15 0.27 0.28 0.28 0.25 0.06 0.00 0.00 0.00 0.00 0.00 0.04 0.17 0.27 0.32 0.40 0.45 0.41 0.53 0.57 0.58 0.77 0.80 0.86 0.97 1.01 1.14
0.08 0.04 0.03 0.08 0.11 0.17 0.08 0.08 0.08 0.02 0.06 0.06 0.03 0.02 0.02 0.05 0.06 0.07 0.16 0.11 0.06 0.03 0.02 0.00 0.00 0.00 0.00 0.00 0.00 0.02 0.06 0.08 0.11 0.16 0.21 0.25 0.28 0.37 0.39 0.42 0.48 0.45 0.46 0.47
0.02 0.00 0.03 0.11 0.14 0.07 0.05 0.04 0.03 0.02 0.03 0.03 0.03 0.02 0.01 0.01 0.03 0.05 0.06 0.05 0.02 0.01 0.00 0.00 0.00 0.00 0.00 0.00 0.00 0.01 0.01 0.00 0.01 0.03 0.06 0.07 0.09 0.12 0.15 0.21 0.27 0.34 0.39 0.37
0.01 0.00 0.01 0.09 0.11 0.07 0.04 0.03 0.03 0.02 0.02 0.01 0.00 0.00 0.00 0.00 0.00 0.00 0.00 0.00 0.00 0.00 0.00 0.00 0.00 0.00 0.00 0.00 0.00 0.00 0.01 0.00 0.00 0.00 0.01 0.02 0.01 0.01 0.03 0.06 0.10 0.14 0.24 0.23
0.00 0.00 0.02 0.08 0.05 0.06 0.07 0.03 0.01 0.01 0.02 0.01 0.00 0.00 0.00 0.00 0.00 0.00 0.00 0.00 0.00 0.00 0.00 0.00 0.00 0.00 0.00 0.00 0.00 0.00 0.01 0.00 0.00 0.01 0.02 0.03 0.03 0.01 0.00 0.00 0.01 0.04 0.06 0.05

GFSCGP_prec_precacc24_126.txt.gz
Total_Precipitation_Accumulation
0.00 0.00 0.00 0.00 0.00 0.00 0.00 0.00 0.00 0.00 0.00 0.00 0.00 0.00 0.00 0.00 0.00 0.00 0.00 0.00 0.00 0.00 0.00 0.00 0.00 0.00 0.00 0.00 0.00 0.00 0.00 0.00 0.00 0.00 0.01 0.01 0.01 0.01 0.02 0.00 0.00 0.01 0.01 0.02
0.00 0.00 0.00 0.00 0.00 0.00 0.00 0.00 0.00 0.00 0.00 0.00 0.01 0.00 0.00 0.00 0.00 0.00 0.00 0.00 0.00 0.00 0.00 0.00 0.00 0.00 0.00 0.00 0.00 0.00 0.00 0.00 0.01 0.00 0.01 0.06 0.04 0.03 0.08 0.05 0.01 0.01 0.01 0.01
0.00 0.00 0.00 0.00 0.00 0.00 0.00 0.00 0.00 0.00 0.00 0.00 0.03 0.01 0.00 0.00 0.00 0.00 0.00 0.00 0.00 0.00 0.00 0.00 0.00 0.00 0.00 0.00 0.00 0.00 0.00 0.00 0.01 0.00 0.08 0.15 0.12 0.15 0.16 0.07 0.01 0.02 0.02 0.03
0.01 0.00 0.00 0.00 0.00 0.01 0.00 0.00 0.00 0.00 0.01 0.04 0.06 0.07 0.00 0.00 0.00 0.00 0.00 0.00 0.00 0.00 0.00 0.00 0.00 0.00 0.00 0.00 0.00 0.00 0.01 0.00 0.02 0.07 0.09 0.06 0.01 0.01 0.01 0.02 0.03 0.06 0.06 0.04
0.04 0.01 0.01 0.01 0.00 0.02 0.01 0.01 0.00 0.01 0.04 0.02 0.03 0.07 0.00 0.01 0.08 0.06 0.03 0.02 0.01 0.01 0.01 0.00 0.00 0.00 0.00 0.00 0.00 0.00 0.03 0.13 0.13 0.15 0.30 0.20 0.11 0.07 0.04 0.02 0.01 0.06 0.13 0.18
0.01 0.01 0.01 0.00 0.00 0.01 0.01 0.01 0.03 0.06 0.07 0.06 0.00 0.02 0.07 0.50 0.49 0.32 0.17 0.10 0.07 0.05 0.04 0.03 0.02 0.01 0.01 0.02 0.01 0.00 0.00 0.04 0.17 0.16 0.22 0.39 0.31 0.15 0.10 0.05 0.03 0.08 0.23 0.22
0.07 0.08 0.01 0.01 0.00 0.01 0.02 0.05 0.09 0.08 0.10 0.02 0.02 0.04 0.22 0.45 0.42 0.33 0.28 0.20 0.16 0.10 0.09 0.07 0.05 0.03 0.02 0.04 0.05 0.03 0.02 0.01 0.03 0.05 0.07 0.06 0.09 0.08 0.05 0.07 0.09 0.18 0.29 0.15
0.12 0.17 0.08 0.00 0.00 0.01 0.01 0.02 0.07 0.08 0.04 0.04 0.05 0.20 0.65 0.57 0.79 0.54 0.77 0.44 0.31 0.22 0.13 0.09 0.08 0.05 0.02 0.02 0.05 0.02 0.03 0.03 0.02 0.03 0.04 0.03 0.07 0.09 0.06 0.04 0.09 0.11 0.22 0.16
0.22 0.19 0.06 0.01 0.04 0.09 0.07 0.02 0.01 0.07 0.12 0.15 0.26 0.75 0.62 0.48 0.78 1.53 0.87 0.49 0.60 0.51 0.24 0.12 0.10 0.09 0.07 0.05 0.05 0.04 0.04 0.04 0.04 0.04 0.04 0.05 0.09 0.11 0.09 0.09 0.12 0.09 0.09 0.16
0.19 0.45 0.17 0.06 0.07 0.07 0.09 0.06 0.12 0.15 0.23 0.35 0.35 0.52 0.76 0.80 1.13 0.99 1.19 1.21 0.60 0.63 0.42 0.18 0.10 0.07 0.03 0.04 0.04 0.04 0.05 0.05 0.05 0.03 0.02 0.05 0.06 0.04 0.09 0.08 0.05 0.07 0.15 0.21
0.23 0.53 0.33 0.15 0.15 0.15 0.19 0.11 0.10 0.10 0.20 0.51 0.74 1.02 1.25 1.51 1.68 1.70 1.07 1.11 1.22 0.65 0.85 0.51 0.24 0.13 0.06 0.01 0.04 0.05 0.05 0.05 0.04 0.04 0.10 0.11 0.07 0.10 0.15 0.10 0.08 0.12 0.17 0.25
0.10 0.82 0.64 0.23 0.12 0.17 0.23 0.15 0.06 0.14 0.21 0.29 0.91 1.54 1.79 1.53 1.22 0.81 0.80 0.73 0.72 0.76 0.74 0.87 0.63 0.42 0.12 0.03 0.05 0.08 0.07 0.10 0.11 0.13 0.20 0.20 0.22 0.31 0.27 0.20 0.13 0.13 0.15 0.20
0.22 0.71 0.35 0.30 0.48 0.23 0.14 0.15 0.16 0.19 0.36 0.73 0.99 1.41 1.49 0.69 0.56 0.46 0.41 0.45 0.43 0.34 0.43 0.56 0.46 0.50 0.47 0.20 0.11 0.07 0.09 0.08 0.10 0.11 0.20 0.26 0.31 0.42 0.45 0.37 0.22 0.25 0.28 0.28
0.24 0.27 0.32 0.45 0.47 0.31 0.20 0.16 0.18 0.28 0.46 0.65 0.87 1.03 0.69 0.35 0.26 0.27 0.31 0.32 0.33 0.31 0.20 0.22 0.39 0.41 0.45 0.40 0.26 0.20 0.13 0.12 0.09 0.06 0.08 0.21 0.31 0.43 0.48 0.46 0.32 0.37 0.37 0.32
0.07 0.35 0.70 0.52 0.54 0.33 0.71 0.76 0.78 0.48 0.44 0.49 0.84 0.47 0.43 0.30 0.25 0.25 0.28 0.33 0.15 0.06 0.07 0.08 0.10 0.17 0.30 0.30 0.23 0.20 0.17 0.14 0.13 0.16 0.20 0.18 0.21 0.32 0.42 0.42 0.37 0.34 0.37 0.35
0.03 0.22 0.68 1.30 0.83 0.32 0.78 0.94 0.71 0.37 0.40 0.44 0.33 0.38 0.35 0.25 0.24 0.24 0.26 0.28 0.16 0.05 0.04 0.19 0.28 0.21 0.21 0.18 0.18 0.19 0.19 0.19 0.21 0.22 0.20 0.24 0.24 0.31 0.40 0.30 0.32 0.26 0.24 0.28
0.03 0.05 0.16 0.47 0.42 0.14 0.47 0.81 0.47 0.25 0.20 0.13 0.14 0.25 0.25 0.18 0.18 0.23 0.24 0.27 0.19 0.11 0.12 0.43 0.66 0.62 0.52 0.45 0.38 0.34 0.31 0.29 0.27 0.26 0.25 0.23 0.25 0.30 0.35 0.34 0.38 0.34 0.32 0.34
0.01 0.04 0.04 0.18 0.16 0.40 0.83 0.37 0.22 0.13 0.15 0.11 0.09 0.16 0.23 0.15 0.17 0.16 0.19 0.21 0.19 0.16 0.18 0.28 0.60 0.70 0.74 0.67 0.60 0.55 0.49 0.54 0.51 0.43 0.35 0.28 0.31 0.42 0.53 0.46 0.41 0.50 0.50 0.41
0.00 0.03 0.12 0.13 0.14 0.33 0.24 0.06 0.06 0.13 0.14 0.11 0.10 0.15 0.20 0.19 0.09 0.04 0.10 0.21 0.27 0.24 0.18 0.18 0.35 0.65 0.59 0.65 0.63 0.67 0.58 0.66 0.79 0.78 0.69 0.63 0.51 0.55 0.59 0.69 0.71 0.65 0.67 0.74
0.00 0.04 0.14 0.05 0.07 0.20 0.16 0.02 0.00 0.02 0.13 0.07 0.05 0.05 0.09 0.14 0.10 0.09 0.09 0.16 0.26 0.20 0.10 0.07 0.06 0.18 0.52 0.58 0.51 0.55 0.65 0.56 0.70 0.94 0.96 1.09 1.07 1.06 1.13 1.14 1.18 1.30 1.31 1.16
0.00 0.04 0.14 0.06 0.06 0.05 0.02 0.04 0.02 0.11 0.23 0.09 0.03 0.01 0.00 0.02 0.05 0.09 0.09 0.16 0.21 0.18 0.04 0.03 0.02 0.01 0.03 0.22 0.39 0.38 0.43 0.62 0.63 0.63 0.86 0.83 1.00 1.18 1.18 1.34 1.43 1.57 1.76 1.86
0.02 0.11 0.06 0.09 0.06 0.07 0.02 0.03 0.07 0.13 0.10 0.06 0.04 0.02 0.01 0.02 0.03 0.03 0.07 0.08 0.07 0.13 0.05 0.00 0.00 0.00 0.00 0.00 0.04 0.16 0.25 0.30 0.39 0.44 0.41 0.53 0.57 0.58 0.77 0.80 0.86 0.97 1.02 1.14
0.04 0.02 0.02 0.06 0.07 0.10 0.06 0.07 0.07 0.02 0.03 0.03 0.02 0.01 0.01 0.01 0.01 0.01 0.03 0.03 0.02 0.01 0.01 0.00 0.00 0.00 0.00 0.00 0.00 0.02 0.06 0.08 0.11 0.15 0.20 0.24 0.28 0.37 0.40 0.42 0.48 0.45 0.47 0.47
0.01 0.00 0.02 0.07 0.11 0.05 0.03 0.01 0.01 0.01 0.01 0.00 0.00 0.00 0.00 0.00 0.00 0.00 0.00 0.00 0.00 0.00 0.00 0.00 0.00 0.00 0.00 0.00 0.00 0.01 0.01 0.00 0.01 0.03 0.05 0.07 0.09 0.12 0.15 0.21 0.27 0.34 0.39 0.37
0.01 0.00 0.01 0.07 0.09 0.04 0.03 0.01 0.01 0.00 0.00 0.00 0.00 0.00 0.00 0.00 0.00 0.00 0.00 0.00 0.00 0.00 0.00 0.00 0.00 0.00 0.00 0.00 0.00 0.00 0.01 0.00 0.00 0.00 0.01 0.02 0.01 0.01 0.03 0.06 0.10 0.14 0.24 0.23
0.00 0.00 0.02 0.06 0.03 0.04 0.04 0.01 0.00 0.00 0.00 0.00 0.00 0.00 0.00 0.00 0.00 0.00 0.00 0.00 0.00 0.00 0.00 0.00 0.00 0.00 0.00 0.00 0.00 0.00 0.01 0.00 0.00 0.01 0.01 0.02 0.03 0.01 0.00 0.00 0.01 0.03 0.06 0.04

GFSCGP_prec_precacc24_132.txt.gz
Total_Precipitation_Accumulation
0.00 0.00 0.00 0.00 0.00 0.00 0.00 0.00 0.00 0.00 0.00 0.00 0.00 0.00 0.00 0.00 0.00 0.00 0.00 0.00 0.00 0.00 0.00 0.00 0.00 0.00 0.00 0.00 0.00 0.00 0.00 0.00 0.00 0.04 0.16 0.16 0.13 0.10 0.10 0.00 0.00 0.00 0.00 0.00
0.00 0.00 0.00 0.00 0.00 0.00 0.00 0.00 0.00 0.00 0.00 0.00 0.01 0.00 0.00 0.00 0.00 0.00 0.00 0.00 0.00 0.00 0.00 0.00 0.00 0.00 0.00 0.00 0.00 0.00 0.00 0.00 0.01 0.00 0.05 0.18 0.21 0.16 0.11 0.06 0.01 0.00 0.00 0.00
0.00 0.00 0.00 0.00 0.00 0.00 0.00 0.00 0.00 0.00 0.00 0.00 0.03 0.01 0.00 0.00 0.00 0.00 0.00 0.00 0.00 0.00 0.00 0.00 0.00 0.00 0.00 0.00 0.00 0.00 0.00 0.00 0.02 0.01 0.15 0.29 0.28 0.32 0.29 0.15 0.01 0.01 0.01 0.00
0.01 0.00 0.00 0.00 0.00 0.01 0.00 0.00 0.00 0.00 0.01 0.04 0.06 0.07 0.00 0.00 0.00 0.00 0.00 0.00 0.00 0.00 0.00 0.00 0.00 0.00 0.00 0.00 0.00 0.00 0.01 0.00 0.05 0.18 0.33 0.31 0.24 0.24 0.10 0.05 0.04 0.05 0.06 0.03
0.03 0.01 0.01 0.01 0.00 0.02 0.01 0.01 0.00 0.01 0.04 0.02 0.03 0.07 0.00 0.01 0.08 0.06 0.03 0.02 0.01 0.01 0.02 0.01 0.01 0.01 0.00 0.00 0.00 0.00 0.03 0.13 0.13 0.19 0.48 0.54 0.49 0.25 0.14 0.10 0.06 0.06 0.13 0.17
0.00 0.00 0.01 0.00 0.00 0.01 0.01 0.01 0.03 0.06 0.07 0.06 0.00 0.02 0.07 0.51 0.50 0.32 0.17 0.10 0.07 0.06 0.05 0.04 0.04 0.04 0.03 0.04 0.04 0.01 0.01 0.05 0.17 0.17 0.31 0.59 0.96 1.33 1.48 1.11 0.57 0.29 0.37 0.31
0.00 0.00 0.00 0.01 0.00 0.01 0.02 0.04 0.06 0.05 0.09 0.02 0.02 0.04 0.22 0.46 0.43 0.35 0.29 0.21 0.17 0.12 0.10 0.09 0.08 0.07 0.07 0.09 0.13 0.14 0.07 0.05 0.05 0.07 0.13 0.19 0.35 0.66 1.14 1.77 2.40 1.88 1.39 0.99
0.00 0.01 0.01 0.00 0.00 0.01 0.01 0.02 0.03 0.05 0.03 0.04 0.05 0.21 0.66 0.57 0.79 0.54 0.78 0.45 0.32 0.24 0.16 0.12 0.13 0.11 0.11 0.13 0.16 0.21 0.20 0.19 0.11 0.09 0.11 0.16 0.19 0.27 0.53 0.57 0.98 1.34 1.55 1.24
0.07 0.05 0.02 0.01 0.03 0.08 0.05 0.01 0.01 0.04 0.09 0.11 0.25 0.74 0.62 0.48 0.78 1.53 0.89 0.51 0.64 0.60 0.35 0.19 0.17 0.23 0.31 0.25 0.20 0.28 0.32 0.39 0.30 0.20 0.12 0.16 0.20 0.19 0.22 0.31 0.52 0.73 0.65 0.55
0.09 0.31 0.10 0.03 0.05 0.05 0.05 0.06 0.11 0.15 0.15 0.31 0.36 0.51 0.62 0.70 1.12 0.99 1.21 1.25 0.67 0.75 0.61 0.33 0.26 0.31 0.30 0.36 0.25 0.30 0.43 0.54 0.37 0.37 0.23 0.20 0.24 0.16 0.19 0.16 0.16 0.30 0.61 0.67
0.09 0.41 0.27 0.10 0.12 0.12 0.08 0.05 0.06 0.09 0.20 0.48 0.73 0.87 1.15 1.46 1.67 1.70 1.08 1.15 1.30 0.78 1.06 0.80 0.49 0.43 0.55 0.69 0.29 0.33 0.49 0.89 0.50 0.32 0.28 0.20 0.14 0.22 0.24 0.21 0.16 0.23 0.27 0.35
0.09 0.75 0.58 0.18 0.11 0.17 0.21 0.14 0.08 0.16 0.23 0.36 0.96 1.25 1.70 1.48 1.20 0.82 0.81 0.75 0.76 0.85 0.91 1.19 0.93 0.75 0.76 0.37 0.31 0.30 0.30 0.32 0.56 0.27 0.26 0.25 0.23 0.32 0.32 0.25 0.20 0.16 0.17 0.22
0.20 0.64 0.24 0.15 0.39 0.19 0.11 0.15 0.17 0.21 0.38 0.77 1.05 1.31 1.41 0.68 0.56 0.46 0.42 0.47 0.48 0.41 0.54 0.81 0.77 0.81 0.94 0.52 0.47 0.35 0.33 0.20 0.22 0.18 0.29 0.35 0.31 0.38 0.41 0.34 0.24 0.27 0.30 0.29
0.22 0.22 0.25 0.35 0.45 0.29 0.14 0.10 0.16 0.28 0.53 0.77 0.91 0.95 0.63 0.35 0.26 0.27 0.31 0.34 0.39 0.38 0.26 0.29 0.49 0.58 0.86 0.87 0.57 0.48 0.44 0.41 0.23 0.20 0.10 0.19 0.25 0.38 0.43 0.40 0.34 0.36 0.37 0.33
0.04 0.23 0.55 0.41 0.51 0.31 0.64 0.70 0.76 0.45 0.45 0.54 0.85 0.44 0.43 0.30 0.25 0.25 0.28 0.35 0.20 0.10 0.09 0.04 0.03 0.10 0.29 0.41 0.39 0.40 0.30 0.26 0.29 0.29 0.23 0.12 0.11 0.24 0.36 0.38 0.36 0.33 0.38 0.39
0.02 0.22 0.67 1.17 0.76 0.30 0.74 0.93 0.73 0.38 0.40 0.42 0.28 0.27 0.34 0.26 0.24 0.25 0.26 0.25 0.17 0.05 0.02 0.02 0.02 0.01 0.02 0.03 0.07 0.12 0.13 0.09 0.09 0.10 0.11 0.15 0.14 0.23 0.32 0.25 0.29 0.25 0.24 0.29
0.01 0.07 0.17 0.52 0.43 0.16 0.50 0.82 0.47 0.25 0.20 0.12 0.11 0.20 0.25 0.18 0.18 0.24 0.22 0.18 0.12 0.07 0.04 0.05 0.06 0.05 0.04 0.04 0.06 0.14 0.14 0.13 0.11 0.09 0.08 0.08 0.13 0.23 0.30 0.30 0.36 0.34 0.31 0.33
0.01 0.04 0.06 0.25 0.19 0.43 0.82 0.37 0.22 0.12 0.15 0.10 0.08 0.15 0.15 0.12 0.16 0.14 0.12 0.10 0.08 0.05 0.04 0.04 0.04 0.03 0.03 0.04 0.09 0.16 0.22 0.28 0.27 0.20 0.14 0.12 0.19 0.31 0.46 0.42 0.38 0.47 0.48 0.40
0.00 0.04 0.14 0.20 0.22 0.35 0.22 0.06 0.07 0.11 0.12 0.11 0.10 0.11 0.09 0.11 0.05 0.03 0.04 0.06 0.07 0.05 0.02 0.01 0.01 0.01 0.00 0.02 0.13 0.19 0.23 0.27 0.31 0.36 0.31 0.31 0.27 0.36 0.42 0.56 0.63 0.59 0.60 0.70
0.00 0.04 0.15 0.08 0.14 0.21 0.09 0.01 0.00 0.02 0.09 0.06 0.05 0.04 0.04 0.06 0.06 0.06 0.04 0.03 0.03 0.02 0.00 0.00 0.00 0.00 0.00 0.00 0.01 0.06 0.13 0.17 0.28 0.36 0.46 0.47 0.48 0.55 0.64 0.71 0.84 1.03 1.03 0.90
0.01 0.05 0.15 0.08 0.10 0.08 0.01 0.04 0.02 0.08 0.17 0.07 0.02 0.01 0.00 0.02 0.04 0.05 0.02 0.02 0.01 0.00 0.00 0.00 0.00 0.00 0.00 0.00 0.00 0.01 0.04 0.13 0.19 0.21 0.27 0.32 0.48 0.63 0.68 0.77 0.95 1.14 1.27 1.37
0.01 0.05 0.05 0.09 0.07 0.09 0.02 0.03 0.06 0.10 0.07 0.04 0.03 0.01 0.01 0.01 0.01 0.01 0.01 0.00 0.00 0.00 0.00 0.00 0.00 0.00 0.00 0.00 0.00 0.00 0.04 0.06 0.11 0.12 0.11 0.17 0.20 0.24 0.44 0.52 0.62 0.78 0.82 0.94
0.01 0.00 0.03 0.05 0.07 0.08 0.05 0.06 0.05 0.01 0.02 0.01 0.00 0.00 0.00 0.00 0.00 0.00 0.00 0.00 0.00 0.00 0.00 0.00 0.00 0.00 0.00 0.00 0.00 0.02 0.03 0.01 0.01 0.04 0.06 0.06 0.09 0.13 0.16 0.26 0.38 0.39 0.43 0.45
0.01 0.00 0.01 0.03 0.08 0.04 0.02 0.01 0.00 0.00 0.00 0.00 0.00 0.00 0.00 0.00 0.00 0.00 0.00 0.00 0.00 0.00 0.00 0.00 0.00 0.00 0.00 0.00 0.00 0.01 0.01 0.00 0.00 0.01 0.02 0.02 0.03 0.05 0.07 0.09 0.14 0.23 0.32 0.33
0.01 0.00 0.00 0.04 0.06 0.03 0.02 0.01 0.00 0.00 0.00 0.00 0.00 0.00 0.00 0.00 0.00 0.00 0.00 0.00 0.00 0.00 0.00 0.00 0.00 0.00 0.00 0.00 0.00 0.00 0.01 0.00 0.00 0.00 0.01 0.02 0.00 0.00 0.01 0.03 0.07 0.10 0.18 0.18
0.00 0.00 0.01 0.02 0.01 0.01 0.02 0.00 0.00 0.00 0.00 0.00 0.00 0.00 0.00 0.00 0.00 0.00 0.00 0.00 0.00 0.00 0.00 0.00 0.00 0.00 0.00 0.00 0.00 0.00 0.00 0.00 0.00 0.00 0.01 0.02 0.03 0.01 0.00 0.00 0.01 0.02 0.04 0.03

GFSCGP_prec_precacc24_135.txt.gz
Total_Precipitation_Accumulation
0.00 0.00 0.00 0.00 0.00 0.00 0.00 0.00 0.00 0.00 0.00 0.00 0.00 0.00 0.00 0.00 0.00 0.00 0.00 0.00 0.00 0.00 0.00 0.00 0.00 0.00 0.00 0.00 0.00 0.00 0.00 0.00 0.00 0.04 0.16 0.16 0.15 0.16 0.17 0.20 0.25 0.21 0.07 0.00
0.00 0.00 0.00 0.00 0.00 0.00 0.00 0.00 0.00 0.00 0.00 0.00 0.00 0.00 0.00 0.00 0.00 0.00 0.00 0.00 0.00 0.00 0.00 0.00 0.00 0.00 0.00 0.00 0.00 0.00 0.00 0.00 0.01 0.00 0.05 0.18 0.21 0.20 0.16 0.13 0.21 0.28 0.15 0.03
0.00 0.00 0.00 0.00 0.00 0.00 0.00 0.00 0.00 0.00 0.00 0.00 0.02 0.00 0.00 0.00 0.00 0.00 0.00 0.00 0.00 0.00 0.00 0.00 0.00 0.00 0.00 0.00 0.00 0.00 0.00 0.00 0.02 0.01 0.15 0.29 0.28 0.33 0.33 0.25 0.10 0.06 0.14 0.03
0.01 0.00 0.00 0.00 0.00 0.01 0.00 0.00 0.00 0.00 0.00 0.00 0.05 0.06 0.00 0.00 0.00 0.00 0.00 0.00 0.00 0.00 0.00 0.00 0.00 0.00 0.00 0.00 0.00 0.00 0.00 0.00 0.05 0.18 0.33 0.31 0.24 0.25 0.11 0.06 0.09 0.12 0.23 0.12
0.01 0.01 0.01 0.00 0.00 0.02 0.01 0.01 0.00 0.01 0.02 0.01 0.02 0.06 0.00 0.01 0.08 0.06 0.03 0.02 0.01 0.01 0.02 0.01 0.01 0.01 0.00 0.00 0.00 0.00 0.01 0.10 0.13 0.19 0.48 0.54 0.50 0.26 0.15 0.16 0.27 0.30 0.31 0.39
0.00 0.00 0.00 0.00 0.00 0.01 0.01 0.01 0.02 0.05 0.06 0.04 0.00 0.02 0.07 0.51 0.50 0.32 0.17 0.10 0.07 0.06 0.05 0.04 0.04 0.04 0.03 0.04 0.04 0.01 0.01 0.02 0.12 0.16 0.31 0.60 0.97 1.33 1.50 1.21 0.79 0.60 0.67 0.66
0.00 0.00 0.00 0.00 0.00 0.01 0.02 0.04 0.05 0.04 0.07 0.01 0.02 0.04 0.22 0.45 0.43 0.35 0.29 0.20 0.17 0.12 0.10 0.09 0.08 0.07 0.07 0.09 0.13 0.14 0.08 0.05 0.03 0.06 0.13 0.22 0.38 0.68 1.16 1.83 2.56 2.53 2.10 1.80
0.00 0.00 0.00 0.00 0.00 0.00 0.01 0.02 0.02 0.04 0.03 0.04 0.05 0.21 0.66 0.57 0.79 0.52 0.74 0.44 0.32 0.24 0.16 0.12 0.13 0.12 0.12 0.13 0.17 0.21 0.21 0.20 0.11 0.09 0.13 0.22 0.24 0.30 0.55 0.70 1.08 1.94 2.61 2.30
0.02 0.00 0.00 0.00 0.02 0.08 0.05 0.01 0.00 0.03 0.08 0.10 0.25 0.69 0.59 0.46 0.76 1.49 0.84 0.48 0.64 0.60 0.35 0.20 0.18 0.24 0.32 0.27 0.22 0.31 0.35 0.48 0.40 0.25 0.18 0.23 0.26 0.24 0.27 0.38 0.78 1.01 0.97 1.21
0.03 0.06 0.01 0.00 0.03 0.05 0.05 0.05 0.08 0.06 0.08 0.18 0.34 0.43 0.45 0.39 0.82 0.86 1.17 1.25 0.67 0.75 0.61 0.34 0.26 0.32 0.32 0.42 0.28 0.37 0.62 0.91 0.64 0.56 0.43 0.38 0.36 0.28 0.25 0.18 0.25 0.57 1.06 1.12
0.06 0.14 0.12 0.06 0.09 0.12 0.08 0.03 0.03 0.06 0.12 0.29 0.60 0.52 0.77 0.87 1.08 1.32 1.06 1.15 1.30 0.79 1.07 0.81 0.49 0.44 0.59 0.77 0.33 0.39 0.75 1.49 1.25 0.80 0.54 0.58 0.34 0.47 0.27 0.20 0.17 0.34 0.48 0.72
0.04 0.35 0.47 0.16 0.06 0.14 0.12 0.08 0.06 0.13 0.18 0.24 0.75 0.71 0.91 1.10 0.93 0.77 0.80 0.75 0.76 0.86 0.91 1.19 0.94 0.76 0.77 0.42 0.44 0.40 0.43 0.47 1.29 1.04 0.72 0.54 0.31 0.30 0.33 0.27 0.22 0.20 0.24 0.29
0.15 0.52 0.18 0.13 0.34 0.17 0.07 0.11 0.13 0.19 0.35 0.66 0.88 0.75 0.95 0.66 0.55 0.46 0.42 0.47 0.48 0.41 0.54 0.81 0.77 0.82 0.97 0.56 0.60 0.56 0.56 0.41 0.46 0.48 0.63 0.45 0.26 0.22 0.26 0.39 0.36 0.25 0.30 0.31
0.19 0.19 0.23 0.32 0.40 0.28 0.13 0.06 0.07 0.18 0.50 0.64 0.73 0.66 0.54 0.35 0.26 0.27 0.31 0.34 0.39 0.38 0.26 0.29 0.49 0.58 0.88 0.90 0.60 0.61 0.69 0.68 0.43 0.40 0.25 0.47 0.33 0.24 0.27 0.34 0.38 0.35 0.31 0.36
0.04 0.23 0.45 0.34 0.48 0.25 0.45 0.57 0.58 0.36 0.43 0.44 0.65 0.39 0.41 0.30 0.25 0.25 0.28 0.34 0.18 0.09 0.09 0.04 0.03 0.10 0.29 0.42 0.37 0.38 0.28 0.33 0.44 0.44 0.38 0.20 0.14 0.13 0.20 0.32 0.32 0.28 0.32 0.35
0.02 0.13 0.49 0.79 0.60 0.27 0.62 0.86 0.71 0.38 0.38 0.31 0.19 0.22 0.31 0.25 0.24 0.25 0.26 0.25 0.16 0.04 0.01 0.01 0.01 0.01 0.02 0.03 0.06 0.08 0.10 0.05 0.07 0.08 0.13 0.17 0.08 0.06 0.11 0.16 0.23 0.23 0.22 0.27
0.02 0.06 0.15 0.37 0.38 0.17 0.44 0.80 0.47 0.25 0.19 0.11 0.09 0.17 0.24 0.18 0.18 0.23 0.21 0.17 0.10 0.05 0.02 0.02 0.03 0.04 0.03 0.03 0.01 0.01 0.02 0.05 0.07 0.05 0.03 0.03 0.04 0.11 0.13 0.20 0.28 0.29 0.30 0.32
0.02 0.05 0.08 0.25 0.18 0.32 0.58 0.35 0.22 0.12 0.15 0.10 0.07 0.14 0.15 0.11 0.15 0.13 0.10 0.07 0.05 0.03 0.01 0.01 0.02 0.02 0.02 0.01 0.00 0.00 0.01 0.08 0.15 0.14 0.09 0.06 0.08 0.12 0.25 0.28 0.30 0.41 0.44 0.39
0.03 0.07 0.16 0.20 0.22 0.29 0.20 0.06 0.07 0.10 0.11 0.11 0.10 0.11 0.09 0.10 0.05 0.02 0.02 0.03 0.03 0.02 0.00 0.00 0.01 0.01 0.00 0.01 0.00 0.01 0.01 0.05 0.12 0.20 0.21 0.22 0.15 0.18 0.17 0.35 0.49 0.48 0.50 0.63
0.00 0.04 0.15 0.09 0.16 0.18 0.07 0.01 0.00 0.01 0.08 0.06 0.04 0.04 0.04 0.05 0.05 0.04 0.02 0.01 0.00 0.00 0.00 0.00 0.00 0.00 0.00 0.00 0.00 0.00 0.01 0.02 0.07 0.18 0.28 0.26 0.29 0.28 0.42 0.48 0.56 0.77 0.82 0.70
0.01 0.05 0.15 0.08 0.09 0.09 0.01 0.04 0.02 0.08 0.14 0.06 0.02 0.00 0.00 0.01 0.02 0.03 0.00 0.00 0.00 0.00 0.00 0.00 0.00 0.00 0.00 0.00 0.00 0.01 0.01 0.03 0.03 0.06 0.14 0.16 0.17 0.22 0.31 0.43 0.50 0.64 0.89 1.01
0.01 0.02 0.06 0.09 0.07 0.10 0.02 0.03 0.05 0.08 0.05 0.03 0.02 0.00 0.00 0.01 0.00 0.00 0.00 0.00 0.00 0.00 0.00 0.00 0.00 0.00 0.00 0.00 0.00 0.00 0.03 0.03 0.01 0.00 0.00 0.01 0.02 0.05 0.11 0.16 0.23 0.32 0.38 0.51
0.00 0.00 0.03 0.05 0.06 0.06 0.04 0.05 0.04 0.00 0.01 0.01 0.00 0.00 0.00 0.00 0.00 0.00 0.00 0.00 0.00 0.00 0.00 0.00 0.00 0.00 0.00 0.00 0.00 0.01 0.03 0.00 0.00 0.00 0.00 0.00 0.01 0.01 0.02 0.03 0.06 0.11 0.19 0.22
0.00 0.00 0.00 0.02 0.07 0.03 0.02 0.01 0.00 0.00 0.00 0.00 0.00 0.00 0.00 0.00 0.00 0.00 0.00 0.00 0.00 0.00 0.00 0.00 0.00 0.00 0.00 0.00 0.00 0.01 0.01 0.00 0.00 0.01 0.00 0.00 0.00 0.00 0.00 0.01 0.03 0.04 0.09 0.10
0.01 0.00 0.00 0.03 0.05 0.02 0.02 0.01 0.00 0.00 0.00 0.00 0.00 0.00 0.00 0.00 0.00 0.00 0.00 0.00 0.00 0.00 0.00 0.00 0.00 0.00 0.00 0.00 0.00 0.00 0.01 0.00 0.00 0.00 0.01 0.01 0.00 0.00 0.00 0.01 0.02 0.04 0.10 0.09
0.00 0.00 0.00 0.01 0.00 0.00 0.02 0.00 0.00 0.00 0.00 0.00 0.00 0.00 0.00 0.00 0.00 0.00 0.00 0.00 0.00 0.00 0.00 0.00 0.00 0.00 0.00 0.00 0.00 0.00 0.00 0.00 0.00 0.00 0.01 0.01 0.02 0.00 0.00 0.00 0.00 0.01 0.03 0.02

GFSCGP_prec_precacc24_141.txt.gz
Total_Precipitation_Accumulation
0.00 0.00 0.00 0.00 0.00 0.00 0.00 0.00 0.00 0.00 0.00 0.00 0.00 0.00 0.00 0.00 0.00 0.00 0.00 0.00 0.00 0.00 0.00 0.00 0.00 0.00 0.00 0.00 0.00 0.00 0.00 0.00 0.00 0.04 0.14 0.16 0.15 0.16 0.17 0.20 0.32 0.48 0.59 0.64
0.00 0.00 0.00 0.00 0.00 0.00 0.00 0.00 0.00 0.00 0.00 0.00 0.00 0.00 0.00 0.00 0.00 0.00 0.00 0.00 0.00 0.00 0.00 0.00 0.00 0.00 0.00 0.00 0.00 0.00 0.00 0.00 0.01 0.00 0.04 0.13 0.18 0.17 0.10 0.09 0.22 0.35 0.30 0.43
0.00 0.00 0.00 0.00 0.00 0.00 0.00 0.00 0.00 0.00 0.00 0.00 0.00 0.00 0.00 0.00 0.00 0.00 0.00 0.00 0.00 0.00 0.00 0.00 0.00 0.00 0.00 0.00 0.00 0.00 0.00 0.00 0.02 0.01 0.09 0.20 0.18 0.19 0.20 0.21 0.10 0.07 0.20 0.20
0.00 0.00 0.00 0.00 0.00 0.00 0.00 0.00 0.00 0.00 0.00 0.00 0.00 0.03 0.00 0.00 0.00 0.00 0.00 0.00 0.00 0.00 0.00 0.00 0.00 0.00 0.00 0.00 0.00 0.00 0.00 0.00 0.04 0.15 0.32 0.29 0.23 0.25 0.11 0.06 0.10 0.12 0.26 0.28
0.00 0.00 0.00 0.00 0.00 0.00 0.00 0.00 0.00 0.00 0.00 0.00 0.00 0.01 0.00 0.01 0.07 0.05 0.03 0.02 0.01 0.01 0.02 0.01 0.01 0.01 0.00 0.00 0.00 0.00 0.00 0.00 0.01 0.09 0.41 0.48 0.42 0.22 0.15 0.16 0.27 0.30 0.31 0.44
0.00 0.00 0.00 0.00 0.00 0.00 0.00 0.00 0.00 0.00 0.00 0.01 0.00 0.01 0.04 0.42 0.44 0.29 0.17 0.10 0.07 0.06 0.05 0.04 0.04 0.04 0.03 0.04 0.04 0.01 0.01 0.00 0.00 0.02 0.13 0.43 0.82 1.24 1.41 1.17 0.77 0.58 0.64 0.67
0.00 0.00 0.00 0.00 0.00 0.00 0.00 0.00 0.00 0.00 0.01 0.00 0.00 0.02 0.17 0.34 0.31 0.31 0.28 0.20 0.17 0.12 0.10 0.09 0.08 0.07 0.07 0.09 0.13 0.14 0.08 0.05 0.02 0.03 0.08 0.18 0.33 0.62 1.13 1.79 2.52 2.50 2.08 1.83
0.00 0.00 0.00 0.00 0.00 0.00 0.00 0.00 0.00 0.02 0.01 0.03 0.03 0.18 0.48 0.47 0.35 0.41 0.70 0.43 0.32 0.24 0.16 0.12 0.13 0.12 0.12 0.14 0.17 0.22 0.22 0.21 0.13 0.10 0.13 0.22 0.23 0.27 0.55 0.71 1.09 1.97 2.69 2.35
0.01 0.00 0.00 0.00 0.00 0.00 0.00 0.00 0.00 0.00 0.01 0.05 0.24 0.59 0.36 0.23 0.35 0.78 0.63 0.43 0.60 0.58 0.34 0.19 0.18 0.24 0.32 0.27 0.24 0.36 0.41 0.52 0.43 0.30 0.22 0.25 0.29 0.23 0.27 0.40 0.79 1.04 1.03 1.31
0.03 0.05 0.00 0.00 0.00 0.00 0.00 0.01 0.04 0.05 0.05 0.12 0.29 0.37 0.31 0.20 0.24 0.47 0.87 1.03 0.59 0.71 0.60 0.33 0.26 0.33 0.33 0.43 0.30 0.41 0.67 0.97 0.71 0.63 0.53 0.47 0.43 0.31 0.32 0.23 0.36 0.65 1.13 1.19
0.05 0.11 0.01 0.01 0.00 0.01 0.03 0.02 0.02 0.05 0.08 0.19 0.23 0.23 0.17 0.19 0.29 0.52 0.67 0.97 1.25 0.77 1.06 0.81 0.49 0.45 0.60 0.78 0.35 0.43 0.78 1.55 1.37 0.95 0.78 0.77 0.53 0.68 0.47 0.40 0.38 0.51 0.58 0.82
0.02 0.10 0.06 0.00 0.00 0.01 0.04 0.05 0.06 0.14 0.08 0.13 0.21 0.25 0.20 0.21 0.24 0.26 0.31 0.38 0.58 0.81 0.91 1.20 0.94 0.76 0.77 0.42 0.45 0.43 0.48 0.57 1.58 1.52 1.22 1.05 1.02 1.24 0.75 0.63 0.51 0.51 0.53 0.46
0.09 0.15 0.06 0.03 0.05 0.02 0.06 0.09 0.10 0.12 0.14 0.12 0.19 0.26 0.24 0.20 0.21 0.22 0.25 0.26 0.31 0.37 0.54 0.81 0.77 0.82 0.97 0.56 0.60 0.59 0.64 0.47 0.62 0.91 1.31 1.07 0.91 1.09 1.29 0.98 0.85 0.40 0.39 0.35
0.15 0.16 0.15 0.26 0.23 0.11 0.04 0.04 0.06 0.12 0.20 0.21 0.26 0.24 0.18 0.16 0.17 0.18 0.22 0.28 0.33 0.37 0.26 0.29 0.49 0.58 0.88 0.90 0.60 0.61 0.71 0.71 0.51 0.61 0.50 1.14 1.09 0.39 0.52 0.94 0.69 0.37 0.20 0.29
0.04 0.15 0.24 0.13 0.16 0.14 0.21 0.27 0.10 0.07 0.15 0.21 0.26 0.19 0.22 0.21 0.21 0.19 0.22 0.29 0.17 0.09 0.08 0.04 0.03 0.10 0.29 0.42 0.37 0.38 0.27 0.31 0.43 0.44 0.38 0.24 0.37 0.29 0.12 0.13 0.27 0.26 0.15 0.20
0.04 0.08 0.18 0.17 0.17 0.17 0.29 0.37 0.31 0.11 0.14 0.11 0.12 0.14 0.17 0.17 0.19 0.21 0.23 0.21 0.14 0.03 0.01 0.01 0.01 0.01 0.02 0.03 0.06 0.08 0.10 0.04 0.04 0.05 0.11 0.16 0.08 0.08 0.07 0.03 0.02 0.04 0.04 0.07
0.07 0.11 0.09 0.17 0.06 0.11 0.21 0.44 0.32 0.14 0.08 0.05 0.05 0.08 0.12 0.14 0.15 0.19 0.18 0.15 0.08 0.03 0.01 0.02 0.03 0.03 0.03 0.02 0.01 0.01 0.01 0.01 0.02 0.02 0.01 0.01 0.02 0.02 0.02 0.02 0.01 0.02 0.02 0.02
0.05 0.09 0.12 0.19 0.16 0.24 0.18 0.18 0.18 0.10 0.09 0.05 0.02 0.05 0.08 0.08 0.10 0.09 0.07 0.04 0.03 0.01 0.00 0.01 0.02 0.02 0.02 0.01 0.00 0.00 0.00 0.00 0.00 0.01 0.01 0.00 0.00 0.00 0.00 0.00 0.01 0.01 0.02 0.05
0.06 0.13 0.18 0.17 0.16 0.13 0.10 0.03 0.05 0.07 0.06 0.05 0.04 0.04 0.04 0.05 0.03 0.01 0.01 0.01 0.01 0.00 0.00 0.00 0.01 0.01 0.00 0.00 0.00 0.00 0.00 0.00 0.00 0.00 0.00 0.01 0.01 0.01 0.01 0.01 0.01 0.02 0.02 0.07
0.08 0.11 0.20 0.09 0.15 0.15 0.05 0.01 0.00 0.01 0.04 0.01 0.01 0.01 0.02 0.03 0.04 0.02 0.01 0.00 0.00 0.00 0.00 0.00 0.00 0.00 0.00 0.00 0.00 0.00 0.01 0.01 0.01 0.00 0.01 0.01 0.00 0.01 0.01 0.02 0.02 0.02 0.02 0.04
0.08 0.21 0.28 0.11 0.11 0.08 0.01 0.02 0.01 0.06 0.07 0.01 0.00 0.00 0.00 0.01 0.02 0.01 0.00 0.00 0.00 0.00 0.00 0.00 0.00 0.00 0.00 0.00 0.00 0.00 0.01 0.02 0.01 0.00 0.00 0.00 0.00 0.01 0.01 0.01 0.02 0.02 0.04 0.07
0.02 0.06 0.12 0.11 0.08 0.09 0.01 0.03 0.02 0.03 0.01 0.00 0.00 0.00 0.00 0.00 0.00 0.00 0.00 0.00 0.00 0.00 0.00 0.00 0.00 0.00 0.00 0.00 0.00 0.00 0.01 0.01 0.00 0.00 0.00 0.00 0.00 0.00 0.00 0.00 0.00 0.01 0.03 0.04
0.00 0.00 0.03 0.04 0.04 0.02 0.02 0.02 0.01 0.00 0.00 0.00 0.00 0.00 0.00 0.00 0.00 0.00 0.00 0.00 0.00 0.00 0.00 0.00 0.00 0.00 0.00 0.00 0.00 0.01 0.01 0.00 0.00 0.00 0.00 0.00 0.00 0.00 0.00 0.00 0.00 0.00 0.00 0.01
0.00 0.00 0.00 0.01 0.02 0.01 0.00 0.00 0.00 0.00 0.00 0.00 0.00 0.00 0.00 0.00 0.00 0.00 0.00 0.00 0.00 0.00 0.00 0.00 0.00 0.00 0.00 0.00 0.00 0.00 0.00 0.00 0.00 0.00 0.00 0.00 0.00 0.00 0.00 0.00 0.00 0.01 0.02 0.01
0.00 0.00 0.00 0.02 0.03 0.01 0.01 0.00 0.00 0.00 0.00 0.00 0.00 0.00 0.00 0.00 0.00 0.00 0.00 0.01 0.01 0.00 0.00 0.00 0.00 0.00 0.00 0.00 0.00 0.00 0.00 0.00 0.00 0.00 0.00 0.00 0.00 0.00 0.00 0.00 0.01 0.01 0.06 0.05
0.00 0.00 0.00 0.00 0.00 0.00 0.00 0.00 0.00 0.00 0.00 0.00 0.00 0.00 0.00 0.00 0.00 0.01 0.02 0.02 0.01 0.01 0.00 0.00 0.00 0.00 0.00 0.00 0.00 0.00 0.00 0.00 0.00 0.00 0.00 0.00 0.00 0.00 0.00 0.00 0.00 0.00 0.01 0.01